ECMWFNIL_925_spd_000.txt.gz
Wind_Speed
2 2 3 3 3 3 4 5 6 6 6 6 7 7 7 7 7 7 7 7 7 8 8 9 9 10 11 11 11 12 13 14 14 14 15 18 20 22 22 24 23 21
2 2 2 2 3 3 4 5 6 7 7 6 6 6 7 7 7 7 7 8 8 8 9 9 10 10 10 11 11 11 11 11 13 13 13 16 18 19 20 22 25 24
2 2 2 2 3 4 5 6 6 7 7 6 6 6 7 7 8 8 8 8 9 9 9 10 10 11 11 11 10 11 11 11 12 12 14 17 18 18 19 19 23 26
2 2 3 3 3 4 5 6 6 7 7 6 6 7 7 8 9 9 9 9 10 10 10 11 12 12 12 12 12 12 12 12 13 12 13 17 18 19 21 20 21 26
3 3 3 4 4 4 5 6 6 7 7 7 7 7 8 8 9 9 10 10 11 12 12 12 13 13 13 13 13 13 13 13 14 14 13 16 18 20 21 21 21 25
4 4 4 4 4 5 5 6 6 7 7 7 7 7 8 8 9 10 11 12 13 13 13 14 14 14 14 13 12 12 12 14 15 16 16 16 18 21 21 22 24 26
5 5 5 5 5 6 6 6 6 6 7 7 8 8 8 9 10 11 12 13 14 14 15 16 15 15 14 14 12 12 13 14 15 17 19 19 19 21 23 25 27 28
6 6 6 6 7 7 7 7 7 7 8 8 9 9 9 10 10 11 12 13 15 15 15 15 16 14 13 13 13 13 15 15 15 18 22 22 23 23 24 27 28 29
7 6 7 7 7 8 7 7 8 8 8 9 10 10 10 11 11 12 13 13 14 15 13 13 14 14 13 13 12 13 14 15 17 19 22 24 25 25 26 28 28 28
8 7 8 8 8 8 7 8 9 9 9 10 11 12 12 12 13 13 14 14 13 13 12 12 13 13 14 13 12 12 13 14 16 18 21 24 26 26 28 28 28 28
9 8 8 8 8 8 8 8 9 10 11 11 11 12 13 14 14 15 15 14 13 12 12 12 12 12 12 12 13 12 12 13 15 16 20 24 25 26 29 29 29 29
9 9 8 8 8 8 8 9 10 11 11 12 12 13 14 15 15 16 15 14 14 13 13 13 12 11 11 11 11 12 12 13 14 16 21 24 24 26 28 29 29 29
9 9 8 8 8 8 9 10 11 12 12 13 14 14 15 16 16 17 17 16 15 14 14 13 12 11 11 10 10 10 12 13 14 16 20 23 23 25 26 26 27 28
9 8 8 8 9 9 10 12 13 13 14 14 15 15 16 17 17 17 17 17 16 15 14 13 12 12 11 9 9 9 11 13 15 16 19 21 22 24 25 24 25 28
9 9 8 8 9 9 11 13 13 13 14 14 15 16 16 16 17 17 17 17 16 15 14 13 13 12 11 9 8 9 10 13 15 15 18 20 21 23 25 24 25 28
10 9 9 9 10 10 12 13 14 14 13 13 15 16 15 15 15 15 16 15 15 15 13 12 11 10 11 11 9 8 11 14 15 15 16 18 20 21 23 24 25 28
10 10 11 11 11 12 13 14 14 14 13 14 15 15 14 14 14 14 14 14 14 13 11 10 10 10 12 12 9 8 12 14 14 14 14 15 18 20 21 23 26 28
11 12 12 12 12 13 14 14 14 14 14 15 15 14 12 13 13 13 13 13 12 12 11 10 10 11 13 12 9 9 12 14 14 13 13 13 15 18 19 21 24 29
12 12 12 13 13 14 14 15 14 14 14 15 14 12 12 13 13 13 13 12 11 10 10 11 10 10 12 11 9 10 12 12 13 12 12 12 13 15 17 18 21 26
12 12 13 13 14 14 14 13 13 13 13 14 13 12 12 13 13 13 13 11 11 11 11 11 9 9 11 11 10 10 10 11 12 11 11 12 12 13 17 19 20 22
12 12 13 13 13 13 13 12 12 12 12 12 12 12 13 13 13 14 13 12 11 11 12 12 10 10 11 11 11 10 10 10 11 11 11 12 11 13 17 21 21 21
12 12 12 13 13 13 13 12 12 12 12 11 11 12 13 13 13 14 13 13 13 13 13 12 10 10 10 11 11 11 10 10 12 12 12 12 12 14 18 21 22 22
11 11 12 13 13 12 12 11 11 12 12 11 11 13 13 13 13 14 13 13 16 18 18 17 14 11 10 11 11 11 11 12 13 13 13 13 13 15 20 22 21 22
10 11 12 12 12 12 12 12 11 11 12 11 11 14 15 12 13 15 16 15 15 17 19 21 19 16 11 9 10 11 12 14 14 14 15 14 13 16 22 24 22 22
10 10 11 11 11 12 12 10 8 9 11 10 10 12 13 12 13 15 17 19 19 20 20 21 21 18 12 9 10 11 12 14 15 15 16 16 14 18 23 25 23 23
9 10 11 10 11 11 9 6 5 7 9 9 9 10 9 9 10 11 14 18 21 21 21 21 21 19 13 11 11 10 11 14 15 15 16 17 15 17 22 24 23 24

ECMWFNIL_925_spd_003.txt.gz
Wind_Speed
3 3 3 3 3 2 3 4 5 6 7 7 8 8 9 9 9 8 8 8 8 9 9 9 10 11 11 12 12 12 12 12 12 12 12 13 14 15 16 18 18 20
3 3 3 3 3 3 3 4 5 6 7 8 8 8 9 9 9 9 9 9 10 9 9 10 10 11 11 12 12 12 12 12 12 12 11 12 14 16 17 18 18 19
3 3 4 4 4 3 3 4 5 6 7 7 8 8 8 9 9 10 10 10 11 10 10 11 11 11 12 12 12 12 12 12 12 12 12 13 14 15 17 18 19 20
4 4 4 4 4 4 4 5 5 6 7 7 8 8 8 9 9 10 10 11 11 11 11 11 11 11 12 12 12 12 12 11 11 11 12 13 14 15 17 19 20 21
4 4 5 5 5 5 5 6 6 6 7 7 8 8 9 9 10 10 11 11 11 12 12 12 12 11 12 13 12 12 13 12 11 12 13 13 14 15 17 18 20 22
5 5 5 6 6 6 6 6 7 8 8 9 9 9 9 10 10 11 11 12 12 13 13 13 13 12 12 13 12 12 12 12 12 13 13 13 15 16 17 19 21 22
6 6 6 7 7 7 7 7 8 9 10 10 9 10 11 11 11 12 12 12 13 13 14 14 14 13 12 12 12 11 12 12 12 13 14 15 16 17 18 20 21 22
7 7 7 7 7 7 7 8 9 10 10 10 10 11 11 11 12 13 13 13 14 14 14 14 14 14 12 11 11 11 11 11 11 13 15 16 17 18 19 20 21 22
7 7 8 8 8 8 9 9 10 11 10 9 10 11 11 12 13 14 14 15 15 16 16 15 15 14 12 10 11 12 11 10 11 13 14 15 17 18 19 19 19 21
8 8 8 9 9 9 9 10 11 11 9 8 10 12 12 13 13 14 15 15 16 17 17 16 16 14 13 11 11 11 11 10 11 12 13 15 17 17 18 18 18 20
9 9 9 9 9 9 10 11 11 11 10 10 12 13 13 14 14 14 15 15 16 17 17 17 18 17 16 15 13 11 11 11 10 11 13 14 15 16 16 17 17 18
9 9 9 10 10 10 11 11 11 11 11 12 12 13 14 15 15 15 15 16 17 17 17 18 18 18 17 17 15 13 11 10 10 12 13 14 14 14 15 16 16 16
9 9 10 10 9 10 10 11 11 11 11 12 13 14 16 16 15 15 15 16 18 18 18 16 15 16 16 15 15 15 13 10 11 13 14 14 13 13 13 14 14 14
9 9 10 10 9 10 10 11 10 10 11 12 14 15 15 15 16 16 15 16 17 18 18 16 14 15 17 15 14 15 13 11 12 13 15 15 13 13 13 12 12 13
9 9 10 9 9 10 11 11 10 10 11 12 14 14 15 16 16 16 16 17 18 17 17 15 14 16 18 16 14 13 12 12 13 15 16 15 14 13 12 12 11 12
10 10 10 10 10 10 11 11 11 11 12 13 13 14 15 16 16 15 16 17 17 16 15 14 13 14 14 13 14 14 13 13 15 16 16 15 15 14 13 13 11 12
10 10 11 11 11 11 12 12 12 11 12 13 13 14 15 15 14 14 15 16 16 16 15 13 11 11 11 10 12 15 16 15 15 17 16 16 16 16 14 13 12 13
10 10 11 11 11 12 12 12 12 12 12 13 13 13 14 14 13 14 14 15 15 15 14 13 11 10 11 10 11 14 16 16 16 16 17 17 16 16 15 13 13 14
11 11 11 11 12 12 13 13 12 12 12 12 12 12 13 13 13 14 15 14 14 14 14 14 13 12 11 11 11 13 15 16 17 17 18 18 17 16 15 14 14 14
11 11 12 12 12 12 13 13 13 12 12 12 12 12 12 12 13 15 14 11 12 13 13 13 13 12 12 12 12 13 14 16 18 17 18 19 18 16 16 15 15 14
12 12 12 11 12 13 13 13 13 12 11 11 12 12 12 11 12 13 12 9 9 10 11 12 12 12 14 15 16 16 16 16 17 17 18 20 18 16 17 18 16 16
13 12 12 12 12 13 13 13 12 11 11 12 13 13 12 11 11 12 11 9 8 7 9 11 12 15 17 16 17 18 18 18 17 16 17 20 18 17 18 18 17 16
13 12 12 12 12 13 14 13 11 11 12 12 13 12 12 12 11 11 11 10 10 9 10 12 13 15 16 17 17 17 18 19 17 15 17 20 19 17 17 16 16 17
12 12 12 11 12 13 13 11 11 12 12 12 12 13 13 12 11 11 11 10 10 11 11 12 14 14 15 18 18 16 17 20 19 17 19 23 22 18 14 15 17 19
11 12 12 12 12 13 12 10 11 12 12 12 13 14 14 13 12 12 12 11 11 12 12 12 13 13 14 17 18 16 18 22 21 17 18 22 23 19 15 15 17 19
11 12 12 11 12 12 11 10 11 12 12 12 14 16 17 16 14 13 12 12 12 12 13 13 12 12 14 17 19 18 19 20 21 18 16 19 21 20 18 17 17 18

ECMWFNIL_925_spd_006.txt.gz
Wind_Speed
7 7 6 4 4 4 3 3 4 4 4 6 7 7 7 8 8 8 8 8 8 9 9 9 9 10 10 10 11 11 11 12 12 11 10 11 11 12 12 13 13 15
8 8 7 6 6 6 6 5 4 4 5 6 6 7 8 8 8 8 8 9 9 10 10 10 10 11 11 11 11 11 11 12 11 10 10 10 11 11 12 13 14 14
9 8 8 8 7 7 6 5 4 4 5 5 6 7 7 8 8 9 10 10 11 11 10 11 11 11 11 11 12 12 11 11 11 10 10 10 11 12 13 13 13 14
10 9 8 8 7 6 6 5 5 5 5 5 6 7 7 8 9 10 11 11 12 12 12 12 12 11 11 12 12 12 12 11 11 9 9 10 11 11 12 12 12 13
11 10 9 9 8 7 7 6 5 5 5 6 6 7 7 8 9 10 11 12 12 13 13 13 13 12 12 12 12 13 12 11 10 9 9 10 10 9 10 11 12 13
11 10 10 9 9 8 8 7 6 6 7 7 8 8 8 8 10 11 12 13 13 14 14 14 13 13 13 13 13 13 13 11 10 10 9 10 10 9 8 10 11 12
11 11 11 10 10 9 8 7 8 9 10 9 10 10 9 9 10 11 12 13 14 14 15 15 15 15 14 13 13 13 13 13 12 10 10 11 11 10 9 9 10 11
12 12 12 11 10 10 10 10 12 14 13 12 12 11 10 10 10 11 12 13 14 15 16 16 16 16 15 14 13 13 13 14 13 11 11 12 11 11 10 9 9 10
12 12 12 12 11 11 11 10 11 14 14 13 12 10 9 10 11 12 13 13 15 16 16 17 16 16 15 15 14 13 12 14 14 13 13 13 12 10 10 9 9 10
13 12 12 12 12 12 11 10 10 11 8 7 8 8 9 11 12 13 13 14 15 15 16 16 16 15 14 15 16 16 15 15 15 14 14 14 13 11 10 10 10 10
14 13 13 13 12 11 10 10 9 9 7 6 8 8 8 10 12 12 14 15 15 14 15 16 16 15 14 15 17 18 18 18 16 14 13 14 13 12 12 11 11 12
15 15 14 14 13 12 10 9 8 9 10 8 6 6 8 10 11 13 15 15 15 14 13 15 16 16 15 15 17 17 18 17 16 15 15 15 14 14 14 13 13 13
16 16 15 13 13 12 10 9 9 9 9 9 9 9 10 11 12 14 14 14 14 14 14 15 16 16 15 15 16 17 17 17 17 17 17 17 16 16 16 15 15 14
15 15 15 14 13 12 10 9 9 8 9 10 11 11 11 12 13 14 14 14 16 17 17 16 16 16 14 14 15 16 16 16 17 17 17 17 18 19 18 17 16 16
13 13 14 13 13 12 10 10 9 9 9 10 10 11 12 13 14 14 15 16 16 15 15 14 14 14 12 12 13 13 14 15 15 16 17 18 19 19 19 19 18 17
14 14 13 13 13 12 11 10 9 9 10 11 11 12 13 13 14 15 15 14 14 14 15 14 13 12 11 11 11 13 13 14 14 16 17 18 19 19 20 20 18 18
16 16 15 14 14 13 12 11 11 11 11 12 12 13 14 14 14 14 13 13 14 14 15 13 12 13 13 11 11 12 13 13 14 15 16 17 17 18 19 20 19 18
19 18 17 16 15 14 14 12 12 12 12 13 14 14 14 14 13 13 13 13 14 14 15 14 14 17 17 14 13 13 13 14 14 15 16 17 17 18 19 20 20 19
20 19 18 16 15 15 14 13 12 13 13 13 14 14 14 14 13 13 12 13 14 15 17 17 16 17 18 16 15 13 12 14 16 17 18 17 17 18 19 20 21 21
21 20 18 16 15 15 14 13 13 13 14 14 14 14 14 15 14 13 12 13 14 14 15 16 15 16 16 16 14 13 13 15 17 19 19 18 18 19 20 21 20 18
22 21 18 16 15 14 13 13 13 14 14 14 14 14 14 15 15 13 13 13 13 13 13 13 14 15 14 14 13 13 14 15 17 20 20 19 20 20 19 19 17 17
21 19 17 16 14 13 12 12 12 13 14 15 16 15 15 17 16 15 14 14 13 14 14 14 14 15 15 15 14 13 13 14 17 19 19 19 20 19 18 19 20 21
20 18 17 16 15 13 12 12 11 11 13 15 16 16 17 17 17 16 16 14 15 16 17 17 16 16 16 16 14 12 12 15 16 17 17 18 19 18 19 22 24 22
20 19 18 16 15 14 12 11 11 12 13 13 14 16 18 17 16 17 17 16 17 18 18 18 18 16 16 14 12 11 14 16 17 16 17 17 17 18 21 23 23 21
17 18 18 15 14 13 12 12 13 13 12 11 13 16 17 16 16 17 17 17 19 19 19 19 18 16 12 9 8 11 15 17 17 16 15 16 16 18 21 21 19 17
16 16 16 15 13 11 11 13 13 12 10 10 14 16 15 15 16 17 19 21 20 19 19 19 17 13 9 7 10 14 16 15 13 12 12 13 14 16 19 19 18 16

ECMWFNIL_925_spd_009.txt.gz
Wind_Speed
14 12 10 9 8 8 8 8 7 7 6 6 5 5 5 6 7 5 4 4 5 6 6 6 6 7 8 7 7 7 8 9 9 7 6 7 7 6 7 7 7 8
15 12 11 10 9 9 10 7 7 8 7 6 5 5 5 4 3 2 3 5 6 7 7 7 8 9 9 8 8 7 8 9 9 8 8 8 7 7 8 7 8 8
15 14 14 12 9 9 9 8 8 8 7 6 6 5 4 3 3 4 6 7 7 8 8 8 9 11 11 9 9 8 8 9 9 9 10 9 7 8 8 7 7 8
17 16 15 12 9 9 10 10 10 9 8 8 8 7 4 4 5 5 7 8 8 8 8 9 10 11 10 9 8 8 9 10 10 10 10 9 8 8 8 8 8 8
19 17 15 12 10 10 12 12 10 10 10 10 10 8 6 6 6 7 9 9 8 9 9 9 10 10 10 9 9 10 10 11 11 10 10 10 9 9 9 9 8 8
20 19 16 14 12 12 13 12 11 12 13 12 12 10 9 9 9 10 10 9 9 9 9 9 10 11 11 11 11 12 12 11 11 10 10 11 10 10 10 9 9 9
21 20 17 15 15 14 14 13 13 14 15 15 13 11 11 11 12 11 10 10 10 10 10 10 11 12 12 12 13 14 13 12 12 11 11 12 11 11 10 10 10 9
22 20 18 16 15 16 15 15 15 16 16 16 15 13 13 13 14 13 11 11 12 12 12 12 12 13 12 12 13 15 14 14 13 12 12 13 12 11 11 10 10 10
22 20 18 16 16 17 16 16 16 17 16 16 17 16 16 16 16 14 13 13 14 14 15 14 14 14 13 13 14 14 14 14 14 14 14 15 14 13 12 11 11 11
22 21 18 16 17 17 17 17 17 19 19 18 18 18 18 16 14 12 12 13 14 15 17 17 15 13 14 15 15 14 14 14 15 15 16 15 14 13 13 12 12 13
23 21 19 17 18 19 19 19 18 18 16 12 12 15 15 13 10 9 10 11 12 14 15 15 14 11 12 13 15 14 14 15 15 15 15 14 13 14 14 14 14 15
24 23 20 19 20 20 20 21 20 17 12 6 7 10 10 9 9 10 10 10 11 10 9 10 11 11 12 13 14 15 14 15 15 16 15 14 14 14 14 15 15 16
25 22 21 20 21 21 20 19 18 15 12 8 7 8 8 9 9 9 9 10 10 9 10 12 13 13 13 14 15 15 14 14 15 16 16 15 15 15 15 15 16 18
25 21 21 22 22 22 20 19 17 15 14 12 10 10 10 9 8 8 10 12 12 13 15 14 13 12 12 12 13 13 14 15 15 15 15 15 15 15 15 16 17 18
24 22 23 23 23 22 20 19 18 16 15 15 15 14 13 11 9 10 12 14 15 16 14 12 12 13 13 12 13 13 14 14 15 15 14 14 14 14 15 16 17 18
25 25 26 25 25 23 21 20 18 17 15 15 15 14 13 12 12 13 13 15 16 16 13 13 14 15 14 14 13 13 13 13 15 16 16 16 16 15 16 16 17 18
27 27 26 28 27 24 22 21 18 17 15 14 14 14 14 15 15 15 15 15 16 16 15 15 15 15 15 16 15 14 14 14 14 16 16 17 17 17 17 17 17 18
25 25 24 26 26 23 22 20 18 16 15 15 15 16 17 17 17 16 16 16 15 15 14 14 15 16 17 18 17 15 14 14 14 15 16 17 19 18 18 18 17 18
23 24 24 23 24 23 21 19 17 17 17 17 17 18 18 18 18 17 16 17 16 15 15 15 16 17 17 16 17 16 14 13 13 15 16 18 20 21 20 19 18 18
26 26 25 25 25 23 21 19 19 18 18 18 19 19 19 18 18 16 16 16 17 16 16 16 16 16 15 14 14 15 14 13 13 14 16 19 21 22 22 22 20 18
29 28 27 27 26 24 22 21 20 19 20 20 20 19 19 17 16 15 15 15 16 16 16 16 14 14 15 14 13 13 13 13 13 14 16 18 21 21 22 22 20 19
29 28 28 28 26 24 23 22 21 21 21 21 21 19 18 17 16 16 16 16 17 17 16 13 10 11 12 12 13 16 16 14 12 13 15 18 19 19 19 20 20 20
28 28 28 27 25 25 23 23 22 22 21 21 21 19 18 17 16 16 17 18 18 16 12 9 10 12 13 13 14 15 14 12 10 13 16 18 18 17 18 19 20 21
29 29 29 28 27 27 26 25 24 22 20 19 19 18 15 13 13 16 17 15 11 9 8 9 12 15 17 18 15 10 8 9 12 15 16 15 15 15 16 18 19 19
30 30 29 30 30 29 28 27 25 22 19 18 16 14 10 9 10 12 12 9 7 8 9 11 14 15 17 16 12 7 7 11 12 13 12 12 12 14 15 16 18 18
31 31 31 32 31 31 29 28 25 21 17 15 12 9 6 7 8 8 6 6 8 11 13 14 15 15 14 11 8 6 8 9 8 7 8 10 11 13 15 17 18 16

ECMWFNIL_925_spd_012.txt.gz
Wind_Speed
22 21 19 16 15 14 14 13 13 13 11 9 9 8 8 7 6 6 6 5 5 5 5 6 6 6 7 7 7 6 6 5 6 6 6 6 7 7 7 6 6 5
24 22 20 17 16 15 14 14 13 12 11 10 10 9 9 8 6 6 6 6 7 6 5 5 5 6 7 8 8 8 8 7 7 6 7 7 8 9 9 9 7 7
25 23 21 18 17 16 15 14 13 12 11 10 10 9 9 9 8 7 7 7 7 6 5 5 6 6 7 9 10 10 10 9 8 8 8 9 9 10 10 10 9 8
26 24 22 19 17 16 16 15 14 13 12 11 11 10 10 10 9 8 7 7 7 7 6 7 7 7 7 7 8 9 10 10 10 10 10 10 10 10 11 10 10 10
27 25 22 19 18 16 16 16 15 15 14 12 11 11 11 10 10 9 9 8 8 7 6 6 6 7 7 7 8 9 10 10 11 12 12 11 11 11 11 11 12 12
28 25 22 20 19 17 17 18 17 17 15 13 11 11 12 11 11 11 11 10 9 8 7 7 5 5 6 8 10 12 12 13 14 13 13 13 13 12 13 13 14 15
29 26 23 21 21 19 18 18 18 17 14 12 12 12 12 13 13 13 12 12 11 11 10 9 8 8 8 9 12 13 14 15 15 15 15 15 14 14 13 14 15 16
30 27 24 23 22 20 19 19 18 16 14 13 13 13 13 15 15 14 13 14 14 13 12 12 12 12 12 12 13 15 15 15 15 15 16 16 16 15 15 15 15 16
31 28 25 24 23 22 20 19 18 16 14 13 13 13 15 17 18 17 16 16 17 16 16 15 15 16 16 16 16 17 18 18 17 16 16 16 16 17 16 16 16 16
32 29 28 27 25 23 21 20 19 16 14 14 13 13 15 18 18 18 17 17 17 17 17 16 16 17 17 18 17 18 19 19 19 18 17 16 17 17 17 16 16 17
33 30 30 28 26 23 20 20 18 15 14 14 14 14 17 19 19 18 17 16 15 15 15 14 13 13 13 14 15 16 17 18 19 19 18 17 17 16 16 16 16 17
33 32 30 27 24 20 18 18 17 15 15 15 15 15 16 18 18 17 16 14 13 13 13 11 10 10 11 12 14 15 16 18 19 20 19 18 17 16 15 16 16 17
32 31 29 26 23 19 18 20 19 17 18 18 16 14 14 16 16 15 14 13 12 11 11 10 10 12 13 13 14 15 17 18 19 20 20 19 18 16 15 15 15 16
28 29 28 25 23 21 21 22 21 20 22 21 16 14 14 15 14 13 12 12 11 11 11 12 14 15 15 14 14 15 16 17 18 19 21 20 18 17 15 15 15 15
24 27 28 25 22 23 24 23 21 22 23 21 17 15 15 14 12 11 10 9 10 12 13 15 16 16 16 15 15 16 17 18 19 19 20 20 19 17 17 16 16 17
28 29 29 25 23 25 25 23 22 24 24 21 19 17 16 14 14 13 11 10 11 12 14 15 16 17 17 16 16 17 18 19 19 20 20 20 20 19 19 19 18 18
34 32 26 22 25 28 25 23 24 26 25 23 21 19 17 16 16 15 14 13 13 14 15 16 17 18 18 18 18 18 18 18 19 20 20 20 20 20 20 21 20 20
35 28 18 18 28 31 27 26 27 27 26 24 23 21 18 17 17 16 16 15 15 16 18 19 19 19 18 18 19 18 18 18 19 19 19 19 19 20 20 21 21 21
28 17 13 22 31 32 29 29 29 27 26 25 23 21 20 18 18 18 17 17 18 19 20 21 21 21 20 20 20 19 17 17 19 20 19 19 19 19 20 20 21 22
18 12 20 29 33 32 32 32 31 29 27 25 23 22 21 21 20 19 19 19 20 20 20 22 22 23 23 21 20 18 17 17 19 21 20 19 19 18 19 19 20 21
13 18 27 32 32 33 34 33 32 30 28 25 24 24 24 23 21 20 20 21 21 20 21 21 22 23 23 21 18 17 17 17 18 19 20 19 18 17 19 19 19 20
20 26 31 32 32 33 34 33 32 31 28 27 26 26 25 24 22 22 21 21 20 21 22 22 22 22 21 18 16 16 17 18 18 18 18 17 16 17 19 18 17 18
27 30 31 31 32 33 33 33 32 31 30 29 28 28 26 24 24 23 21 20 19 20 21 20 19 18 16 15 14 15 16 16 15 14 14 15 16 18 18 15 14 14
31 32 32 32 34 35 34 34 33 33 32 31 29 28 26 24 23 22 19 17 17 18 17 15 13 13 13 13 13 13 12 11 10 10 12 14 17 16 14 12 12 13
31 32 33 33 35 37 36 35 34 34 33 32 30 28 25 23 21 18 14 13 14 14 12 11 10 10 11 11 11 10 9 8 8 9 12 13 14 13 13 13 13 14
32 34 36 36 37 38 37 36 35 34 33 32 30 28 25 19 12 8 8 10 12 11 10 9 8 9 8 8 8 9 9 8 8 9 10 12 13 13 14 15 15 13

ECMWFNIL_925_spd_015.txt.gz
Wind_Speed
29 28 27 24 22 21 20 19 18 18 17 17 16 14 13 12 12 12 10 9 9 9 8 7 7 7 6 6 6 6 6 6 6 5 5 6 6 7 8 9 9 9
31 29 27 24 23 22 21 20 19 18 18 17 16 14 13 14 13 12 11 11 11 10 8 8 8 7 6 6 7 8 8 8 8 7 7 8 8 8 9 10 11 11
32 30 27 26 25 24 22 20 19 18 17 16 15 14 14 14 13 13 12 11 10 10 9 9 8 8 7 7 8 10 11 11 11 10 10 10 10 10 10 11 12 12
34 31 28 27 26 24 22 20 19 18 17 16 15 14 14 14 13 13 13 11 10 10 9 9 9 9 9 9 9 10 11 12 12 11 12 12 11 12 11 11 13 13
35 31 29 28 26 24 21 20 20 19 18 17 15 14 15 15 15 14 13 12 11 10 9 8 8 9 10 11 11 11 11 12 12 12 13 13 13 13 13 13 14 15
34 31 30 29 27 23 21 20 20 19 18 17 15 15 16 16 16 15 14 13 12 10 9 9 9 9 10 11 11 12 12 12 13 13 14 15 15 15 14 14 15 16
35 32 31 30 27 23 21 19 19 20 19 17 15 16 17 17 17 16 15 14 13 12 11 10 11 11 11 11 12 12 13 13 14 15 16 16 16 16 15 16 17 18
37 34 32 29 26 23 21 20 20 21 20 18 17 17 17 18 18 17 16 15 14 14 13 13 13 13 13 13 14 15 15 15 15 16 18 18 18 17 16 16 17 19
36 33 31 29 26 24 22 21 21 21 20 19 18 18 18 19 19 17 16 16 15 15 14 15 16 16 16 16 17 18 19 18 18 18 18 19 19 18 17 16 16 19
28 24 26 27 27 25 23 22 21 21 21 20 19 18 19 20 19 18 17 17 17 17 17 17 18 17 17 17 17 18 18 17 17 16 17 18 19 18 17 16 17 19
25 24 27 29 28 26 24 23 22 22 22 20 19 19 20 21 20 19 19 19 19 19 19 18 16 15 15 14 14 13 13 14 14 15 16 16 17 18 17 17 17 19
29 32 31 31 30 28 25 24 23 23 22 20 20 21 21 20 19 19 20 20 20 19 18 16 15 14 13 12 11 11 12 13 14 15 15 16 16 17 17 17 18 19
31 31 29 28 28 27 24 24 24 23 21 19 21 23 22 19 18 19 20 20 19 18 17 17 16 15 14 13 12 12 13 14 14 15 15 16 16 16 17 18 19 19
31 27 24 24 25 25 25 25 25 22 20 21 24 24 22 19 18 19 20 19 19 18 18 18 17 15 14 14 14 14 15 16 15 14 15 16 16 17 18 19 20 20
32 26 25 25 26 27 28 28 26 23 22 26 29 26 23 21 20 20 20 20 19 18 18 18 17 16 16 16 16 16 17 17 15 15 16 17 17 17 18 19 20 20
31 26 27 28 29 31 31 28 26 26 27 30 31 28 25 24 23 22 22 20 18 16 16 16 17 17 17 17 17 18 18 18 18 17 16 17 17 17 18 18 19 20
30 30 31 30 31 32 32 28 27 32 33 32 32 31 28 26 25 25 24 20 16 14 14 15 16 17 17 18 18 18 18 19 19 19 17 17 18 18 18 19 19 20
35 37 37 36 35 35 36 34 31 32 33 34 35 33 30 28 28 27 25 20 17 16 17 17 18 18 17 18 18 18 19 20 20 19 18 18 18 19 21 21 21 20
41 40 39 39 38 39 40 37 32 30 32 35 35 34 32 30 30 29 25 20 19 19 19 20 20 19 18 18 19 19 19 20 19 19 18 19 20 21 23 24 24 22
43 42 40 40 40 41 41 36 31 31 32 33 34 34 33 31 31 30 25 22 21 20 20 21 21 20 20 19 19 20 20 20 19 18 18 19 21 22 24 25 24 22
43 43 43 42 39 34 31 29 29 31 33 34 33 34 34 33 32 30 26 24 21 20 20 21 21 20 20 21 22 21 20 18 17 16 17 20 22 23 24 24 22 20
42 41 39 35 29 26 26 28 30 32 34 34 33 33 34 32 30 29 27 23 20 20 21 21 21 20 21 22 22 19 16 14 14 15 18 20 22 24 24 22 20 18
39 37 32 26 25 29 32 33 32 33 35 34 32 33 32 31 30 29 25 22 21 21 21 20 20 21 21 20 17 14 12 12 14 16 18 19 20 21 21 20 19 18
36 32 30 27 28 33 34 33 33 33 34 33 32 33 33 31 30 27 24 22 22 20 19 18 19 18 16 14 11 11 13 15 16 16 16 17 18 19 19 19 19 17
32 29 30 33 36 36 35 34 33 33 32 32 32 32 31 29 28 25 23 20 17 15 14 15 15 13 11 10 10 12 14 15 14 14 15 17 19 19 19 18 17 16
28 31 36 39 39 36 31 30 28 27 25 24 25 27 27 26 24 22 20 17 14 12 12 12 12 11 10 11 12 12 13 12 12 14 16 17 18 17 17 18 17 17

ECMWFNIL_925_spd_018.txt.gz
Wind_Speed
30 30 28 27 26 25 25 24 23 23 22 21 21 20 18 16 15 15 14 15 15 14 12 11 11 11 11 10 11 10 9 9 8 8 8 8 7 7 8 8 9 10
31 31 29 27 26 25 24 23 22 22 21 20 19 18 17 16 15 14 14 16 15 13 12 12 12 12 11 11 11 11 11 10 10 10 10 10 9 9 9 9 9 10
33 32 30 28 26 25 23 22 21 21 20 19 18 17 17 16 15 15 15 15 14 13 13 13 12 12 12 12 11 11 12 12 12 12 11 12 11 11 11 10 10 10
34 32 30 28 26 25 23 22 22 22 20 18 17 17 17 16 16 16 16 16 15 14 14 14 14 14 13 13 13 13 13 13 13 12 13 13 13 13 13 12 12 12
34 32 30 27 26 25 24 23 22 21 18 17 17 17 17 16 16 17 16 16 15 14 14 14 14 14 14 14 14 14 14 13 13 13 13 14 14 14 14 13 13 14
33 31 29 27 26 26 24 23 22 19 17 17 17 17 16 16 16 17 17 16 15 14 14 14 14 13 13 13 14 14 14 13 13 14 15 15 15 14 14 14 15 15
32 31 29 28 28 26 24 21 19 17 16 17 17 17 16 16 17 17 17 15 15 15 15 15 14 13 13 13 14 14 14 14 14 15 16 16 15 15 15 15 16 17
35 33 31 30 29 27 24 21 18 16 16 17 17 16 15 16 17 17 16 16 16 16 16 16 15 14 14 15 15 15 15 15 16 17 18 18 18 18 17 17 17 18
36 34 33 32 30 28 25 21 17 15 16 17 17 16 16 17 18 17 17 17 18 18 18 18 17 17 17 17 18 17 17 17 17 18 19 20 20 19 18 18 18 19
36 34 34 35 33 30 27 24 19 16 16 18 17 16 17 18 18 19 19 19 20 20 20 19 19 20 20 19 19 18 18 17 17 17 18 19 19 18 17 17 18 19
35 34 36 37 35 32 29 25 22 20 18 18 18 18 19 20 20 20 21 21 22 22 22 21 21 21 21 20 18 17 16 15 14 14 15 15 16 16 16 16 17 19
35 36 37 38 37 34 30 27 25 21 18 19 19 19 21 22 22 23 24 24 24 23 23 22 22 22 22 20 17 16 15 14 13 13 14 14 15 15 15 16 17 17
39 40 41 40 39 36 33 31 28 23 21 22 22 20 22 25 25 26 26 26 25 25 25 24 23 22 21 19 16 15 14 14 13 14 14 15 15 15 15 15 16 17
41 43 43 41 39 37 35 34 30 26 24 24 22 22 25 28 28 28 28 27 27 27 25 23 22 21 19 18 17 16 15 15 15 15 15 16 15 15 16 16 17 18
40 41 40 38 37 36 35 32 27 24 22 22 24 27 28 29 29 30 30 29 28 25 22 21 20 20 19 18 18 17 16 16 16 16 17 18 18 17 17 18 18 18
39 40 39 37 36 32 28 24 20 19 20 25 30 31 30 29 30 33 32 30 28 23 21 20 20 20 19 19 18 18 17 17 17 18 19 20 20 20 19 19 19 19
41 41 40 39 37 29 22 21 23 25 26 32 35 33 31 30 31 33 33 31 27 23 21 21 21 19 18 17 16 16 17 17 18 20 21 22 22 22 21 21 20 20
42 41 39 38 37 31 27 27 31 33 33 35 37 35 33 32 32 33 33 30 27 24 23 23 21 19 16 15 15 15 16 18 20 21 22 23 23 23 22 21 21 21
41 39 36 36 36 35 33 33 34 35 35 36 37 36 34 32 31 31 30 29 27 25 25 25 23 20 17 16 16 17 18 19 20 20 20 21 21 21 21 21 21 23
38 36 33 32 34 34 34 34 35 36 36 36 35 33 32 31 29 28 28 28 28 27 26 27 25 22 19 17 17 18 19 19 19 17 17 17 18 18 19 20 21 22
34 32 29 29 30 31 32 33 34 35 34 32 31 30 30 28 27 27 28 28 28 27 28 29 28 23 19 18 19 20 19 17 15 14 14 14 14 15 17 20 21 21
33 31 29 29 29 29 31 33 34 33 31 29 29 29 26 25 25 27 27 27 27 28 29 30 29 23 20 20 20 18 16 14 12 10 10 11 13 16 18 19 19 18
32 31 30 30 30 30 32 33 34 32 29 28 28 26 23 23 25 26 26 26 26 28 31 31 29 25 21 18 16 14 13 11 8 8 10 12 15 16 17 17 17 16
32 32 31 31 31 32 34 35 33 30 27 26 25 23 22 23 24 25 27 27 27 28 30 30 28 23 17 14 12 11 10 8 7 9 11 13 14 14 15 16 16 15
32 33 33 33 32 33 35 33 30 26 24 23 24 23 23 23 23 24 26 27 27 27 28 26 22 17 12 10 10 9 8 7 8 10 11 12 13 13 15 16 16 15
31 34 35 34 33 33 32 29 26 24 24 24 24 24 24 23 23 24 25 25 24 24 23 20 17 13 9 8 9 9 8 7 7 9 10 11 13 15 16 17 17 17

ECMWFNIL_925_spd_021.txt.gz
Wind_Speed
36 35 33 32 31 29 28 26 25 25 26 25 24 23 22 21 20 18 15 15 15 15 15 15 14 12 11 11 11 10 9 8 7 7 7 7 7 7 7 8 8 8
37 36 34 33 33 30 27 25 25 26 26 25 24 22 21 20 19 17 15 15 15 15 15 15 14 13 12 12 12 11 11 10 9 9 9 9 10 10 10 9 9 9
37 36 35 34 33 30 26 25 25 26 26 24 23 22 20 20 19 17 16 15 15 16 16 16 15 13 13 13 12 12 12 12 11 11 11 12 12 12 12 11 10 11
37 36 36 34 33 30 26 25 26 27 26 25 24 22 20 20 19 18 16 15 15 17 17 16 15 14 13 12 12 13 13 13 13 13 13 14 14 14 14 13 12 12
37 37 36 34 33 30 27 26 27 28 27 25 24 22 21 20 19 18 17 16 16 17 17 16 15 14 13 13 13 14 14 14 15 15 15 14 14 15 15 14 14 13
36 36 36 35 33 31 28 28 28 28 27 25 24 23 21 20 19 17 16 16 17 18 17 16 15 15 14 14 14 14 15 15 15 16 15 14 14 15 15 15 14 14
36 36 36 35 33 32 30 29 29 28 27 25 24 23 22 21 18 16 15 17 17 18 17 16 15 15 14 14 14 15 16 16 16 16 16 16 16 16 16 16 16 15
36 36 35 35 34 33 31 30 29 28 27 25 24 23 22 20 17 14 15 17 17 18 17 17 16 16 15 15 15 15 16 17 17 17 17 18 18 18 18 18 17 17
35 35 35 35 35 34 33 32 30 29 27 25 24 23 21 19 15 13 15 17 17 17 18 18 18 17 16 16 16 17 18 18 19 19 20 20 20 19 18 18 18 18
35 35 35 35 36 36 35 33 31 29 27 24 23 22 21 19 15 13 15 17 17 17 19 20 20 19 18 17 18 19 19 20 20 21 20 19 18 17 16 15 16 16
35 35 35 37 38 38 36 35 33 31 29 26 26 26 24 21 18 16 18 20 20 20 21 22 22 21 20 19 19 20 21 21 21 21 19 16 15 14 13 14 14 15
36 37 37 39 41 40 38 37 35 33 31 30 29 29 26 23 22 22 22 23 23 23 23 23 23 22 21 21 21 21 22 22 21 20 17 15 14 13 13 14 14 14
39 40 40 40 42 40 38 38 37 35 33 32 30 29 26 24 24 25 25 25 25 26 25 23 23 24 23 23 22 22 23 22 21 19 17 15 15 14 14 14 14 14
40 40 39 38 38 38 38 39 38 37 35 32 29 28 28 26 25 25 26 26 27 28 26 24 24 25 25 24 23 23 23 22 20 19 18 16 16 15 15 16 16 16
38 36 36 34 35 38 40 39 38 38 37 33 30 29 28 27 26 26 27 27 28 28 27 25 25 25 25 25 24 23 22 20 20 20 19 18 17 17 17 17 18 18
36 35 33 31 35 39 40 39 39 40 37 34 33 31 27 26 27 27 26 27 29 29 27 27 27 26 24 23 22 20 19 19 20 20 19 18 18 18 18 19 19 20
35 33 31 32 36 38 39 40 41 42 41 37 34 31 28 26 27 26 25 28 30 29 28 28 29 26 23 21 19 18 18 19 19 19 19 18 19 19 20 20 20 20
33 30 29 31 33 36 39 39 37 37 38 38 34 30 28 26 26 27 28 30 31 29 28 29 29 26 22 20 18 17 18 19 19 19 18 18 20 21 21 21 21 20
30 26 26 29 31 35 38 34 28 28 30 33 34 31 26 25 27 30 31 31 30 28 27 28 28 26 22 20 19 18 18 18 19 19 18 20 21 21 21 21 20 18
26 24 24 26 27 30 31 27 26 29 28 26 28 29 27 27 29 31 31 30 28 26 26 26 28 27 24 22 21 20 19 19 20 20 20 21 21 20 20 19 17 16
23 23 23 26 27 27 25 24 27 32 29 25 25 27 29 30 28 26 27 28 26 25 24 25 27 27 25 23 23 22 20 21 22 21 20 20 19 18 16 15 15 15
22 22 22 27 30 28 26 26 28 31 31 29 27 25 25 25 23 21 22 24 24 25 24 24 25 26 24 23 23 24 22 22 21 19 18 17 16 15 14 15 16 14
21 22 24 27 29 28 27 28 30 30 30 28 25 23 22 23 21 19 20 22 23 23 24 25 25 25 24 22 23 25 24 22 20 17 15 14 13 14 15 15 14 11
20 23 27 28 27 26 27 30 31 28 24 23 22 22 22 21 19 18 18 20 21 20 21 23 23 23 23 21 21 23 22 20 18 16 14 12 12 14 15 14 12 10
20 23 28 29 27 26 28 31 31 26 21 19 20 21 20 18 17 16 15 17 19 18 20 22 20 19 20 20 20 20 21 20 18 15 12 12 13 14 14 13 12 10
20 25 28 26 26 27 28 29 26 22 18 17 18 19 19 16 15 14 14 15 16 16 18 19 17 16 17 17 17 19 20 20 16 11 10 11 12 13 13 10 9 7

ECMWFNIL_925_spd_024.txt.gz
Wind_Speed
24 23 22 21 21 20 18 17 16 15 15 14 13 13 14 14 14 14 13 11 10 10 10 9 8 8 7 6 5 5 4 4 4 4 4 4 3 4 4 5 5 6
25 23 21 20 20 20 18 18 17 15 14 14 14 13 13 14 15 14 13 12 11 11 10 10 9 8 8 7 6 6 6 5 5 5 5 5 5 5 6 6 7 7
25 23 22 21 20 20 19 18 17 16 15 15 15 15 14 15 15 14 13 13 12 11 11 10 10 10 9 8 7 7 7 6 6 6 6 6 6 6 7 7 8 8
25 24 23 22 21 20 19 18 18 18 17 16 16 16 15 14 14 14 14 13 12 11 11 11 11 11 10 8 8 8 7 7 7 7 7 7 7 8 8 8 8 9
25 24 23 22 21 20 20 20 20 19 18 17 16 16 15 15 15 15 14 14 12 11 10 11 12 11 9 9 9 8 8 7 7 8 8 8 8 8 8 8 8 9
24 24 24 23 22 22 22 23 21 20 19 18 17 18 17 17 16 15 15 15 14 13 11 12 12 11 11 10 10 10 10 9 8 8 9 9 8 8 8 8 9 9
24 25 25 24 23 24 24 23 22 23 24 21 20 21 20 18 17 17 17 17 17 17 17 16 15 15 14 13 12 12 11 10 9 9 9 9 9 10 10 10 10 11
25 25 25 24 24 24 24 24 25 27 27 23 21 21 20 19 19 20 21 21 21 20 21 22 20 18 17 15 14 14 13 11 10 10 10 11 11 11 12 12 12 13
24 24 25 25 25 25 26 26 24 25 27 26 22 21 22 24 23 24 25 25 22 21 24 25 23 20 18 17 17 16 14 13 11 11 12 12 12 13 13 13 13 14
24 25 25 26 26 26 28 28 24 23 27 28 23 22 26 28 26 26 28 27 24 24 26 27 24 23 21 19 18 17 16 14 13 13 13 14 14 14 14 14 14 14
26 26 26 28 28 26 27 29 26 24 27 28 26 25 28 29 28 28 30 29 28 27 28 28 26 25 24 20 18 18 17 16 15 15 15 15 14 15 15 15 14 14
27 27 27 29 28 26 26 28 27 26 27 29 28 28 29 30 30 32 33 32 31 30 29 29 27 26 25 22 18 18 19 19 17 16 15 15 15 15 16 16 15 15
27 27 27 27 26 26 26 28 28 27 27 28 28 29 31 30 30 34 35 34 34 32 31 30 28 26 25 22 20 20 21 20 17 16 16 15 16 16 16 16 16 15
25 25 24 23 22 23 24 27 27 25 24 26 29 32 33 32 35 39 38 37 36 33 31 30 29 27 25 24 23 22 20 18 16 16 16 16 16 16 16 17 16 15
21 21 20 20 21 21 24 25 24 25 25 29 34 36 35 35 38 40 38 38 37 33 31 31 30 29 28 25 23 20 18 18 18 17 17 17 16 16 17 17 16 16
19 20 20 22 22 23 24 24 25 29 31 35 39 40 40 40 40 40 39 37 33 29 29 30 29 29 28 25 23 19 17 17 18 17 17 16 16 16 17 16 16 16
19 19 20 22 23 24 24 24 27 33 36 37 40 43 43 41 41 39 33 28 26 26 27 28 29 28 26 26 26 23 19 18 17 16 15 15 16 17 16 16 16 16
19 18 18 21 23 24 24 24 28 36 39 39 40 43 44 41 38 34 27 24 25 24 24 25 27 26 24 26 27 24 21 21 18 16 15 14 15 16 16 15 15 14
19 18 18 20 22 22 22 23 27 35 41 37 30 33 41 41 33 27 25 26 24 20 19 19 20 22 25 27 26 22 21 21 19 16 15 14 15 15 15 15 14 13
18 17 18 19 20 20 21 22 25 32 40 37 26 25 33 34 27 21 22 23 22 20 20 18 16 18 24 26 25 22 20 21 20 18 16 15 15 15 14 14 13 12
16 16 16 16 19 22 22 22 24 28 33 33 27 24 24 23 20 19 19 20 20 19 19 19 18 20 23 24 23 22 21 22 21 19 17 16 16 15 14 13 12 11
14 15 15 16 20 23 22 21 23 24 26 25 24 24 22 17 16 17 18 17 18 18 18 19 20 21 22 22 22 22 22 23 21 19 17 16 15 13 12 10 9 8
13 14 14 16 19 23 23 20 21 23 24 23 24 26 23 18 17 17 17 17 17 18 20 21 21 20 19 20 20 21 22 22 19 17 16 16 13 10 9 9 8 7
12 13 14 15 18 22 23 20 21 23 23 22 24 25 22 19 19 17 17 18 20 22 23 23 22 19 18 19 19 20 22 21 17 16 15 13 9 7 7 8 9 11
11 12 14 15 17 21 23 21 21 24 22 20 22 22 19 19 19 18 19 21 23 24 23 22 20 17 16 17 18 20 21 19 15 14 11 8 6 5 6 8 10 14
10 11 13 14 14 18 21 20 19 21 20 20 21 20 18 18 19 19 20 21 20 20 20 19 18 16 15 17 18 18 18 17 15 12 11 11 10 8 8 9 11 13

ECMWFNIL_925_spd_027.txt.gz
Wind_Speed
23 22 21 20 20 19 18 17 16 16 15 14 13 12 13 13 12 12 13 12 11 10 10 10 10 10 10 8 7 6 5 5 5 5 5 5 5 5 5 5 5 5
24 23 22 21 20 20 19 18 17 16 15 15 15 14 14 14 14 14 14 14 13 12 12 13 13 13 13 12 10 9 8 7 7 7 7 7 7 6 6 6 6 6
25 24 23 22 21 21 20 19 18 17 16 16 16 15 15 15 16 16 16 15 14 14 14 15 15 16 16 15 14 12 11 9 9 8 8 9 8 7 7 6 7 7
25 24 24 23 22 21 21 20 19 18 18 17 17 16 16 16 17 17 17 17 16 15 16 16 16 16 17 16 15 15 13 12 10 9 9 9 9 8 8 7 7 7
26 25 24 23 22 22 22 21 21 20 20 19 18 18 17 18 18 18 18 18 18 17 18 19 18 17 17 17 15 15 15 13 13 12 10 10 10 10 9 8 7 7
25 25 25 24 23 23 23 23 23 22 21 20 20 19 20 20 20 19 19 19 19 19 19 20 20 19 18 18 16 15 15 15 15 14 13 12 12 11 9 8 7 7
25 25 25 25 24 24 24 23 23 23 22 21 21 22 22 23 23 22 22 22 21 20 20 20 20 20 19 19 18 17 17 17 16 15 15 14 13 11 10 8 8 9
26 26 26 26 25 25 25 24 23 23 23 23 24 25 25 26 26 25 25 25 23 22 22 21 20 21 20 19 19 19 18 18 18 17 15 15 13 12 11 10 10 10
26 26 26 27 27 26 26 25 24 25 26 26 26 26 26 27 27 27 27 27 25 24 24 22 21 21 21 20 20 21 19 18 17 17 15 14 13 12 12 11 12 12
27 27 27 27 27 26 26 26 25 26 27 28 26 26 27 27 27 28 29 29 27 25 25 24 23 23 22 21 21 21 21 19 17 16 15 13 12 12 12 12 12 13
28 28 27 28 28 27 26 27 27 27 27 27 27 27 27 28 28 29 30 30 28 26 26 26 25 25 24 23 21 21 21 20 18 17 15 14 13 13 13 13 14 14
28 28 28 28 28 27 26 27 28 27 26 27 28 28 28 28 30 31 31 31 29 27 26 26 25 25 24 23 21 21 21 21 20 19 17 15 14 15 15 15 15 15
28 28 28 28 27 26 25 27 29 28 27 27 28 29 29 30 31 31 31 31 31 29 27 26 25 24 23 22 22 22 21 22 22 20 18 16 16 16 16 16 16 16
27 26 25 24 25 25 25 26 28 28 27 27 28 30 31 31 31 32 31 31 31 30 28 25 25 24 23 23 23 22 21 22 23 21 18 16 16 17 17 17 17 16
25 24 23 23 24 24 25 25 26 26 26 27 29 30 31 31 31 31 31 30 28 28 26 24 24 24 24 26 25 23 22 21 21 20 18 17 16 17 17 17 17 17
23 23 23 24 24 25 26 26 25 24 25 27 28 28 28 28 28 28 27 27 26 26 25 24 23 24 26 29 28 25 22 20 19 19 18 16 16 16 16 17 17 18
23 23 23 23 24 24 25 25 26 25 25 27 27 26 24 23 23 23 23 23 24 25 25 24 23 24 28 32 31 27 23 18 17 18 17 15 16 16 16 17 17 17
22 21 22 21 22 23 21 22 25 24 22 22 23 22 21 20 20 21 21 21 22 24 24 23 22 24 28 31 31 30 25 20 16 14 14 15 16 16 17 18 17 16
21 20 21 20 20 20 20 21 23 21 19 19 20 20 20 19 18 20 20 20 21 23 24 23 22 23 25 27 30 30 27 24 20 15 15 17 18 17 17 17 16 16
20 20 20 20 20 19 19 21 22 20 20 22 23 22 20 19 19 19 20 21 22 23 23 21 20 22 24 26 29 29 26 25 23 19 18 19 19 18 16 16 16 16
21 21 20 20 20 19 18 20 22 21 21 23 24 20 18 19 19 19 20 21 22 23 22 20 18 21 24 27 29 28 24 22 22 22 20 19 19 19 17 17 16 14
21 21 20 20 20 19 18 19 20 19 19 20 20 17 16 17 15 16 20 21 21 21 20 18 17 19 22 25 27 27 24 21 22 23 20 18 19 19 19 18 17 15
20 20 19 19 19 19 19 18 18 18 17 16 18 17 16 16 13 15 20 22 23 23 21 19 20 21 22 23 25 25 23 22 22 21 19 19 20 20 19 17 15 16
20 19 18 19 19 19 18 17 17 17 15 15 17 18 17 17 14 13 17 21 24 24 23 22 22 22 22 22 22 21 21 22 22 20 19 20 20 18 16 13 12 13
19 19 18 19 19 18 18 17 16 15 14 15 17 17 16 16 15 13 15 18 20 21 23 23 22 21 21 21 20 19 21 23 21 18 19 19 18 16 15 13 11 12
17 18 17 17 18 17 17 17 15 14 15 16 15 15 14 14 15 15 16 17 17 18 20 21 22 22 23 23 23 22 23 24 21 18 19 17 15 15 15 14 12 13

ECMWFNIL_925_spd_030.txt.gz
Wind_Speed
28 27 27 25 23 22 22 22 21 21 21 20 20 20 20 20 18 19 19 18 17 15 14 15 16 16 16 14 14 14 13 13 13 13 12 11 11 9 8 7 8 7
29 28 27 26 25 24 23 23 22 22 21 21 21 20 21 21 20 20 21 21 20 18 17 18 18 19 17 16 16 15 14 14 13 12 12 12 11 10 9 8 7 7
30 29 29 27 26 25 24 23 23 23 23 22 21 21 22 23 22 22 22 22 22 21 21 21 20 20 19 17 17 16 15 16 14 13 12 13 12 11 9 8 8 9
32 30 30 28 27 26 25 24 24 24 24 24 23 23 23 24 24 24 23 23 23 23 23 22 21 21 21 19 18 18 17 16 16 14 13 14 13 12 10 9 8 8
33 32 31 29 28 27 27 27 26 25 25 25 25 25 25 25 25 26 25 25 25 24 23 23 22 21 22 21 19 19 18 17 17 16 15 15 15 15 13 11 9 9
33 33 32 30 29 29 29 28 28 27 27 27 27 27 27 27 27 27 28 27 26 25 24 24 24 23 23 23 21 20 20 18 18 18 17 16 16 16 14 12 12 11
33 34 33 31 30 30 30 30 29 29 29 29 29 29 29 29 29 29 29 29 27 26 25 26 26 25 24 25 24 22 21 20 18 19 20 18 17 17 14 13 14 13
33 34 33 32 31 31 31 31 31 31 31 29 29 30 31 31 31 31 31 31 30 29 28 28 28 27 26 26 26 24 23 22 20 21 22 21 20 18 17 15 15 14
33 33 33 33 32 32 32 31 31 31 31 30 30 30 31 32 33 34 34 34 33 32 31 30 30 30 28 27 28 27 26 25 23 23 23 22 22 21 19 17 16 15
33 33 33 33 32 33 33 31 30 30 31 31 31 30 31 33 34 34 35 35 35 34 33 33 32 32 30 29 29 29 28 27 25 24 24 23 24 22 20 18 17 17
35 33 33 33 33 32 32 31 29 28 30 32 32 31 32 34 35 35 35 36 37 36 36 35 34 34 33 31 30 29 29 28 27 27 26 25 24 23 21 19 18 17
36 34 33 34 34 32 31 31 30 29 30 31 32 31 32 33 35 36 36 37 37 37 37 37 36 36 35 33 31 30 29 28 27 27 27 26 25 23 21 20 19 18
36 36 34 34 34 34 31 30 30 30 30 31 32 32 31 31 34 36 36 37 37 37 37 37 36 35 35 34 31 30 29 29 28 27 27 26 25 23 21 20 20 19
36 36 35 34 34 34 33 31 30 31 30 31 32 31 30 30 31 33 35 36 37 37 37 37 36 34 34 34 31 29 29 29 29 28 27 25 24 23 22 20 19 19
35 35 35 34 33 33 33 32 30 30 30 30 31 31 30 28 28 29 31 33 34 35 34 33 33 33 33 32 31 29 29 29 28 28 27 25 24 23 22 21 20 19
33 33 32 32 32 32 32 32 30 28 28 28 29 30 30 27 26 27 27 28 29 32 32 30 30 31 31 32 32 32 31 29 28 27 26 25 24 22 21 21 20 18
32 31 31 31 30 30 30 30 28 26 26 26 25 27 28 27 26 26 27 26 26 28 29 28 29 31 33 34 35 35 33 29 27 26 26 25 24 22 21 21 19 17
32 30 29 29 29 28 28 27 26 24 23 23 23 23 26 26 25 25 27 27 26 26 27 28 29 31 33 35 36 35 32 28 25 25 25 24 23 21 20 19 17 17
31 29 28 28 28 27 25 25 25 24 22 22 22 21 23 25 24 23 24 26 27 27 27 27 27 28 31 34 35 35 32 27 23 22 21 22 23 23 21 19 17 18
30 28 27 26 26 25 25 24 24 24 22 21 20 19 20 22 23 21 20 23 26 27 27 26 26 28 31 32 34 35 32 27 22 20 19 20 21 22 22 21 19 18
29 27 26 25 25 25 24 23 22 22 21 19 17 16 17 20 21 20 19 20 23 25 26 25 25 27 30 31 33 34 33 29 24 22 21 21 19 17 20 22 21 19
28 27 25 25 25 24 22 21 20 20 19 18 18 16 15 16 19 20 19 19 20 22 24 24 23 24 27 31 33 33 33 32 29 26 24 22 19 17 19 22 21 20
27 26 24 24 23 22 20 19 18 17 17 18 19 17 13 12 16 19 19 18 19 20 21 22 22 22 26 30 31 30 30 30 30 29 26 24 21 19 19 21 21 20
25 24 23 23 22 20 19 18 17 16 16 17 17 16 13 13 16 17 16 16 16 18 21 21 21 23 27 29 28 26 26 27 29 29 25 22 20 19 19 21 22 22
25 24 23 23 22 20 19 19 17 16 15 14 14 12 11 13 16 15 13 13 15 19 22 21 20 23 25 25 24 24 23 25 29 27 22 19 18 19 20 21 22 23
25 24 24 23 22 21 20 19 18 16 14 13 12 10 10 12 15 15 14 13 15 19 23 24 22 22 23 23 23 23 23 25 28 26 21 19 17 18 20 22 23 22

ECMWFNIL_925_spd_033.txt.gz
Wind_Speed
37 36 35 34 33 32 32 33 33 31 31 33 32 30 30 30 30 30 28 24 24 25 25 25 21 19 20 18 16 17 18 18 18 17 17 15 15 14 13 12 12 11
37 36 35 33 33 33 32 33 34 34 33 33 32 30 30 31 31 30 28 25 26 25 26 26 22 20 22 20 17 20 21 19 18 18 17 16 16 15 14 13 13 12
38 37 36 34 33 34 33 33 34 35 34 33 33 32 31 31 32 32 30 27 27 27 27 27 22 21 24 22 19 22 23 20 19 18 18 18 17 16 15 13 13 13
38 37 37 36 34 34 35 34 33 34 34 34 33 33 32 32 32 33 33 31 30 29 28 27 24 23 25 25 23 24 23 22 21 19 18 20 19 18 17 15 14 14
39 38 37 37 35 35 35 35 34 34 34 34 34 34 34 34 33 32 34 34 33 32 31 29 27 25 27 28 27 26 25 24 23 21 19 20 21 20 19 17 16 15
39 38 38 37 36 36 36 36 35 34 35 34 34 34 35 35 34 33 34 36 35 34 33 32 30 28 28 30 29 28 28 27 26 25 23 21 21 21 20 20 18 17
38 38 38 38 37 37 37 36 35 35 35 35 34 35 36 36 36 36 36 36 36 36 36 34 33 31 30 32 31 29 29 28 27 28 27 24 23 22 22 22 21 19
39 38 38 38 38 38 38 38 36 35 35 35 35 36 37 37 38 38 37 37 38 38 37 36 35 33 33 34 34 31 30 30 29 29 29 27 25 24 24 24 23 22
38 38 39 39 38 38 39 38 37 36 35 36 37 37 37 38 39 39 39 39 39 39 39 38 37 36 35 35 36 34 33 32 32 31 31 30 28 27 26 25 24 23
38 39 39 39 39 39 39 39 37 36 36 37 38 38 39 39 39 39 40 40 40 40 39 39 38 38 37 37 37 37 36 34 34 33 32 32 32 30 28 27 25 24
39 39 40 40 40 40 39 39 37 37 38 38 38 38 39 39 39 39 40 41 42 41 40 40 40 39 39 38 38 38 37 35 34 33 33 32 32 32 30 29 27 26
40 39 41 42 41 40 39 39 38 37 38 39 39 38 38 39 39 40 40 41 42 42 41 40 39 39 39 39 37 37 36 34 32 32 32 32 32 32 31 29 28 27
41 41 42 42 41 40 39 39 39 38 38 39 39 38 37 38 39 40 40 41 41 40 39 39 38 37 38 37 36 36 35 33 32 33 33 32 31 31 30 29 28 27
42 43 43 41 41 41 39 39 39 39 38 39 39 38 38 38 39 40 40 39 39 39 38 37 36 36 36 36 36 34 33 33 34 34 32 31 30 29 28 28 28 27
42 42 41 40 39 40 40 39 39 39 38 38 38 39 38 37 37 38 38 37 36 36 36 35 35 35 35 36 36 33 33 34 34 33 32 31 30 29 28 27 27 27
42 41 40 39 39 40 41 40 39 39 38 37 38 39 38 37 36 35 36 36 35 34 34 34 34 34 34 36 37 36 35 36 35 33 32 31 30 28 28 28 28 26
41 40 39 39 40 40 40 40 38 37 37 36 36 38 38 37 35 34 35 35 34 34 34 34 34 34 34 36 39 39 38 37 35 33 32 30 29 29 29 29 28 26
41 40 39 39 39 39 39 39 37 35 35 35 35 36 37 36 35 34 34 34 33 33 34 35 35 35 36 37 39 40 39 37 34 32 31 30 29 30 29 29 28 27
41 40 39 39 39 38 37 36 35 34 34 35 34 34 35 35 34 32 32 32 33 34 34 35 35 34 36 37 39 40 40 37 34 30 29 29 30 30 29 28 27 25
40 39 38 38 37 36 34 34 35 34 33 33 32 31 33 33 31 30 30 32 33 34 35 35 34 34 36 37 39 40 40 38 34 29 28 28 29 28 28 27 26 24
39 38 36 35 35 34 33 32 33 33 31 30 29 29 29 31 30 29 28 30 32 33 34 34 33 35 36 37 39 39 39 38 34 29 27 28 28 28 28 26 25 23
39 36 34 34 33 33 32 32 32 31 29 29 27 25 25 26 27 28 27 27 29 31 31 32 33 35 36 37 38 37 37 37 34 28 26 27 27 28 29 28 26 24
38 36 34 33 33 32 31 30 30 29 28 28 26 24 22 22 23 24 24 24 26 28 30 31 31 33 34 35 35 34 34 35 32 27 25 26 26 26 27 27 25 23
37 36 35 33 33 32 30 28 28 28 28 28 27 24 22 21 21 21 20 21 23 25 28 29 28 29 30 31 30 31 33 34 32 27 26 26 25 24 23 23 22 22
37 36 35 34 32 31 29 28 28 28 28 28 27 25 23 21 20 19 19 19 20 22 24 25 26 26 26 27 27 28 31 35 33 29 27 25 24 23 22 21 22 24
37 36 35 34 33 31 30 30 29 28 28 27 26 25 23 21 20 20 19 19 19 19 20 21 22 23 24 25 25 26 31 34 33 31 29 26 25 24 22 22 23 24

ECMWFNIL_925_spd_036.txt.gz
Wind_Speed
40 40 39 37 37 36 36 36 35 35 36 37 36 34 35 35 33 33 32 31 32 32 32 30 29 27 26 24 23 24 24 22 19 19 20 19 17 17 17 16 15 14
40 40 39 38 37 36 36 37 36 36 37 37 36 35 35 36 35 35 35 33 32 33 33 33 31 29 28 26 25 25 24 22 20 20 21 21 19 18 18 17 16 15
41 40 39 38 37 37 36 37 37 37 37 37 36 36 36 37 37 37 37 35 34 33 34 35 34 32 30 28 27 26 25 24 23 21 22 23 22 21 20 20 18 17
41 40 40 39 38 37 36 37 37 36 37 37 37 37 37 38 38 38 38 37 35 35 35 36 36 35 32 30 28 28 27 26 25 23 23 24 24 23 22 21 21 19
42 40 40 39 38 36 36 37 38 37 37 38 38 38 38 38 38 39 39 38 37 36 36 37 38 36 35 32 30 30 29 28 27 25 25 26 26 25 23 22 22 21
41 41 40 39 38 37 37 38 39 38 38 38 38 39 39 40 39 40 40 39 39 38 38 39 39 38 37 35 33 33 32 30 29 28 27 28 27 26 24 23 23 23
40 40 40 38 38 38 38 38 39 39 39 39 39 40 41 41 40 41 41 40 40 40 40 40 40 39 39 37 35 34 33 32 32 31 30 29 29 28 27 26 26 25
40 40 40 39 38 38 38 39 39 40 40 40 40 41 41 41 41 41 41 41 41 41 41 41 41 40 40 39 37 36 35 33 33 33 33 32 31 30 29 28 27 27
40 39 39 39 39 39 39 40 40 40 40 41 42 42 42 42 42 41 41 42 42 42 41 41 41 41 41 40 38 37 36 35 35 35 35 34 33 32 30 29 28 27
40 39 39 40 40 40 40 41 40 40 40 42 42 42 42 42 42 41 41 42 42 42 42 42 42 42 41 40 39 38 38 38 36 36 36 35 34 32 30 29 29 28
41 40 40 41 41 41 41 41 40 40 41 42 42 42 42 42 41 41 41 42 43 43 43 43 43 42 41 41 40 39 38 38 37 36 36 35 33 32 31 30 29 29
41 41 41 42 43 42 41 41 41 40 41 42 42 42 41 41 41 42 42 43 43 43 43 43 43 42 42 41 40 39 37 37 36 35 35 34 33 33 32 31 30 29
43 43 43 43 44 43 42 41 41 41 42 42 42 41 40 40 41 43 43 43 43 43 43 43 42 41 41 40 38 38 37 36 34 34 34 34 33 33 32 31 30 29
44 44 44 44 43 43 41 41 41 42 42 41 41 40 40 41 42 42 42 41 41 42 42 41 40 40 39 38 37 36 36 36 35 34 33 33 32 32 32 31 31 30
43 43 43 43 42 42 42 42 42 42 41 40 40 40 41 41 41 40 40 39 40 40 39 39 39 39 39 38 37 37 37 36 36 35 34 33 31 31 31 31 31 30
42 42 42 42 42 42 42 42 42 41 41 40 40 40 40 39 39 39 39 39 38 38 38 38 39 39 39 39 38 38 39 38 37 36 35 33 31 30 30 30 31 31
41 41 41 41 42 42 42 43 42 41 40 40 39 39 39 38 38 38 38 38 38 37 38 39 39 39 38 39 39 40 41 40 38 36 33 32 31 31 30 31 31 31
41 41 41 41 41 42 42 42 41 40 39 38 38 38 38 37 37 38 38 38 37 38 39 40 40 39 39 39 40 41 42 40 38 34 32 32 33 32 32 31 31 30
41 40 40 41 41 42 41 40 39 39 39 39 39 38 37 37 37 37 37 37 38 39 40 39 39 39 40 40 41 42 42 41 38 34 32 33 33 33 33 33 32 31
41 40 40 40 40 40 39 38 39 39 39 39 38 37 36 36 37 37 37 38 39 39 39 39 38 39 40 40 41 41 41 41 39 35 32 33 34 34 33 32 32 31
40 40 40 39 39 38 38 38 38 38 38 38 36 36 37 37 37 37 37 38 39 38 38 37 38 39 39 39 40 40 40 41 40 36 32 32 33 33 32 31 30 29
42 41 39 38 38 37 37 37 37 37 37 37 35 35 36 37 37 37 38 38 37 37 37 36 36 37 38 38 38 38 39 40 39 34 31 30 31 31 30 30 29 28
42 40 39 38 37 37 37 37 37 37 37 36 35 34 35 36 37 37 38 38 37 37 36 35 34 36 37 37 37 37 38 39 37 33 30 29 29 29 29 28 28 28
42 40 38 37 37 38 38 38 37 37 36 36 36 36 36 36 36 36 36 37 37 38 37 36 35 36 36 36 36 36 38 38 36 32 30 29 28 28 28 27 27 27
40 39 38 38 38 39 39 38 38 36 36 36 36 36 36 35 34 34 34 35 36 37 37 37 36 35 35 34 34 35 37 37 34 31 28 27 27 27 27 26 26 27
39 39 39 39 39 40 39 38 37 35 34 35 35 35 34 33 33 33 33 33 33 34 34 34 33 32 32 32 33 34 36 35 33 30 28 26 26 26 25 25 26 27

ECMWFNIL_925_spd_039.txt.gz
Wind_Speed
44 42 41 39 38 37 35 35 36 37 36 36 37 37 38 37 35 34 33 31 31 31 31 32 32 31 28 26 25 25 25 25 24 23 23 23 21 20 20 20 19 18
43 42 40 39 37 36 35 35 36 38 38 37 38 38 38 37 35 35 34 32 32 32 32 33 34 32 31 29 27 26 26 26 26 25 25 25 23 22 22 21 20 19
44 42 40 39 38 37 36 36 36 38 38 38 38 38 37 37 36 35 35 34 33 33 33 34 35 34 32 31 29 28 28 28 27 26 26 26 24 23 22 21 20 20
44 43 42 40 39 38 37 36 36 37 38 37 38 38 37 37 36 36 36 35 34 34 34 35 35 35 34 33 31 30 30 29 28 27 27 27 24 23 23 21 21 21
45 44 42 41 39 38 37 37 37 37 38 38 38 38 37 37 37 37 37 36 36 35 35 35 36 36 35 34 33 32 32 31 29 28 29 28 25 25 25 23 22 21
44 43 42 41 40 38 38 38 39 39 38 38 38 37 38 37 38 38 38 37 37 36 36 36 36 37 37 36 35 34 34 33 31 30 30 30 27 26 26 25 24 23
43 42 42 41 40 39 39 40 40 39 39 38 38 38 38 38 38 39 39 38 38 38 38 37 37 37 37 37 37 36 36 35 33 32 32 31 29 28 27 27 26 25
42 42 42 41 40 40 40 40 41 40 39 38 38 38 38 38 39 40 39 39 39 39 39 38 38 37 37 38 38 38 37 36 35 34 34 33 31 30 29 28 27 27
42 41 41 41 41 41 41 41 41 40 40 39 39 39 38 39 39 39 39 39 39 40 39 39 39 38 38 38 39 38 38 37 36 36 35 34 33 32 31 29 28 28
41 41 41 41 42 42 42 42 41 40 39 40 40 39 38 39 39 39 39 39 39 40 40 40 40 39 38 38 39 39 38 38 37 37 36 36 35 33 32 30 30 30
41 40 41 42 43 42 42 42 41 40 40 40 39 38 38 38 38 38 38 39 40 40 40 40 40 40 39 38 39 39 39 38 37 37 37 36 35 34 33 32 31 31
40 40 41 42 43 42 41 41 40 40 40 40 39 38 37 37 38 38 39 40 41 40 40 40 40 40 40 39 39 39 39 38 37 37 37 36 35 34 33 33 32 32
41 42 41 41 42 42 40 40 40 41 40 40 39 37 37 37 38 38 39 40 40 40 40 40 39 40 40 40 40 39 38 38 37 37 36 35 35 34 33 33 33 33
43 42 41 41 41 41 40 40 40 41 40 39 37 37 38 38 38 38 39 39 39 39 39 39 39 40 40 40 40 39 38 37 37 37 36 35 35 34 34 33 33 33
41 40 40 41 40 40 41 40 40 40 39 38 37 37 38 38 38 38 38 38 38 38 38 39 39 40 41 41 40 39 38 38 38 37 36 35 34 34 34 34 34 33
40 40 40 40 40 41 40 39 39 38 37 37 37 37 37 37 37 37 38 38 37 37 37 38 40 41 42 42 41 40 39 39 39 38 37 35 34 33 33 34 34 34
40 40 40 40 41 40 39 39 38 37 37 37 37 37 37 37 37 37 38 38 38 37 38 39 40 41 41 41 41 41 41 40 40 39 38 36 34 33 33 33 33 33
40 40 40 41 41 40 39 38 37 37 36 36 37 38 38 37 37 38 38 38 38 38 38 39 41 41 40 41 41 41 42 42 41 40 38 35 34 34 34 33 33 32
40 39 40 40 41 40 38 36 36 37 38 38 39 39 38 37 38 39 38 38 37 38 39 40 40 40 40 41 40 41 42 43 42 40 36 34 34 34 35 34 32 30
39 39 40 40 39 38 36 36 38 39 40 40 38 37 37 39 39 39 38 38 38 38 39 40 40 40 40 40 40 41 42 44 44 40 35 34 34 34 34 33 31 29
39 40 40 39 37 37 37 38 40 41 41 40 38 38 40 40 39 39 39 38 39 39 38 38 39 40 40 40 41 41 42 43 44 40 35 33 33 33 33 32 30 29
40 40 39 37 36 37 39 40 41 41 41 40 39 39 39 38 38 39 39 38 38 38 38 38 38 39 39 40 40 40 42 43 42 37 32 30 31 32 31 31 30 29
39 38 37 36 37 39 41 42 42 41 40 39 39 38 38 38 38 38 38 38 38 38 38 38 38 38 39 40 39 39 42 42 38 33 30 29 30 31 30 30 29 28
38 37 37 37 38 40 41 41 41 40 40 39 39 39 39 38 37 36 36 38 38 39 39 39 38 37 38 37 38 39 41 39 34 31 30 29 29 30 30 30 29 28
37 37 38 39 39 41 41 40 40 39 38 38 39 39 38 37 36 35 35 36 37 38 39 38 36 36 36 36 37 38 39 37 33 30 28 27 28 29 28 28 28 27
35 38 40 40 40 41 40 39 39 36 35 37 38 37 36 35 35 35 34 35 35 36 37 37 36 35 34 35 36 36 37 37 33 30 29 28 29 29 28 27 27 26

ECMWFNIL_925_spd_042.txt.gz
Wind_Speed
42 40 39 38 38 37 36 35 35 35 34 34 34 34 34 34 34 33 32 32 31 30 29 26 24 25 25 24 24 24 24 22 22 22 22 21 21 20 19 17 16 16
42 41 39 38 37 37 37 37 37 37 36 36 36 35 34 34 33 33 33 32 32 31 30 27 26 26 26 26 26 26 25 24 23 23 23 22 22 22 21 18 17 17
42 41 40 38 38 38 38 38 37 37 37 36 36 35 34 34 33 34 33 33 32 31 30 29 28 27 27 27 27 28 27 26 24 24 23 24 23 23 22 20 19 18
42 42 41 40 40 40 39 38 37 37 37 36 36 35 34 33 33 33 33 32 32 31 31 30 30 29 28 28 29 29 29 28 26 25 25 24 24 24 23 22 20 19
44 43 42 41 40 39 38 38 38 38 37 37 36 35 34 34 33 34 33 33 32 32 31 31 31 31 30 30 30 31 31 30 28 27 26 26 25 25 24 23 22 21
42 43 42 41 40 39 38 38 39 38 38 37 36 35 34 34 34 34 34 33 33 32 32 33 33 32 31 31 31 32 32 32 31 29 28 27 26 26 25 24 23 22
40 41 41 40 40 39 39 38 38 38 38 37 35 35 35 34 35 35 35 34 34 33 33 34 34 33 32 32 32 33 33 33 32 30 29 29 27 27 26 26 25 24
40 40 40 40 40 39 39 38 38 37 37 36 35 35 35 35 36 36 36 35 34 34 34 34 35 34 34 33 33 33 33 33 32 31 31 30 29 29 28 27 26 25
39 39 40 40 40 40 39 38 38 37 36 36 35 35 35 36 36 37 36 36 35 35 35 35 36 36 35 35 34 34 33 33 33 32 32 31 31 31 30 28 27 26
39 39 39 40 40 40 39 38 37 37 36 36 36 35 35 36 37 37 37 37 36 36 36 36 36 37 36 36 36 35 34 33 32 32 33 33 32 32 31 29 28 28
39 39 39 40 41 40 39 39 38 37 36 36 36 35 36 36 36 37 37 37 37 37 37 37 37 37 37 37 36 36 35 34 33 33 33 33 33 33 32 31 30 30
40 41 41 41 41 40 39 39 38 38 37 36 36 37 36 36 37 38 38 38 39 39 38 38 38 38 38 37 37 36 35 34 33 33 34 34 34 34 33 32 32 31
42 43 42 41 41 40 40 39 39 39 38 37 37 37 38 37 38 38 39 39 40 39 40 39 39 38 38 38 38 37 36 35 34 33 34 34 34 34 34 33 32 32
43 43 41 41 41 41 41 40 39 39 38 38 38 38 39 40 39 39 39 39 39 40 40 39 39 39 38 38 38 37 36 35 34 34 34 34 34 34 33 33 32 32
42 40 40 40 40 40 41 40 39 39 39 39 39 40 40 40 39 39 39 39 39 40 40 39 39 40 40 39 39 38 37 36 35 34 34 34 34 33 32 32 32 32
40 39 39 39 40 41 41 40 39 39 39 40 41 41 40 39 39 39 39 39 39 39 39 39 40 41 41 41 40 39 38 36 35 34 34 34 33 31 30 31 32 33
39 39 39 40 41 42 41 41 40 40 41 42 42 41 40 39 39 39 40 40 40 40 40 40 41 42 42 42 42 40 38 36 35 34 34 34 31 29 29 31 32 32
39 39 39 40 42 42 42 41 41 42 42 42 41 41 40 39 40 41 41 40 40 40 41 41 42 42 42 42 42 41 39 37 35 34 34 32 30 30 30 31 32 32
40 39 40 41 42 42 41 41 41 42 43 42 42 41 40 40 41 41 41 41 41 41 41 41 42 42 43 43 42 41 40 37 35 35 34 32 31 31 31 33 35 33
39 39 40 40 40 40 39 40 41 42 42 42 41 40 40 41 42 42 41 41 42 41 40 40 42 43 44 44 43 41 39 38 37 36 34 33 33 33 34 36 36 32
38 39 39 38 37 37 38 39 40 40 40 40 39 39 40 41 41 42 42 42 42 41 40 40 42 44 43 43 43 41 38 37 38 37 35 35 34 33 34 36 33 30
38 37 35 35 35 36 37 38 39 39 39 38 37 37 38 39 40 40 41 41 40 40 40 41 42 42 42 42 42 39 37 37 38 38 38 36 33 31 33 32 29 29
37 36 35 35 35 36 38 39 38 38 37 37 36 35 36 36 37 37 38 39 39 40 41 41 40 40 41 42 40 38 37 37 38 39 40 37 32 31 31 29 27 28
37 37 36 36 37 39 40 39 39 38 37 37 36 35 35 35 35 35 36 37 39 41 42 41 39 40 41 41 39 38 38 38 39 40 39 36 31 28 29 29 28 28
37 37 37 36 37 39 39 38 38 38 37 37 37 36 35 34 34 34 35 36 38 40 41 40 39 39 40 39 38 38 38 39 39 39 36 33 29 25 26 28 28 27
36 38 38 39 40 41 40 39 38 36 36 38 38 37 35 35 35 35 35 36 37 37 38 40 39 38 38 38 37 37 38 39 39 37 35 33 30 27 26 26 27 27

ECMWFNIL_925_spd_045.txt.gz
Wind_Speed
38 38 39 37 35 35 34 34 36 34 33 32 32 33 33 33 32 31 31 29 28 27 20 16 15 17 19 21 19 19 18 17 17 18 17 17 16 15 15 14 12 11
39 38 39 36 35 38 38 37 37 36 35 36 34 34 34 34 33 32 32 30 30 29 21 16 16 18 21 23 21 20 20 19 19 19 18 18 17 17 17 16 15 14
39 37 38 37 36 38 38 35 36 37 36 36 35 35 34 33 33 32 32 31 30 29 23 17 16 18 22 24 22 21 21 20 20 20 19 19 18 18 18 16 16 16
40 38 39 37 35 36 37 34 35 36 35 35 36 36 34 33 33 32 32 31 30 30 26 20 18 18 23 26 24 23 22 21 21 21 20 20 19 18 18 17 17 17
41 40 38 36 34 35 37 36 35 35 35 36 36 35 34 34 33 32 32 32 31 30 27 23 20 18 23 27 25 24 24 22 23 23 22 22 20 19 19 19 18 18
40 41 40 37 35 36 37 37 37 36 36 36 36 36 36 35 34 33 33 32 32 30 28 26 22 19 22 28 27 26 26 24 24 24 24 24 23 21 20 20 19 19
39 40 40 39 37 37 37 36 37 38 38 38 37 37 37 36 35 35 35 34 32 31 29 29 27 23 25 29 28 28 27 26 26 26 26 26 25 24 23 21 20 20
37 37 39 39 37 35 36 35 36 39 40 39 38 38 38 37 37 37 36 35 34 33 33 33 31 29 30 30 29 29 29 28 28 27 27 27 27 26 25 23 22 21
36 35 37 38 36 34 35 34 35 38 41 41 39 38 38 39 39 38 38 37 36 35 35 35 34 33 32 32 31 31 31 30 30 29 29 29 29 28 27 25 23 22
35 35 35 36 36 35 34 34 33 34 39 42 40 37 37 40 40 39 38 38 38 37 35 35 36 35 33 33 33 32 32 32 31 31 30 30 30 29 28 27 25 23
36 36 35 36 36 35 35 35 33 32 34 39 40 37 36 39 40 40 39 39 39 39 36 36 37 37 35 35 34 34 34 33 33 32 31 31 31 30 29 28 27 25
37 36 36 36 37 36 35 35 34 32 32 35 39 38 36 36 39 41 41 41 41 41 39 39 39 38 37 37 35 35 34 34 34 33 32 32 32 31 30 29 28 26
38 39 37 36 36 36 35 34 35 34 33 34 37 37 35 33 36 40 42 43 43 42 41 40 40 39 38 38 36 36 35 35 34 34 33 33 32 32 30 29 29 28
41 40 37 36 35 36 36 34 35 35 34 35 36 36 35 34 35 38 41 43 43 43 42 40 40 40 39 39 38 37 36 35 35 35 33 33 33 32 30 29 29 28
43 38 35 35 34 35 38 36 34 34 35 36 37 37 35 34 34 35 39 41 42 42 41 40 40 41 40 39 39 38 37 36 36 36 35 34 34 31 30 30 30 29
41 38 35 34 35 37 41 39 35 36 37 37 38 38 35 35 35 35 35 37 38 39 39 39 40 42 42 40 39 39 39 38 37 37 37 36 34 31 29 30 31 30
40 40 36 36 38 39 40 40 38 36 36 37 37 37 36 36 37 35 33 32 33 36 37 37 40 43 42 41 41 40 38 39 39 38 38 37 35 32 31 31 30 30
39 38 36 37 38 38 39 39 38 36 35 36 36 36 36 35 35 35 34 32 30 32 34 35 39 43 42 42 42 41 40 39 38 38 38 37 35 34 33 32 30 28
38 36 36 37 38 38 36 36 36 36 35 35 34 35 35 33 34 34 34 32 31 31 32 32 35 40 42 43 42 42 42 40 38 38 38 36 36 36 35 32 29 28
37 36 36 35 36 35 33 34 35 35 34 33 33 33 33 33 35 34 33 33 33 31 31 31 33 37 41 43 43 42 42 41 40 38 35 35 37 37 35 33 31 30
35 34 32 31 31 32 32 33 33 33 33 32 32 32 33 35 35 33 34 35 34 33 33 32 33 36 39 41 42 43 42 41 41 38 31 31 36 37 35 33 32 31
31 30 29 28 29 29 31 32 32 33 33 31 31 32 34 34 33 33 35 35 34 35 35 33 33 33 36 39 40 41 41 40 42 40 31 28 33 36 34 32 31 30
31 31 29 28 28 30 32 33 33 34 33 32 32 33 33 33 33 34 36 35 35 36 36 34 32 31 33 36 38 39 39 40 43 40 31 27 30 33 32 31 30 30
37 36 33 30 30 32 33 33 33 33 33 34 35 34 33 34 34 35 36 35 35 36 37 34 32 33 34 34 36 39 40 41 43 39 31 27 27 27 26 25 25 28
37 37 35 32 32 34 33 32 32 32 32 33 34 33 32 32 33 34 35 36 36 37 40 38 33 34 37 36 36 39 40 41 42 37 30 27 26 25 24 21 20 24
30 32 34 33 33 33 32 31 32 31 30 31 32 32 31 31 32 32 33 35 36 37 40 40 37 36 39 39 38 38 40 41 39 35 32 28 26 27 25 21 20 21

ECMWFNIL_925_spd_048.txt.gz
Wind_Speed
27 25 25 25 25 24 23 23 22 22 22 21 21 20 21 21 21 20 19 19 19 19 18 18 17 15 14 14 14 14 14 13 13 13 14 14 13 12 12 12 11 10
30 26 24 24 25 24 24 24 23 22 22 22 22 20 20 21 20 20 20 20 19 20 19 19 18 17 16 15 15 16 15 14 14 14 15 15 14 13 13 13 12 12
30 28 26 26 25 25 25 24 23 23 22 22 22 22 21 20 20 21 21 21 20 20 19 20 19 19 18 16 16 17 17 16 16 15 16 16 15 14 14 14 13 13
30 29 29 28 26 25 24 23 23 23 23 23 23 23 21 20 21 21 22 22 21 20 20 20 20 19 19 18 17 17 18 18 17 16 16 17 16 15 15 14 14 14
32 31 30 29 26 24 24 24 25 24 24 24 23 23 23 22 22 22 22 22 22 22 20 21 21 20 20 19 19 18 19 18 17 17 18 17 16 16 15 15 15 15
32 32 31 29 26 26 25 26 27 26 25 25 24 23 23 24 24 23 23 23 23 23 22 21 22 21 21 21 20 19 19 19 19 19 19 18 17 17 16 15 16 16
33 33 33 30 28 28 28 27 27 27 26 25 24 24 24 24 25 25 24 24 23 23 23 22 22 22 22 22 21 21 21 21 20 20 20 19 18 17 17 17 17 17
34 33 33 32 31 30 30 29 28 28 28 26 25 25 26 25 25 25 25 25 24 23 23 23 23 23 22 22 22 22 22 22 21 21 21 19 18 19 18 17 18 18
33 32 32 32 32 31 31 31 30 29 28 28 28 26 26 27 26 25 25 25 25 23 23 23 23 23 23 22 23 23 23 23 22 22 22 20 20 20 19 19 19 20
33 33 32 33 33 32 32 31 30 29 28 29 29 28 26 26 27 26 25 25 25 24 24 24 24 24 23 23 23 24 24 24 23 23 23 22 21 21 21 21 21 21
34 33 33 33 34 33 32 32 31 29 28 29 29 29 28 26 26 27 26 26 25 25 24 25 25 25 24 24 24 25 25 24 23 24 24 23 22 22 22 22 23 23
35 35 34 35 35 34 33 33 32 31 30 29 29 30 29 27 27 27 27 27 26 25 25 25 25 25 25 25 25 25 24 24 23 23 24 23 23 23 23 23 24 24
35 36 36 36 35 34 33 32 33 33 32 30 29 29 29 29 28 27 27 27 26 26 25 25 26 26 25 26 26 25 24 24 24 23 23 23 23 23 23 24 24 24
35 35 35 35 34 33 33 32 32 32 32 31 29 28 29 30 29 28 27 26 26 27 26 26 26 26 26 26 28 26 24 24 24 24 23 23 23 23 24 24 24 25
34 33 33 33 32 32 32 33 32 31 31 30 29 29 29 29 29 29 27 26 26 27 27 27 27 27 27 28 28 27 25 24 25 25 25 23 22 23 24 24 25 25
31 31 31 32 32 32 32 32 32 30 30 30 30 29 28 28 28 29 28 27 27 27 28 28 28 28 31 32 31 28 26 25 25 25 25 24 22 22 24 24 25 25
29 30 30 31 32 32 31 31 31 30 30 30 30 30 28 28 28 29 29 28 27 28 28 29 29 30 34 36 36 34 29 24 24 24 24 24 23 23 23 24 25 25
28 28 29 30 32 32 31 30 31 31 30 30 30 30 29 28 28 29 30 29 28 28 29 29 30 32 37 38 39 39 35 27 23 22 23 24 24 23 23 23 23 24
28 28 29 30 31 31 30 29 30 31 31 30 30 29 28 28 29 29 29 30 29 29 29 29 28 31 37 39 39 40 40 34 26 22 22 23 23 23 23 23 23 22
28 28 29 29 28 28 27 27 29 30 30 29 28 28 28 28 28 29 29 30 30 29 29 29 28 30 34 39 40 40 40 39 32 25 23 23 22 23 23 24 24 23
29 30 29 27 26 26 27 28 28 29 29 28 27 27 28 28 28 29 29 29 29 29 28 28 28 31 33 36 39 40 40 41 37 30 26 25 24 24 25 25 25 25
29 29 27 26 25 26 28 28 29 30 30 29 28 28 28 28 28 30 30 29 29 30 31 29 29 33 36 37 38 39 40 41 40 34 30 29 27 26 27 27 27 27
26 25 25 26 26 27 29 30 31 31 30 29 29 29 29 28 29 29 30 29 30 32 33 32 31 34 38 39 38 39 41 43 41 34 31 31 29 28 28 28 29 30
25 26 27 27 28 29 30 30 30 30 28 28 28 28 29 29 28 28 28 29 31 33 33 32 31 33 37 39 39 39 42 44 40 33 31 30 30 29 28 28 29 32
27 28 28 29 29 29 29 28 28 28 27 27 28 28 29 28 27 27 28 28 29 30 32 32 30 31 34 38 39 40 43 43 37 31 31 31 30 29 29 30 31 32
26 27 27 27 27 27 26 26 26 25 25 26 27 26 26 26 27 27 27 27 27 27 29 30 31 31 32 36 39 42 44 42 35 31 32 32 30 30 29 31 32 31

ECMWFNIL_925_spd_051.txt.gz
Wind_Speed
26 25 25 26 25 24 24 23 22 21 21 21 20 20 20 20 19 19 19 20 20 19 19 19 19 18 16 15 15 13 13 14 14 14 14 14 13 13 13 14 14 12
28 26 25 25 25 25 25 25 23 22 22 22 21 20 19 20 20 20 20 20 21 20 20 20 20 19 18 17 16 15 14 15 15 15 15 15 14 14 14 15 15 13
29 28 27 27 26 26 26 25 24 24 22 22 22 21 20 19 20 21 22 22 22 21 21 21 21 21 20 18 18 17 16 16 16 16 16 16 16 15 15 15 15 15
31 30 29 28 27 26 25 25 25 25 24 23 23 22 21 20 20 21 22 23 23 22 22 22 22 22 21 20 19 18 17 17 17 17 17 17 17 17 16 16 16 16
34 32 30 29 27 26 25 26 26 26 25 25 23 22 22 22 21 21 22 23 23 23 22 23 23 23 22 21 21 19 18 17 18 18 18 18 18 18 17 17 17 17
34 33 32 30 28 27 26 27 28 27 26 26 24 23 23 23 23 22 22 23 23 23 23 23 23 23 23 23 22 20 19 18 19 20 19 19 19 19 18 18 19 19
34 34 33 31 29 29 28 28 27 28 27 26 25 24 24 24 24 24 24 24 24 23 23 24 24 24 23 23 23 22 21 19 20 21 22 21 20 20 20 19 20 20
34 33 33 32 31 30 30 29 27 28 27 26 25 25 25 25 25 25 25 24 24 23 24 24 24 25 24 24 24 23 22 21 21 23 23 23 22 22 22 21 20 21
34 33 32 33 32 32 31 31 29 28 28 28 27 26 26 26 26 25 25 25 25 24 24 24 24 25 25 24 25 24 24 22 22 23 25 25 24 24 23 22 22 22
34 33 33 34 34 33 33 32 31 29 29 29 29 27 26 26 26 26 25 25 25 25 24 24 24 25 25 25 25 25 24 24 24 24 25 26 25 25 24 24 23 23
34 34 34 35 35 34 34 34 33 31 29 29 30 29 29 27 26 26 26 26 26 26 26 26 25 26 26 26 25 25 25 25 25 25 26 26 26 26 25 25 25 24
35 35 35 36 36 35 34 34 34 32 30 29 29 30 30 28 27 27 27 27 27 27 27 27 27 27 27 27 26 25 26 26 25 25 26 26 26 26 26 26 26 25
35 36 35 35 36 35 34 33 33 33 32 30 29 29 29 29 29 28 28 28 28 28 28 28 28 28 28 28 28 27 27 27 26 25 26 26 26 26 27 26 26 26
35 35 35 35 35 34 33 33 32 33 33 31 29 29 29 30 30 29 28 28 29 29 29 29 30 30 30 30 29 28 28 27 27 26 26 26 26 27 27 26 26 26
32 32 33 34 33 33 32 32 32 32 32 31 30 29 29 29 29 29 29 29 29 30 30 30 30 31 31 31 30 29 28 28 27 27 27 27 27 27 27 27 26 26
30 31 31 31 31 32 32 31 31 31 30 31 31 29 28 28 28 29 29 29 29 30 30 30 30 31 33 35 34 31 29 28 27 27 27 27 27 27 27 27 27 27
28 29 29 29 30 30 30 30 30 30 30 30 30 30 29 27 27 28 29 29 29 29 30 30 30 32 35 38 39 36 32 29 28 28 27 28 28 28 27 27 28 28
28 28 28 28 29 28 28 28 28 28 28 28 29 30 29 28 27 28 29 29 28 28 29 30 30 32 36 39 41 42 39 32 28 28 28 28 29 29 29 28 28 29
28 28 28 28 28 28 27 26 27 28 29 29 28 28 28 29 29 29 29 30 29 29 29 30 30 32 36 40 42 44 44 39 31 27 28 29 30 31 30 30 30 30
28 29 29 28 28 28 27 27 28 29 30 29 27 28 29 30 30 29 29 30 31 30 30 30 30 31 35 40 42 43 45 44 36 28 28 30 31 32 31 30 30 30
28 28 27 26 26 27 28 29 29 29 29 28 28 28 29 29 29 30 30 30 31 31 30 30 30 32 34 38 41 42 44 45 40 31 28 29 30 32 31 30 31 31
27 27 25 25 26 27 28 29 29 29 28 28 27 27 27 28 28 29 30 30 30 30 31 31 31 32 34 36 39 41 42 45 43 35 29 29 29 31 32 31 31 32
27 27 26 27 27 28 29 30 29 28 27 27 27 26 27 27 27 28 28 28 29 30 31 31 30 32 35 36 38 40 41 45 45 37 31 31 30 30 32 32 34 35
27 27 27 27 28 28 28 27 26 26 25 25 25 26 26 26 25 25 25 26 28 30 30 30 29 30 34 36 38 40 42 46 45 37 32 33 33 32 33 34 35 36
25 25 25 26 26 26 25 24 24 24 23 23 24 24 24 24 24 24 24 25 26 27 29 30 29 30 33 36 38 40 42 46 44 37 34 36 34 32 32 33 35 37
23 24 25 25 24 24 23 23 23 22 22 23 23 23 23 23 23 23 24 24 24 25 28 30 30 30 32 35 38 40 43 46 43 36 34 34 31 30 30 31 33 35

ECMWFNIL_925_spd_054.txt.gz
Wind_Speed
33 32 31 30 29 27 27 26 25 26 25 24 24 25 25 24 23 23 24 25 25 24 23 22 22 21 19 19 17 17 18 18 17 18 18 18 16 15 14 15 15 14
35 33 32 31 30 29 29 28 26 26 26 26 25 24 25 24 24 24 25 25 25 25 24 23 23 23 22 20 20 20 19 19 18 18 19 19 18 17 16 16 16 16
36 35 34 32 31 32 31 29 28 27 26 27 26 24 24 24 25 25 25 26 26 25 24 24 24 24 24 22 22 22 21 21 21 19 20 21 20 19 18 17 17 17
38 37 36 34 32 32 32 30 29 28 26 26 27 26 24 23 24 26 26 26 26 25 25 25 24 24 25 23 23 23 22 22 23 21 21 22 21 20 19 18 18 18
41 39 37 35 33 32 32 31 31 30 29 27 27 27 26 25 24 25 27 27 26 26 26 26 26 25 25 25 24 24 23 22 23 23 22 23 23 22 21 20 20 19
40 39 37 35 34 33 32 33 33 32 31 29 27 26 27 28 26 25 26 27 27 26 26 26 27 27 27 26 26 26 24 23 23 24 24 24 24 24 22 21 21 22
38 39 38 36 34 33 33 33 33 32 31 29 28 28 28 29 29 28 26 26 27 27 27 27 28 28 28 28 28 28 27 24 23 25 26 25 25 25 24 23 23 24
39 39 39 37 35 34 34 33 32 32 31 29 29 29 29 29 29 30 29 27 27 28 29 28 29 29 29 29 30 30 29 27 25 26 27 27 26 27 26 25 24 25
39 38 38 37 35 33 34 33 32 32 33 31 30 29 30 30 29 29 30 30 29 29 30 30 30 31 31 30 31 31 31 30 28 27 29 29 28 28 28 27 26 26
39 37 36 36 34 33 33 32 31 31 32 33 32 29 29 31 30 29 30 31 31 30 30 31 31 32 32 32 32 32 32 31 30 29 30 31 30 29 29 28 28 27
39 36 35 35 34 33 32 33 31 29 30 32 33 31 29 30 31 31 30 32 33 32 31 32 32 32 33 33 32 32 33 33 31 30 30 31 32 31 30 30 29 29
38 36 35 35 35 34 33 33 32 30 30 30 31 32 31 30 31 32 32 32 33 33 33 32 33 33 33 34 33 32 32 32 32 31 31 31 32 32 31 31 31 30
38 38 36 36 37 36 34 33 33 32 31 30 30 31 31 30 30 32 33 33 33 34 34 33 34 34 34 35 34 32 31 32 31 31 31 31 31 32 32 32 32 32
39 39 38 38 38 37 36 33 33 33 33 32 31 31 31 31 30 31 32 33 34 34 34 34 34 35 35 35 35 33 32 32 32 31 31 31 31 32 32 33 33 33
38 38 38 38 37 37 37 36 34 34 34 33 32 31 31 30 30 30 30 32 33 34 34 35 35 36 37 36 37 36 34 33 34 34 32 32 32 32 32 33 33 33
37 37 36 37 37 36 37 37 36 34 34 34 34 33 31 31 31 30 30 31 32 33 34 36 36 37 39 40 40 40 38 35 34 35 34 33 33 32 33 33 34 33
35 36 35 35 36 36 36 38 37 36 35 35 35 35 33 32 32 32 32 31 31 33 34 36 37 38 40 43 44 43 41 38 35 35 35 35 34 34 34 34 34 34
34 35 35 35 36 36 36 37 37 37 36 35 35 35 34 33 33 34 34 32 31 32 33 35 37 38 40 43 45 45 44 41 37 35 35 36 36 36 35 35 34 35
33 34 34 35 36 36 35 35 36 37 37 35 34 34 35 35 35 35 35 35 34 33 34 34 35 36 39 42 45 46 46 44 39 36 37 37 38 37 37 36 36 35
33 33 33 34 34 34 33 33 34 35 35 34 33 33 35 35 35 35 35 36 36 35 34 34 34 34 36 40 43 46 47 46 42 38 38 38 39 40 39 38 38 37
32 31 31 32 32 32 32 33 33 33 33 33 32 32 34 34 34 34 34 34 36 35 33 32 33 34 35 38 42 44 47 48 46 41 38 38 38 39 40 40 40 39
31 30 30 31 31 31 32 32 32 32 31 32 31 30 31 31 32 32 32 32 32 33 34 34 33 33 35 38 40 43 45 48 49 45 39 37 37 37 39 40 40 39
30 29 29 30 30 30 32 32 31 31 30 31 31 29 28 29 30 31 31 31 31 32 35 36 34 33 34 36 38 41 45 48 50 47 42 39 38 36 36 38 39 40
29 28 29 30 30 30 30 30 29 29 29 29 30 29 28 27 27 28 29 30 32 32 34 35 34 33 34 35 35 38 43 48 49 47 43 41 39 37 35 35 37 39
28 27 28 29 29 29 28 27 27 27 27 27 28 28 27 26 26 26 27 28 30 30 31 32 32 31 33 35 36 36 40 46 48 45 42 40 37 36 36 35 36 37
27 27 27 27 27 28 27 27 26 25 25 25 25 25 25 26 26 25 25 25 26 27 28 30 30 29 30 33 34 36 38 43 44 41 40 38 35 33 34 35 35 35

ECMWFNIL_925_spd_057.txt.gz
Wind_Speed
39 38 37 36 36 35 32 33 34 32 31 31 32 31 31 31 28 28 28 28 28 27 26 24 24 24 23 22 20 19 20 22 21 20 20 19 17 16 19 20 19 17
40 39 38 36 36 35 34 33 34 35 33 32 32 31 30 30 29 28 28 29 29 28 27 26 25 25 24 23 23 21 22 23 22 22 21 21 20 18 19 21 22 20
41 40 39 38 37 37 36 34 33 35 35 32 31 31 30 29 29 29 28 29 30 29 28 28 27 26 25 24 25 23 23 24 24 23 23 23 23 21 20 21 22 23
43 42 42 41 39 39 37 34 33 33 34 34 32 32 31 30 29 29 29 29 30 30 30 30 29 28 27 26 26 26 24 25 25 24 24 24 25 24 22 21 21 23
43 43 42 41 39 38 36 35 34 33 33 34 34 32 32 32 31 31 31 31 32 31 31 31 30 29 29 29 28 28 27 26 26 25 25 25 26 26 25 23 23 23
41 41 41 40 38 37 37 37 37 35 34 34 34 34 32 32 33 33 33 33 33 33 32 32 32 31 31 31 30 30 30 30 29 28 28 27 27 28 27 26 25 25
41 41 40 39 38 38 38 38 38 37 35 34 34 35 34 33 33 34 35 34 34 34 34 33 33 33 32 32 32 32 32 32 31 30 30 29 28 29 29 28 27 27
42 42 41 40 38 38 38 39 38 38 37 35 33 34 35 35 34 34 35 36 35 34 35 35 34 34 34 34 34 34 33 33 33 33 32 31 30 30 31 30 29 29
41 41 41 40 38 38 38 38 38 38 37 36 35 35 35 36 36 35 34 35 36 35 35 35 35 35 35 35 35 35 35 34 34 34 34 33 32 32 32 32 31 31
39 39 39 39 39 38 38 38 37 37 37 37 37 36 35 35 36 36 35 34 36 37 36 36 36 37 37 37 37 37 37 36 35 35 35 35 35 35 34 34 33 33
38 38 38 39 40 39 39 38 37 36 37 38 37 36 35 35 35 36 36 36 36 37 38 38 38 38 38 38 38 38 38 38 37 36 36 36 37 36 36 36 36 36
39 39 39 40 41 40 39 39 37 36 36 37 38 36 35 35 36 36 38 38 38 38 38 39 40 39 40 40 39 39 38 38 38 38 37 37 37 37 37 37 37 38
41 41 41 41 42 41 40 38 38 37 36 37 38 37 36 36 36 37 38 39 40 40 39 39 40 40 41 41 40 39 38 38 38 38 38 37 37 38 38 38 38 39
42 43 43 42 42 41 40 39 38 38 38 37 38 38 38 38 37 38 39 39 40 41 41 40 39 41 41 40 40 39 39 39 39 39 38 38 38 38 38 39 40 40
42 42 42 42 41 41 41 40 39 39 39 38 38 39 40 40 39 38 38 39 39 39 40 40 40 41 41 41 41 41 40 40 40 40 39 39 38 38 38 39 40 40
42 41 41 41 40 41 41 41 40 40 40 40 40 40 40 40 39 38 38 38 39 38 39 41 42 42 42 42 43 42 42 40 39 40 40 40 39 38 38 39 40 40
41 41 41 41 41 41 42 42 41 40 40 40 40 39 39 39 39 39 39 38 38 39 40 41 42 43 42 43 44 44 43 41 39 40 40 40 40 39 39 39 39 40
40 40 40 41 41 41 41 42 42 40 39 39 39 39 38 38 39 40 40 38 38 39 41 41 42 44 44 44 45 45 45 44 41 40 39 40 40 40 40 40 39 39
39 39 40 40 41 41 40 40 40 40 39 39 39 39 38 38 39 40 41 40 38 38 40 42 43 44 44 45 45 46 47 46 44 41 40 40 40 41 42 41 40 38
38 39 39 39 39 40 38 38 38 40 40 39 38 37 37 38 38 39 40 41 40 39 39 41 42 43 44 45 46 47 47 48 47 43 40 39 39 40 41 40 40 39
38 38 38 38 38 38 37 37 37 38 39 39 37 37 38 39 39 39 39 40 41 40 39 39 40 42 43 44 46 46 46 47 47 44 40 38 38 39 40 40 39 39
38 37 37 37 36 36 36 37 37 37 37 38 37 36 37 38 38 38 39 39 40 39 39 38 38 38 40 42 44 44 44 45 46 45 42 39 39 39 39 39 39 39
37 37 36 36 35 35 36 36 36 36 35 36 36 36 36 36 37 38 38 38 37 38 39 39 37 35 36 38 40 41 42 43 45 45 43 42 42 40 38 38 39 40
35 36 35 35 35 35 35 34 34 34 34 34 34 35 35 35 36 35 36 36 36 36 37 37 36 34 33 32 33 37 40 43 44 44 44 43 42 39 38 38 38 39
34 35 35 34 34 34 33 32 33 32 32 32 33 33 33 33 32 31 32 33 33 34 34 34 33 33 32 31 29 30 35 40 43 42 41 40 38 37 38 39 39 38
33 33 34 34 33 32 31 31 31 31 30 31 31 31 31 30 29 29 29 29 30 31 31 31 30 29 30 30 29 27 30 34 39 41 38 35 35 35 37 37 38 37

ECMWFNIL_925_spd_060.txt.gz
Wind_Speed
40 39 39 38 36 35 36 37 36 35 35 35 34 34 33 33 31 30 28 28 28 27 27 26 24 23 23 22 21 20 20 21 22 22 21 20 19 18 19 20 18 18
40 39 39 37 36 34 34 36 37 36 36 36 36 35 34 33 32 30 29 29 29 29 28 27 26 25 24 24 23 22 21 22 23 23 22 22 20 19 19 20 20 19
40 40 39 38 38 37 36 35 36 36 36 35 35 35 34 33 32 31 30 29 30 30 30 29 28 26 26 25 25 24 23 23 24 25 24 23 22 20 19 20 21 22
40 40 40 40 39 39 37 35 35 36 35 35 35 35 34 33 32 31 31 31 30 31 31 31 30 29 27 27 27 27 26 25 25 25 26 25 24 23 21 20 21 23
40 39 39 39 39 38 36 35 36 36 36 36 36 35 34 34 33 32 32 32 32 31 31 32 32 30 29 28 29 29 29 28 27 26 27 27 26 25 24 23 22 23
39 39 39 38 37 36 36 36 37 36 37 38 37 36 35 34 34 34 33 33 33 32 32 32 33 32 31 30 30 31 31 30 30 29 29 29 28 27 26 26 26 25
40 40 39 38 36 35 36 37 37 36 37 37 37 36 35 34 34 35 34 34 34 33 33 33 33 34 33 33 33 33 33 32 32 31 30 31 30 30 29 28 28 28
40 40 40 39 37 36 36 36 36 36 36 36 36 37 37 36 36 35 35 35 35 35 34 34 34 35 35 35 35 36 35 34 33 33 33 33 32 32 32 31 30 31
39 38 38 38 38 37 37 37 36 37 36 35 35 36 37 38 37 37 36 36 36 36 36 36 36 36 36 37 37 37 37 36 36 35 35 35 35 35 34 33 33 33
38 37 37 37 38 38 38 38 38 37 36 36 35 35 36 37 38 37 37 37 36 37 37 38 38 38 38 38 39 39 38 38 37 37 37 37 37 38 37 36 36 36
39 38 38 39 39 39 39 39 38 37 37 37 36 35 35 36 37 37 38 38 39 39 39 39 40 40 39 39 40 39 39 39 39 39 39 39 39 39 39 38 38 39
39 40 40 40 40 40 39 39 38 38 37 38 38 37 36 36 37 38 39 40 41 42 41 41 41 40 40 40 40 39 39 39 39 40 40 40 40 40 40 39 39 40
40 41 41 41 41 41 40 39 39 39 39 39 40 39 38 38 38 39 40 40 42 42 42 42 42 41 41 41 40 40 40 40 40 40 41 41 41 41 40 40 40 40
41 41 41 41 41 41 41 40 40 40 40 40 40 40 41 40 40 40 40 41 42 42 42 42 41 41 41 40 41 41 40 40 40 40 40 40 40 41 41 40 40 40
40 40 40 40 39 39 40 41 41 41 40 40 40 41 41 41 41 40 40 40 41 42 42 42 41 41 42 42 42 42 41 41 41 40 40 39 39 40 40 40 40 40
39 39 39 38 39 39 40 41 41 40 40 40 40 41 41 41 41 40 40 41 41 41 42 42 42 42 43 45 45 44 43 41 40 40 39 38 38 38 38 39 40 40
38 38 37 38 38 39 39 40 40 40 39 40 40 40 40 40 40 40 41 41 41 42 42 43 43 44 45 46 47 46 44 41 39 40 39 38 38 37 38 39 40 40
37 37 37 37 37 38 38 39 39 39 39 39 39 40 39 39 40 41 41 41 41 41 42 43 45 46 46 46 47 47 46 43 41 39 39 39 39 38 38 38 37 38
37 37 37 37 37 38 38 37 37 39 39 39 39 39 38 38 40 41 42 41 41 41 42 43 45 46 47 47 47 47 47 45 43 40 39 39 39 38 37 37 37 37
37 37 37 37 37 37 37 37 38 39 39 39 38 38 38 39 40 41 42 42 42 42 42 43 44 46 46 46 47 47 46 46 45 43 40 39 38 38 37 37 38 37
37 37 37 37 37 37 38 38 39 38 38 38 37 37 38 40 40 41 42 42 42 42 42 42 44 45 44 45 47 47 46 46 45 44 41 39 39 38 38 39 39 38
36 36 36 36 37 37 38 38 38 38 38 38 37 36 37 38 39 39 40 40 40 41 41 42 43 43 43 45 45 45 45 45 44 44 43 41 41 39 38 39 39 38
37 36 36 36 36 37 37 38 38 38 38 37 37 36 37 37 38 38 38 39 39 39 40 41 42 41 41 42 43 42 42 43 44 44 43 43 42 41 40 39 39 39
37 37 37 37 36 37 37 37 38 38 37 37 38 38 38 38 38 37 37 37 37 38 39 39 39 38 37 37 38 38 39 42 43 43 42 42 42 41 40 40 40 41
38 38 38 38 37 38 38 38 38 38 38 38 38 39 38 38 37 36 36 36 37 37 37 37 36 35 34 34 34 35 37 40 42 42 40 40 40 39 39 40 40 40
38 38 39 38 38 38 37 38 38 37 37 37 37 37 36 35 36 36 35 36 36 36 36 36 35 33 32 33 33 33 34 36 39 41 40 38 38 38 38 38 37 38

ECMWFNIL_925_spd_063.txt.gz
Wind_Speed
39 38 37 36 35 35 34 33 33 33 34 35 34 34 33 31 31 31 29 27 25 24 24 24 24 23 22 21 21 21 20 19 19 19 20 21 21 21 20 20 20 21
39 38 37 36 35 34 34 34 35 34 35 36 36 35 34 32 31 31 30 28 27 25 25 25 24 24 23 22 22 21 21 21 20 20 21 22 22 22 22 21 21 21
40 39 38 37 36 36 35 35 35 35 35 35 35 35 34 33 32 31 31 29 28 27 26 26 25 25 24 24 23 23 23 23 22 21 21 23 23 23 23 22 22 22
40 39 39 39 38 37 35 34 35 35 35 34 35 35 34 33 32 31 31 30 30 29 28 27 27 26 25 25 25 25 25 24 24 22 22 23 24 24 24 23 23 23
41 40 39 39 37 35 34 34 35 35 35 35 36 35 35 34 32 32 32 31 31 31 30 29 28 28 27 27 27 27 26 26 26 25 25 25 25 25 26 25 25 24
40 40 40 39 37 35 34 35 35 35 35 36 35 35 35 34 33 33 32 32 32 32 31 31 30 29 29 29 29 29 28 28 28 27 28 28 27 27 27 27 27 27
40 40 40 39 37 36 35 36 35 34 35 34 34 34 35 34 34 34 33 33 32 33 33 32 32 31 30 30 31 31 31 30 29 29 30 30 30 29 29 29 29 29
40 40 40 39 37 36 36 36 35 35 34 33 32 33 34 35 35 35 34 33 33 34 33 33 33 33 32 32 32 32 32 32 31 31 31 32 31 32 32 31 31 31
39 39 39 38 37 37 37 36 36 35 34 33 33 33 33 34 35 35 34 34 34 34 34 34 34 34 34 33 34 34 33 33 33 33 33 33 33 34 34 33 32 33
38 37 37 37 37 37 37 37 36 36 35 34 35 34 33 34 35 34 34 34 34 35 35 36 36 36 36 35 35 35 34 35 34 34 35 35 35 35 34 33 33 34
37 36 37 37 37 37 37 37 37 36 35 35 35 35 35 35 34 34 34 34 35 36 37 37 37 37 37 37 36 36 35 36 35 36 36 36 36 36 34 33 33 34
37 37 37 38 39 38 38 38 37 36 35 35 36 36 36 36 35 35 35 35 37 37 37 38 38 37 37 37 37 36 36 36 36 36 37 37 37 36 35 34 34 35
39 39 39 39 39 39 39 38 37 37 36 37 37 37 37 37 36 36 36 37 38 38 38 38 37 37 37 37 37 37 37 37 37 37 37 37 37 36 35 35 36 37
40 40 40 39 39 38 38 37 38 38 38 38 38 37 38 38 37 37 37 38 39 39 39 38 37 37 37 38 38 38 38 38 38 38 38 38 37 37 35 34 35 36
39 38 38 38 37 37 37 37 38 38 38 38 38 38 38 38 38 37 37 37 38 39 39 38 37 38 39 39 39 39 39 39 38 38 38 38 37 36 35 35 36 36
37 37 37 37 37 37 38 38 37 37 37 37 37 37 38 38 37 37 37 37 38 38 38 38 38 40 41 42 42 41 39 38 37 38 37 37 36 35 35 36 37 38
36 36 36 36 37 38 38 38 37 37 37 37 37 37 37 37 37 37 38 38 38 38 38 38 39 41 43 43 44 42 40 39 37 37 36 35 35 35 36 37 37 37
36 35 35 36 36 37 37 37 37 37 37 37 36 37 37 36 37 37 38 39 38 38 38 39 40 42 43 44 44 43 43 41 39 36 34 34 35 36 37 37 36 37
36 36 36 36 36 37 37 37 37 37 38 37 37 37 36 36 38 38 39 39 38 39 39 40 41 42 44 44 44 44 43 42 41 38 34 34 34 35 36 37 37 36
36 36 36 36 37 38 38 37 37 38 38 38 37 36 36 38 38 38 39 39 39 39 39 40 41 42 43 43 43 44 43 42 42 40 37 36 36 36 36 37 37 36
36 35 36 36 37 37 37 37 37 37 37 37 36 37 38 38 38 38 39 39 39 39 38 39 42 42 41 41 42 42 42 41 41 40 39 39 38 38 38 38 37 36
35 36 36 36 36 36 36 37 37 37 37 37 37 37 38 38 38 38 38 38 38 38 38 40 42 41 40 40 41 40 39 39 39 40 40 40 41 40 39 39 38 37
36 36 36 36 36 36 36 37 37 37 37 37 37 36 37 37 38 38 38 38 38 38 39 40 42 40 39 40 40 38 36 37 38 39 40 41 42 41 40 40 39 38
37 37 37 37 36 36 37 37 38 37 38 38 38 37 38 38 38 38 38 38 38 39 39 40 41 40 39 39 39 37 35 36 37 38 40 40 40 40 40 40 40 39
38 38 38 37 36 37 38 38 39 38 38 38 38 38 38 37 37 36 37 37 38 38 38 39 39 39 38 39 39 37 36 36 36 37 38 38 38 38 38 38 39 39
37 38 38 37 37 38 39 39 39 38 37 36 36 36 36 35 35 35 35 35 36 36 36 37 38 38 38 38 39 38 36 36 36 37 37 37 36 36 35 36 37 38

ECMWFNIL_925_spd_066.txt.gz
Wind_Speed
36 35 35 35 33 33 32 32 31 31 31 31 31 32 32 31 29 28 27 26 25 25 24 23 22 20 20 20 21 21 20 18 17 16 15 15 15 16 17 19 19 19
37 36 36 35 34 33 33 33 33 33 33 33 33 32 32 31 30 29 28 26 26 26 25 24 23 21 20 20 20 21 20 20 19 18 17 17 16 17 18 19 19 19
37 37 36 35 35 35 34 34 33 33 33 33 33 32 32 31 31 30 29 27 26 26 26 25 24 23 22 21 21 21 21 21 20 19 18 18 18 18 18 19 19 20
38 38 37 37 37 36 34 33 32 32 32 32 33 32 31 31 31 30 30 28 27 26 27 26 25 24 23 22 21 22 22 22 21 19 19 19 19 19 19 19 21 21
38 38 38 37 36 34 33 33 33 33 33 33 33 32 31 31 31 30 30 29 29 28 28 27 26 25 25 24 23 23 23 23 22 21 21 21 21 20 20 20 21 22
37 37 38 37 35 34 34 34 34 33 33 33 32 32 31 31 30 30 30 30 30 29 29 29 28 27 27 26 25 25 24 24 23 23 23 23 22 22 22 22 23 23
37 37 37 37 36 35 35 35 34 33 33 33 32 32 32 31 31 31 31 30 30 30 30 30 30 30 29 28 27 27 26 26 25 25 25 24 24 24 24 24 25 26
37 37 37 36 36 35 35 35 34 33 33 32 32 32 32 32 32 32 32 31 30 30 30 31 31 30 30 29 29 28 28 27 27 27 26 26 26 26 26 26 27 28
37 36 37 36 36 36 36 35 34 33 33 33 32 33 33 33 33 33 32 32 31 31 31 31 31 31 30 30 30 30 29 29 28 28 28 28 28 28 28 27 28 29
36 35 36 36 36 36 36 36 35 33 33 33 33 33 33 34 33 33 33 32 32 32 32 32 32 31 31 31 31 31 30 30 29 29 29 29 29 29 29 28 29 30
36 35 35 36 36 36 36 36 35 34 33 33 33 33 33 33 33 33 32 33 33 34 34 34 33 33 32 32 32 32 31 31 31 30 30 30 30 30 30 30 30 31
36 36 36 37 37 37 37 36 35 34 34 34 34 34 34 33 33 33 33 34 35 35 35 35 34 33 33 33 33 32 32 32 32 32 32 31 31 31 31 31 31 32
37 38 38 38 38 38 38 37 36 36 35 35 35 35 35 34 34 33 33 34 35 35 35 35 34 34 34 34 33 33 33 33 33 33 32 32 32 32 32 32 33 33
40 40 40 40 39 39 38 37 37 36 36 36 35 35 36 36 35 35 34 34 35 35 35 35 34 34 34 34 34 34 34 34 34 33 32 32 32 33 33 33 34 34
40 39 39 38 37 36 36 36 36 36 36 36 36 36 36 36 35 35 34 34 34 35 34 34 34 35 35 35 35 35 35 34 34 33 32 32 32 32 32 33 34 34
38 37 36 36 35 35 35 36 36 36 36 36 36 37 36 35 34 34 34 34 34 34 33 33 34 35 36 37 36 36 35 34 33 33 32 32 31 31 32 33 33 33
36 36 35 35 36 36 36 37 37 36 35 36 36 36 35 34 34 33 34 34 34 34 34 34 35 36 37 37 37 36 35 34 33 33 32 32 32 32 33 33 33 33
36 35 35 36 36 37 37 37 36 36 36 36 36 35 35 35 34 34 35 35 34 34 35 35 36 37 37 37 37 36 35 34 34 33 32 32 32 32 33 33 33 34
36 36 36 36 37 38 37 37 36 36 36 36 36 36 36 35 35 36 36 36 36 35 36 36 37 37 38 38 37 37 36 35 34 34 33 32 32 32 33 33 33 34
36 36 36 37 37 38 37 37 37 37 37 37 36 36 35 35 36 36 37 37 37 37 37 37 38 38 38 38 37 36 35 34 35 35 34 34 33 33 34 34 34 33
36 36 36 36 37 37 36 37 37 37 37 37 36 36 36 37 37 37 37 37 37 37 37 38 39 39 38 38 38 36 34 33 34 34 35 35 35 35 35 36 35 33
36 36 35 36 36 36 35 35 36 36 37 37 36 36 36 37 37 36 36 37 37 36 36 38 40 40 39 39 38 36 33 32 33 34 35 35 36 36 37 37 36 34
36 36 36 36 35 35 35 35 36 37 37 37 35 34 35 35 36 36 36 37 36 36 37 39 41 40 39 39 38 35 33 33 33 34 35 35 36 37 37 37 36 36
37 37 37 36 35 35 36 37 37 37 37 36 35 35 36 36 36 35 36 36 36 37 38 39 40 39 38 38 37 35 34 34 34 35 35 35 35 36 36 36 36 36
36 37 36 35 35 36 37 38 37 37 37 36 35 35 36 36 35 34 34 35 36 37 37 38 39 39 38 37 36 34 34 34 34 34 34 34 34 34 35 35 35 35
35 35 36 35 36 37 38 38 37 36 35 34 34 34 34 33 33 32 33 33 34 35 36 37 38 38 38 37 36 34 34 34 34 34 33 33 32 33 33 32 32 33

ECMWFNIL_925_spd_069.txt.gz
Wind_Speed
31 30 30 28 28 27 27 30 31 30 29 28 27 29 30 30 29 27 26 25 24 23 22 21 19 18 17 16 15 12 11 11 12 12 10 10 10 10 12 13 13 13
32 31 31 28 28 30 31 31 32 32 32 31 30 29 30 30 29 27 26 26 25 24 23 22 20 19 19 17 16 13 10 9 11 11 11 10 11 11 11 13 13 14
32 31 32 30 29 32 31 29 31 33 31 31 31 30 30 29 28 28 27 26 25 25 24 23 21 21 20 19 18 15 11 9 11 12 11 11 11 11 11 12 12 13
33 32 32 30 29 29 28 27 30 31 30 30 31 31 30 29 28 27 27 26 26 25 25 24 23 22 21 20 18 15 11 10 11 11 11 11 11 11 11 11 13 14
35 33 32 30 27 26 27 28 29 30 31 31 31 31 30 30 28 27 27 26 26 26 26 26 24 23 22 20 18 14 11 11 11 10 11 12 12 12 11 11 14 15
34 34 33 31 28 27 30 31 31 30 31 31 31 31 31 30 29 28 27 27 26 25 25 25 25 25 24 22 19 15 11 12 12 11 12 14 14 14 12 12 15 17
34 34 34 31 28 29 31 31 31 32 32 30 31 32 31 30 30 29 28 27 26 25 24 25 25 25 25 23 21 17 13 12 12 12 13 14 14 15 14 13 13 15
33 33 33 31 28 29 30 30 30 32 33 31 31 31 32 31 30 30 29 28 27 26 26 25 25 25 25 24 23 21 17 14 13 13 13 14 15 15 15 14 13 13
31 30 31 31 29 29 29 29 29 30 32 33 31 29 30 32 31 30 30 29 28 27 27 26 25 25 25 24 24 24 22 20 18 17 16 16 17 17 17 16 15 14
30 30 29 30 30 29 28 28 27 26 30 33 31 27 27 31 32 30 30 29 28 28 28 28 27 26 25 25 25 25 24 23 22 22 20 20 21 21 19 18 17 17
30 30 29 30 30 29 28 28 26 24 27 31 30 27 26 29 31 31 30 30 29 29 29 29 28 28 27 26 25 25 25 24 23 24 24 24 25 24 23 21 21 20
31 30 30 31 31 30 28 28 27 25 25 28 29 28 26 26 28 30 31 31 31 30 30 30 29 29 29 28 26 25 25 25 24 25 26 26 26 25 24 24 24 23
32 32 32 31 31 31 28 27 27 26 26 27 28 28 27 26 26 27 30 32 32 31 31 31 30 30 30 29 28 27 27 27 26 26 26 26 27 25 23 23 23 23
35 34 33 31 31 32 31 28 28 28 28 28 29 28 28 27 25 25 28 30 31 31 30 30 30 31 30 30 30 29 28 28 27 27 25 25 25 25 24 23 23 21
38 35 33 32 32 34 35 31 29 29 29 29 30 31 29 27 26 24 25 26 27 28 29 28 29 30 31 31 30 30 29 27 26 26 25 24 24 24 23 24 24 22
40 38 35 33 33 36 37 34 31 29 30 30 31 32 30 27 26 25 23 24 25 26 27 27 28 31 32 32 31 30 29 26 24 26 26 25 24 23 23 24 23 22
39 37 35 33 34 35 35 36 34 31 31 32 32 32 30 28 27 26 25 24 23 24 25 25 29 32 34 34 33 32 29 26 23 24 25 26 25 24 24 23 22 22
35 34 33 33 34 34 35 37 36 34 33 33 32 31 30 28 27 27 27 26 24 23 24 25 28 32 34 34 34 33 32 28 24 21 21 23 23 23 24 23 22 21
33 33 33 33 34 36 36 36 36 34 33 32 31 31 30 29 28 27 27 27 25 25 25 25 26 29 33 35 34 33 32 31 28 23 21 22 22 23 23 23 22 21
33 33 33 33 35 36 35 34 34 33 32 31 30 29 28 28 28 27 27 28 27 27 27 26 26 29 32 33 34 33 32 31 30 27 24 23 23 23 23 24 23 22
33 33 32 32 34 35 34 32 32 31 31 30 28 27 27 28 29 28 28 28 28 28 27 26 28 30 32 33 33 33 31 31 31 30 28 26 25 25 25 25 25 24
33 32 31 31 31 32 31 30 29 29 30 30 28 26 25 26 27 28 27 27 28 28 26 26 28 30 33 34 34 32 31 30 31 32 31 29 27 27 27 27 27 26
31 31 30 30 29 29 29 28 28 29 29 29 27 25 23 23 25 26 26 26 27 27 26 27 28 30 33 34 33 32 31 31 32 32 32 30 29 29 29 28 29 29
30 30 30 29 29 28 28 28 28 28 28 28 27 26 25 24 24 24 24 25 26 26 27 27 28 29 32 34 33 32 31 31 32 32 30 29 29 30 31 31 31 32
30 31 31 30 29 29 29 28 28 28 28 27 26 26 25 24 23 23 23 24 25 26 28 29 28 27 30 32 33 33 32 32 32 30 27 27 27 27 29 30 32 33
30 30 31 30 29 30 30 30 29 28 26 25 24 24 24 23 23 23 22 23 23 24 26 28 28 26 28 30 32 32 32 32 32 29 26 25 25 25 25 26 27 28

ECMWFNIL_925_spd_072.txt.gz
Wind_Speed
25 23 22 21 21 19 19 18 17 18 18 17 16 15 15 15 15 15 14 14 13 14 14 13 13 13 11 10 10 9 8 8 8 8 8 8 7 6 6 6 6 6
26 24 22 21 21 19 19 19 18 18 18 18 17 15 14 15 15 15 15 15 14 14 14 14 14 13 12 11 10 10 9 8 8 8 9 9 8 7 7 7 7 7
27 25 24 23 21 21 21 20 19 18 18 17 17 16 15 15 15 15 16 15 14 14 14 14 14 14 13 12 11 11 10 9 8 9 9 9 9 8 8 8 8 8
28 27 26 24 22 21 20 20 19 19 18 17 17 17 16 15 15 15 15 15 15 14 14 14 14 14 14 13 13 12 11 10 9 9 9 9 9 10 9 8 8 8
29 28 26 25 23 22 20 20 20 19 19 19 18 17 17 16 16 15 15 15 15 15 14 14 14 14 14 14 13 12 12 11 10 10 10 10 10 10 10 9 9 9
29 28 27 26 25 24 22 21 21 20 19 20 19 18 18 18 18 17 16 15 15 15 15 15 15 14 14 14 14 13 12 11 11 11 11 11 11 11 10 10 10 10
29 28 28 27 25 24 23 21 21 21 20 19 19 19 18 18 18 18 18 17 16 15 15 15 15 15 14 14 14 14 13 12 11 11 12 12 11 11 11 11 11 11
29 28 28 27 26 25 24 22 21 21 20 19 19 19 19 19 19 18 19 18 17 16 16 15 15 15 15 14 14 14 14 13 12 13 13 13 12 12 12 12 11 11
29 28 28 28 27 25 24 23 22 22 21 21 20 20 19 20 19 19 18 19 18 17 17 16 16 16 16 15 15 15 15 14 13 14 14 14 14 13 13 13 12 12
30 29 28 28 27 26 26 25 23 22 22 22 22 21 20 20 20 19 19 19 19 18 18 18 17 17 17 16 16 16 16 15 14 14 14 14 14 14 13 13 13 13
30 29 29 29 28 27 27 26 25 23 22 23 23 22 21 20 20 20 20 20 20 19 19 19 19 18 18 17 17 16 16 15 15 15 15 15 15 14 14 14 14 13
31 30 29 29 29 28 27 26 25 24 23 23 23 23 22 21 20 20 21 21 21 20 20 20 19 19 19 18 18 17 16 15 15 15 15 15 15 15 15 15 15 14
31 31 30 29 29 28 27 26 26 25 24 23 23 23 23 22 22 21 21 22 22 21 21 20 19 19 19 19 19 18 17 16 16 16 15 15 15 15 15 15 15 15
32 30 30 29 28 27 26 25 26 26 25 24 23 23 23 23 23 22 21 21 22 22 21 20 20 19 19 19 19 19 18 17 17 16 16 15 15 15 15 15 15 15
31 30 29 28 27 27 26 26 25 25 25 24 23 23 23 23 23 22 21 21 21 21 21 20 20 20 20 21 20 19 19 18 18 17 16 16 15 15 15 15 16 16
30 29 28 28 28 27 27 26 25 25 25 25 24 23 23 22 22 22 22 21 20 20 20 20 21 21 22 24 23 21 19 18 17 17 16 16 15 15 15 15 16 15
29 28 28 28 28 27 27 27 26 25 25 25 24 23 22 22 22 22 22 21 20 20 20 20 21 21 24 27 27 25 21 17 16 16 16 16 16 16 16 16 15 15
29 28 28 28 28 27 27 27 26 25 25 25 24 23 22 21 21 22 22 21 20 20 20 20 20 22 25 28 28 28 26 21 17 15 15 16 16 17 16 15 15 15
28 28 28 28 28 27 26 26 26 26 25 25 24 23 22 21 21 21 21 21 21 20 20 20 20 21 25 28 28 29 29 26 21 17 16 16 16 16 16 16 15 15
28 28 28 27 27 26 26 26 27 27 26 24 23 22 22 22 22 21 21 22 22 21 21 21 20 21 24 27 28 28 28 27 24 20 18 18 17 17 16 16 16 15
28 28 27 27 26 26 26 26 26 26 25 24 23 22 22 22 22 22 22 22 22 22 22 22 22 23 24 25 26 26 26 26 25 22 20 19 19 19 18 17 17 16
29 28 28 27 27 27 27 27 26 25 25 24 22 22 21 21 21 22 22 22 23 23 23 23 23 24 26 27 27 26 24 25 25 23 21 21 20 19 20 19 18 18
29 28 27 27 26 27 27 26 25 25 24 24 23 22 22 21 21 22 23 24 24 24 24 24 23 24 27 28 29 28 26 25 24 22 21 21 21 20 20 19 20 20
28 28 27 27 26 26 26 26 25 25 25 24 24 24 23 22 22 22 22 23 24 24 24 23 23 24 26 28 29 29 28 27 24 21 20 21 20 20 20 20 20 22
27 27 27 27 27 26 26 25 25 24 24 23 23 23 23 22 22 21 21 22 22 23 24 25 24 23 26 29 29 30 30 29 24 21 21 21 20 20 19 19 20 21
26 27 27 27 26 26 25 24 24 23 22 22 22 22 21 21 22 21 21 21 21 21 23 25 25 24 25 28 29 30 31 30 26 22 21 20 19 19 18 18 19 19

ECMWFNIL_925_spd_075.txt.gz
Wind_Speed
24 23 23 23 22 20 20 20 19 19 18 17 17 16 16 16 16 16 15 15 14 14 13 12 11 10 9 8 8 7 6 7 7 7 7 7 7 6 6 6 5 4
25 24 24 23 22 21 20 20 19 19 19 18 17 16 16 16 17 17 16 15 15 15 14 14 13 12 11 10 9 9 8 8 8 7 7 8 8 7 7 7 6 6
26 26 25 24 23 22 21 20 20 19 18 19 18 17 16 17 17 17 17 17 16 15 15 15 14 13 12 11 10 10 9 9 8 8 8 8 9 9 8 7 7 7
28 27 26 25 24 23 22 20 20 20 19 19 19 18 18 17 17 18 18 18 17 16 15 15 15 14 13 13 12 11 10 10 9 8 8 8 9 9 9 8 8 7
30 29 27 26 24 22 22 21 21 20 20 19 19 19 19 18 18 18 18 18 18 17 17 16 16 15 15 14 14 13 12 11 10 9 9 9 9 9 9 9 8 8
31 30 28 26 25 23 22 22 21 21 21 20 19 19 20 19 19 19 19 19 18 18 17 17 17 16 16 15 15 14 13 12 12 11 11 10 10 10 9 9 9 9
31 31 29 27 25 24 23 22 22 22 21 21 21 20 20 20 20 20 19 19 19 18 18 18 18 17 17 16 16 15 14 13 12 13 13 11 11 11 11 10 10 10
32 31 30 28 26 25 24 23 23 23 22 21 21 21 20 20 21 21 20 20 19 19 18 18 18 18 18 17 17 16 16 15 14 14 14 13 12 12 12 11 11 11
32 31 30 29 27 26 26 25 24 23 23 22 22 22 21 21 21 21 21 21 20 19 19 19 18 19 18 18 18 17 17 16 15 15 16 15 14 13 13 12 12 12
32 31 31 30 29 27 27 26 25 24 24 24 23 22 22 22 21 21 21 22 21 20 20 20 19 19 19 18 18 18 18 18 17 17 17 17 16 15 14 14 13 14
33 32 32 31 31 29 28 28 26 25 25 25 25 24 23 23 22 22 22 22 22 21 21 21 21 20 20 19 18 18 18 18 18 18 17 17 17 17 16 15 15 15
34 33 33 33 32 30 29 28 28 26 25 25 25 25 24 23 23 23 23 23 22 22 22 22 21 21 21 20 19 19 19 19 18 18 18 18 18 17 17 17 16 16
35 35 34 33 33 31 29 28 28 27 26 25 25 25 25 24 24 24 24 24 23 23 23 23 22 22 21 21 21 20 20 19 19 19 19 18 18 18 18 17 17 17
36 35 34 33 32 31 29 28 28 28 27 26 25 25 26 25 25 24 24 24 24 24 23 23 23 22 22 22 22 21 20 20 20 20 19 19 18 18 18 18 18 18
34 33 32 32 31 31 30 28 28 28 27 26 25 25 25 25 25 24 24 23 24 24 24 23 23 23 23 23 23 22 22 21 21 20 20 19 18 18 18 18 18 18
32 31 31 32 31 31 31 29 28 28 28 27 26 25 25 25 25 25 24 24 24 24 24 24 24 23 25 27 26 25 23 22 22 21 21 20 19 18 18 18 18 19
31 31 31 32 31 30 31 30 28 28 28 28 27 26 25 25 25 25 25 24 24 24 24 24 24 24 27 30 30 28 25 22 22 22 21 21 20 19 19 19 19 19
31 31 31 31 31 30 30 30 29 28 28 28 27 26 25 24 25 25 25 24 24 24 24 24 23 25 28 31 32 31 28 24 21 21 21 20 21 21 20 19 19 19
31 31 31 31 31 31 30 30 29 28 28 28 27 26 25 24 25 25 25 24 23 23 24 23 23 24 28 31 32 33 32 27 22 20 21 20 20 21 20 20 19 19
30 30 30 31 31 30 29 29 30 29 27 26 26 25 24 24 24 24 25 25 24 23 23 23 23 24 27 30 31 32 33 32 25 19 19 20 19 20 20 20 20 19
31 30 29 30 30 30 29 29 29 28 27 26 25 25 24 24 24 24 24 25 25 24 23 22 22 24 26 28 30 30 31 33 29 21 18 18 19 19 19 19 20 20
32 31 30 29 29 29 29 29 29 28 27 25 24 24 24 23 23 24 24 24 25 25 24 23 23 24 25 26 28 28 28 30 30 24 20 19 19 19 20 20 19 20
32 31 30 29 29 29 28 28 28 27 27 25 24 24 24 23 23 23 23 24 24 25 25 25 24 25 27 27 27 27 27 29 28 24 21 21 20 20 20 20 21 21
31 30 29 29 29 29 28 28 27 26 26 25 24 24 24 24 23 23 23 24 25 26 26 25 25 27 29 30 30 29 29 30 28 23 21 21 21 21 21 21 22 24
30 30 30 29 29 29 28 27 27 26 25 25 24 24 24 24 23 23 23 24 24 25 27 26 25 27 29 31 32 32 32 31 27 23 21 21 20 20 21 21 22 24
29 30 30 29 29 28 27 26 26 25 24 24 24 23 23 23 24 23 23 24 23 24 26 26 25 25 28 31 32 33 34 33 28 23 21 21 20 20 20 21 22 23

ECMWFNIL_925_spd_078.txt.gz
Wind_Speed
32 31 29 27 26 25 23 23 23 23 23 21 21 22 21 20 18 17 18 17 16 15 14 13 13 12 11 10 10 9 7 6 7 6 6 6 5 5 5 6 5 6
32 31 30 28 27 26 24 24 23 24 24 23 21 21 21 21 20 19 18 19 18 16 16 14 14 13 12 11 10 10 9 8 7 7 6 6 6 6 5 6 6 6
33 32 31 29 27 27 26 24 24 24 24 24 22 21 20 21 21 21 20 20 19 17 17 16 14 14 13 12 11 10 10 9 8 8 7 7 7 6 6 6 7 7
35 33 32 29 27 28 27 25 25 25 24 24 23 22 20 20 21 22 22 21 21 19 18 17 16 15 14 13 13 12 11 10 10 9 8 8 8 8 7 7 7 8
36 34 32 30 28 27 28 26 25 25 24 24 25 23 21 21 22 23 23 23 22 21 20 19 18 17 16 15 14 14 12 11 11 11 10 9 9 9 9 8 8 8
36 34 33 31 29 28 28 27 26 26 26 24 25 25 23 23 23 24 24 24 23 22 21 20 19 18 17 17 16 16 14 13 12 12 12 11 10 10 9 9 10 10
36 36 34 31 30 29 28 28 27 27 27 26 25 26 25 24 25 25 24 24 24 23 22 21 21 20 19 18 18 18 16 15 13 14 14 13 12 11 11 10 10 11
36 36 35 32 30 29 28 28 28 28 28 27 26 26 26 26 26 25 26 26 25 24 24 23 23 22 20 20 20 20 19 17 15 15 15 15 14 13 13 12 11 12
35 34 34 33 31 30 29 29 28 29 29 28 27 26 27 28 27 26 26 27 26 25 25 24 24 24 23 21 22 21 21 19 17 17 17 16 16 15 14 14 13 13
35 34 34 33 32 31 30 29 28 28 29 29 28 26 27 28 29 28 27 28 28 26 27 26 25 26 25 23 23 23 22 21 19 18 19 18 18 17 16 15 15 15
36 34 34 35 33 31 31 31 29 28 29 29 28 27 28 28 29 29 29 29 29 27 28 28 26 27 27 25 24 24 23 22 21 20 20 20 19 18 17 17 17 17
37 36 35 36 34 32 32 31 30 29 29 30 29 28 28 28 29 30 30 31 31 28 28 29 28 27 28 27 25 24 24 23 21 21 21 21 21 20 19 19 19 19
38 37 36 36 35 33 32 32 31 30 29 30 30 30 29 28 28 29 29 31 32 30 29 30 30 29 29 29 27 25 25 24 22 22 22 22 22 21 20 20 20 20
39 37 36 36 35 34 32 32 31 31 30 31 31 30 30 29 28 29 29 29 31 31 30 30 31 31 30 30 29 27 25 25 24 23 23 23 22 22 21 21 21 21
37 36 36 36 36 36 34 32 32 32 31 32 32 31 31 30 29 29 29 28 29 31 30 30 31 32 31 31 31 29 27 26 26 25 24 23 23 23 22 22 22 21
36 35 35 36 36 37 36 34 33 32 31 31 32 32 31 31 31 30 29 29 28 30 30 29 30 31 32 33 33 32 30 27 26 27 26 25 24 24 23 23 22 22
35 34 34 36 36 37 37 35 34 33 32 31 32 32 31 31 31 30 30 29 28 29 29 29 29 30 32 34 35 34 33 30 27 27 27 26 25 25 24 24 23 22
35 34 34 35 36 37 38 36 34 34 33 32 31 33 32 30 30 31 30 29 29 28 28 29 28 28 31 34 35 35 34 32 29 27 27 27 27 26 25 25 24 23
34 34 34 35 36 37 37 37 35 33 34 33 31 32 32 31 30 31 30 29 29 29 29 28 28 28 30 33 35 36 35 33 30 27 26 26 26 26 26 25 25 25
34 34 34 34 35 35 35 36 36 33 33 33 31 30 32 31 29 29 30 29 29 30 30 28 27 28 30 32 34 35 36 35 32 27 25 25 25 26 26 26 26 26
34 34 34 34 34 34 34 35 35 34 32 32 31 30 30 31 29 28 29 29 28 28 29 28 27 27 29 31 33 34 35 36 34 29 24 23 24 25 26 26 26 26
33 33 33 33 33 33 33 34 35 34 32 31 31 29 28 28 29 27 27 28 28 27 26 26 26 27 29 31 32 33 33 35 36 33 27 23 21 23 25 26 26 26
33 33 33 33 33 33 33 34 34 34 33 31 30 28 27 27 28 27 27 27 27 28 27 25 25 26 28 30 32 33 33 34 35 35 32 28 24 21 21 23 25 26
33 33 33 32 33 33 32 32 33 34 33 32 31 28 27 27 27 27 27 26 27 28 28 27 25 25 26 28 30 33 33 33 35 34 31 30 29 26 24 23 23 26
33 33 33 32 32 33 32 31 33 34 33 32 31 29 27 27 26 26 26 26 26 27 28 29 28 27 27 27 29 31 32 33 34 33 30 29 29 30 30 29 28 28
34 34 33 32 32 32 32 32 31 32 32 32 31 30 28 27 26 26 25 26 26 26 28 30 30 30 31 31 32 32 33 34 34 33 31 29 29 29 29 30 31 32

ECMWFNIL_925_spd_081.txt.gz
Wind_Speed
40 38 38 37 35 34 33 33 32 30 28 27 27 26 24 22 22 23 23 22 21 20 18 17 15 15 15 12 11 14 14 11 10 9 9 9 9 9 9 8 8 8
40 39 38 37 36 35 34 34 33 33 32 31 30 28 26 23 23 24 24 23 22 22 20 19 18 18 16 16 15 15 15 13 12 11 10 10 10 9 8 7 8 8
40 39 38 38 37 36 35 33 33 34 33 32 32 31 29 27 25 25 25 26 23 23 23 21 20 20 19 18 17 17 17 16 14 13 11 10 10 11 10 9 8 8
41 40 40 39 39 38 36 34 33 34 33 33 32 32 31 30 28 27 26 27 26 23 23 23 22 21 20 19 18 17 17 17 16 15 13 11 11 12 12 11 9 9
42 41 41 40 39 38 37 35 34 34 34 34 33 32 31 31 30 29 28 28 28 26 24 24 23 22 21 20 19 17 17 17 16 16 15 13 13 13 12 12 11 9
41 41 41 40 39 38 38 37 36 35 35 34 34 33 32 31 31 31 31 30 30 29 27 25 25 24 22 21 21 19 18 17 16 16 17 15 14 14 13 13 13 12
40 41 41 40 39 39 39 39 37 36 35 35 35 34 33 32 32 32 32 32 31 30 29 27 27 26 24 23 23 22 21 19 18 17 17 17 17 16 15 13 13 14
40 40 41 40 39 39 39 39 38 37 36 35 35 36 35 34 34 34 34 34 33 32 31 30 29 28 27 25 25 24 24 22 21 19 19 19 19 18 16 14 14 14
39 40 40 40 39 39 39 39 39 38 37 36 36 36 37 36 35 35 36 36 35 34 32 31 31 30 29 28 27 26 26 25 24 22 21 20 20 19 18 18 17 15
39 40 40 40 40 39 39 39 39 38 37 37 36 36 37 37 36 36 37 37 36 35 34 33 32 31 31 30 29 28 27 27 26 25 23 22 21 20 19 19 19 19
40 40 40 40 40 39 39 38 37 37 37 37 37 36 36 38 36 35 37 38 37 36 35 35 34 33 33 32 31 29 28 27 27 27 26 25 23 22 21 20 20 21
41 41 41 41 41 39 38 38 37 37 37 37 37 36 36 37 37 36 37 38 38 37 36 36 35 35 34 33 32 30 29 28 28 27 27 26 25 24 23 22 21 21
41 42 42 42 42 40 39 38 37 37 37 37 37 37 36 36 38 37 37 38 38 37 37 37 36 36 36 35 33 31 30 29 28 28 27 26 26 26 25 24 23 22
42 42 42 42 42 41 39 38 38 37 37 37 37 38 37 36 37 39 38 37 37 37 37 37 37 36 36 36 35 33 31 30 29 29 28 28 27 27 27 26 25 24
41 41 41 40 41 41 40 39 39 38 37 37 38 38 37 36 36 38 38 37 37 37 37 37 37 37 37 37 36 35 33 32 31 30 29 29 28 28 27 27 26 25
39 40 40 39 40 41 40 40 39 38 37 37 38 39 38 36 36 37 38 38 37 37 37 37 37 38 38 38 37 37 35 33 32 32 31 30 29 29 28 27 27 26
38 39 39 39 40 41 40 39 39 39 38 38 39 39 39 37 35 36 37 37 37 38 37 37 37 38 39 39 38 38 37 35 33 33 33 32 30 29 29 29 28 27
39 39 39 39 39 40 41 40 39 39 38 37 38 40 40 38 36 36 37 37 36 37 38 37 38 38 39 40 40 39 38 37 35 33 33 33 32 31 30 30 29 28
39 40 40 40 39 40 41 40 38 38 38 38 38 39 40 39 37 35 36 37 36 36 37 38 38 38 38 39 40 40 40 38 36 34 32 33 33 33 32 31 30 29
39 40 40 40 40 39 40 40 39 38 38 37 37 38 39 40 38 35 34 37 38 37 37 38 38 38 38 38 39 40 40 40 38 35 33 32 32 33 33 32 31 30
39 40 40 39 39 39 39 40 40 39 38 36 35 36 38 40 40 38 35 36 38 38 37 37 37 38 38 38 38 39 39 40 39 36 33 31 31 31 32 32 32 31
40 39 39 39 39 38 38 40 40 39 38 37 35 35 37 38 39 39 37 35 36 37 37 36 36 37 38 38 37 37 38 39 39 37 34 32 31 31 31 31 32 32
40 40 39 39 39 38 38 39 40 40 39 37 35 33 34 36 38 38 37 36 35 36 37 37 36 36 37 38 37 37 36 37 39 39 36 34 32 31 30 30 31 32
40 40 39 39 39 39 39 38 39 40 39 38 36 34 33 35 37 37 37 37 36 35 35 36 36 36 37 36 36 37 37 37 39 39 38 37 35 33 31 29 28 29
39 40 40 40 40 40 39 38 39 39 39 38 37 35 33 33 35 35 35 36 37 36 34 34 34 36 37 37 36 36 37 39 39 39 37 37 36 36 35 33 31 28
39 40 40 40 40 40 38 37 37 37 38 38 37 36 33 32 33 34 34 34 35 36 35 35 33 33 34 36 36 36 38 39 40 39 38 37 36 36 36 37 37 35

ECMWFNIL_925_spd_084.txt.gz
Wind_Speed
41 39 38 37 37 38 37 36 35 34 32 31 31 30 29 28 28 27 27 26 24 23 21 20 20 19 17 16 15 17 18 16 12 11 12 13 13 15 15 12 10 9
42 40 38 37 38 39 39 38 36 35 34 32 31 30 30 29 28 28 28 27 26 25 23 21 21 20 19 18 16 16 19 19 14 12 13 13 14 15 15 13 11 10
43 41 39 38 39 40 40 39 38 36 34 33 32 31 30 30 29 28 28 28 27 26 25 24 23 22 21 21 18 16 19 21 17 14 13 13 13 15 16 14 13 12
43 43 42 41 40 41 42 41 39 38 35 33 32 32 30 30 29 29 28 28 28 27 26 26 25 24 24 23 22 19 19 21 19 16 16 15 13 15 16 16 15 13
44 44 43 42 41 40 41 41 41 40 38 35 33 33 32 31 30 30 29 28 28 28 27 27 27 26 26 25 25 24 22 22 21 19 18 18 16 16 17 17 17 16
43 43 43 42 41 40 40 41 42 41 40 39 37 35 34 33 32 31 30 29 29 29 29 29 28 28 28 27 27 27 26 25 25 23 21 20 19 18 17 17 18 18
42 42 42 41 41 40 40 41 42 41 41 41 39 38 37 35 34 34 33 32 31 31 31 31 30 30 30 30 29 29 28 27 27 26 25 23 22 20 18 18 18 19
42 42 42 41 40 39 40 40 40 40 41 40 39 39 39 38 37 36 35 34 33 33 34 33 32 32 32 31 30 30 29 28 27 27 26 25 24 22 20 19 19 20
42 42 42 41 40 39 39 40 40 39 39 39 39 39 39 39 39 38 38 37 36 35 35 35 34 33 33 32 32 31 30 29 27 26 26 25 25 25 24 22 20 20
41 41 41 41 40 40 39 39 39 39 38 38 39 39 38 39 39 39 38 38 37 36 35 36 36 35 34 33 33 32 32 31 29 28 27 26 25 26 25 24 23 22
42 41 41 41 41 40 40 40 39 38 37 37 38 38 38 38 38 38 38 38 37 37 36 36 36 36 35 34 34 33 33 32 32 30 29 27 26 25 25 24 23 23
41 41 41 42 42 41 41 40 39 38 37 37 38 38 37 37 38 38 38 38 38 38 37 37 37 37 37 36 35 34 34 33 33 32 31 30 28 27 25 25 24 23
41 41 41 41 42 42 41 40 39 38 38 38 38 38 38 37 37 38 38 38 39 39 39 39 38 37 37 36 35 34 34 34 33 33 32 31 30 29 27 26 25 24
40 40 40 40 40 40 40 39 39 39 39 38 38 38 38 38 38 38 38 38 38 39 40 40 39 38 38 37 36 35 34 34 34 33 33 32 32 31 30 29 28 27
39 38 38 39 39 39 39 39 39 38 38 38 38 39 39 39 38 38 38 38 38 38 39 40 39 39 39 38 37 36 34 34 34 34 33 33 32 32 31 31 30 29
37 37 37 37 38 38 39 39 38 38 38 38 39 39 39 38 38 37 37 38 38 38 38 39 39 39 40 40 39 38 36 35 34 35 34 33 32 32 32 32 31 30
36 36 36 37 37 38 38 39 38 38 37 37 38 39 39 38 37 37 37 37 38 38 38 38 39 40 41 41 41 39 38 36 35 35 34 34 33 32 32 32 32 31
36 36 36 37 37 38 38 38 38 38 37 37 37 38 38 38 37 37 37 37 37 37 38 38 39 41 42 42 42 41 39 38 36 35 34 34 34 33 33 33 32 32
37 37 37 37 38 38 38 38 38 38 38 38 37 37 37 37 38 38 37 37 37 37 37 38 40 42 43 42 42 41 41 39 37 36 35 34 34 34 34 33 33 32
38 38 38 38 38 38 37 37 38 38 39 38 37 36 36 37 38 38 38 38 37 37 38 38 40 42 43 43 43 42 41 41 39 37 35 35 35 34 34 34 34 33
38 38 38 38 38 37 37 37 38 38 39 38 37 36 37 37 38 38 39 39 38 38 38 38 40 42 42 42 43 42 41 41 40 38 36 34 34 34 34 35 35 34
38 38 37 37 37 37 37 38 38 38 38 38 37 36 36 37 37 38 38 39 38 38 37 38 40 42 43 43 43 42 41 40 40 40 37 35 35 35 35 36 35 35
38 38 37 37 37 37 38 38 38 38 38 37 37 36 35 36 36 37 38 38 38 38 38 38 40 41 43 43 43 42 41 40 40 40 38 37 37 37 37 37 37 36
38 38 37 37 37 38 38 38 37 37 37 37 37 36 36 35 35 36 36 38 39 39 39 39 39 40 42 43 43 43 42 41 40 39 38 38 39 38 38 38 38 38
38 39 38 38 39 40 39 38 38 37 37 37 37 36 36 35 34 34 35 37 38 39 40 40 39 39 40 42 42 42 42 42 41 39 38 38 39 38 37 37 38 39
38 39 40 40 40 40 39 38 38 37 36 37 37 36 35 34 34 34 35 35 37 38 39 40 40 39 39 41 42 42 42 42 41 39 38 39 39 38 36 35 36 37

ECMWFNIL_925_spd_087.txt.gz
Wind_Speed
39 39 39 38 37 35 34 33 32 30 29 29 29 27 25 23 22 22 22 21 20 19 19 17 16 17 17 15 14 13 13 14 14 13 12 12 13 13 14 13 12 10
40 40 40 38 37 36 34 33 33 32 31 30 29 27 26 24 23 23 22 22 21 21 20 19 18 18 19 18 16 15 14 14 15 14 13 13 13 14 14 14 12 11
41 41 40 39 39 37 35 34 33 33 32 31 30 28 27 26 25 24 23 23 23 22 21 20 19 19 20 20 18 17 15 15 15 15 14 13 13 14 14 13 13 12
41 41 41 41 40 39 37 35 34 34 34 34 33 30 28 27 27 26 25 24 24 23 23 22 21 20 21 21 20 19 17 16 16 16 16 14 12 13 13 13 13 13
43 42 42 42 41 39 37 35 35 36 36 36 35 33 31 30 29 28 27 27 26 25 24 24 23 21 21 22 21 20 20 19 17 16 18 16 13 13 13 12 14 14
42 42 42 41 40 39 37 36 37 37 37 38 37 36 34 32 31 30 29 29 28 27 26 25 25 24 23 23 23 23 22 21 19 17 19 19 17 15 14 13 14 15
40 41 41 40 38 38 37 38 37 36 37 38 38 37 36 34 33 32 31 30 29 29 27 27 26 26 25 25 25 25 25 23 21 19 20 21 19 18 17 16 16 16
40 40 40 40 38 37 37 38 37 37 36 36 36 37 36 35 34 33 32 31 31 30 29 28 27 27 26 26 27 27 27 26 24 22 22 22 22 21 20 19 19 18
40 39 39 39 39 38 38 38 38 37 36 35 35 35 35 35 35 34 33 32 31 31 30 29 29 28 27 27 28 29 29 29 27 26 25 25 25 25 24 22 21 21
39 38 38 38 38 38 39 39 38 37 37 36 35 34 33 34 34 33 33 32 32 32 31 31 30 30 29 29 29 30 30 31 30 29 28 28 28 28 27 26 24 24
38 38 37 37 38 38 39 39 38 37 36 36 36 35 34 33 33 33 32 32 33 33 32 32 31 31 30 30 30 31 31 31 31 30 30 30 29 29 28 27 26 26
38 38 38 38 38 38 38 38 37 36 36 35 36 35 35 34 33 33 33 33 33 33 33 32 32 32 32 31 31 31 31 31 31 30 30 30 29 29 28 27 26 27
39 39 39 38 39 38 38 37 37 37 36 36 35 35 35 34 34 33 33 34 34 34 34 34 33 32 32 32 32 31 32 32 31 31 30 30 30 30 29 28 28 27
39 39 39 39 38 38 37 37 36 36 36 36 35 34 34 34 34 34 33 33 34 34 35 34 34 33 32 32 32 32 32 32 32 31 31 30 30 30 30 30 29 29
38 38 38 37 37 37 37 37 36 36 36 36 35 35 35 34 34 33 33 33 33 34 34 34 34 34 34 33 33 33 32 33 33 32 32 31 31 31 31 31 31 31
37 37 36 36 36 36 36 36 36 36 35 35 35 35 35 34 33 33 33 32 32 33 33 33 34 34 35 35 34 34 34 33 33 33 32 32 32 31 32 32 32 32
36 36 36 36 36 36 36 36 36 36 36 35 35 35 35 34 33 32 33 32 32 32 32 33 33 35 36 36 36 36 35 34 33 33 32 32 32 32 32 33 33 33
36 36 36 36 36 36 36 36 36 35 36 35 35 35 35 34 34 33 33 33 32 32 32 33 34 35 36 36 37 37 36 35 34 33 32 32 32 32 33 33 33 33
36 35 35 36 36 37 36 36 36 36 36 36 36 35 35 34 35 35 34 33 33 32 33 33 34 36 37 37 37 38 37 36 35 34 33 33 33 33 33 33 33 33
35 35 36 36 36 36 36 36 36 36 36 36 36 35 35 35 35 35 35 34 34 34 34 34 35 37 37 38 38 39 38 37 37 36 35 34 34 33 33 33 34 34
35 35 35 36 36 36 36 36 36 36 36 36 35 35 35 35 35 35 35 35 35 34 34 34 36 37 38 38 39 39 39 38 37 36 35 35 35 35 34 35 35 35
32 35 35 35 35 36 36 35 35 36 36 36 35 34 34 34 34 34 35 35 35 35 34 35 37 38 38 39 40 40 39 38 38 37 36 35 35 35 36 36 36 35
27 31 34 35 35 35 35 36 36 36 36 36 35 34 34 34 34 34 34 35 35 35 36 36 38 39 39 39 40 39 39 38 38 37 37 37 37 37 37 37 37 37
25 28 31 33 35 35 36 36 36 36 37 37 36 36 35 35 35 35 35 35 36 36 37 38 39 40 40 40 40 39 39 39 38 38 37 37 38 38 38 37 38 38
25 28 31 33 35 36 36 36 37 37 37 37 37 36 36 35 35 34 34 35 35 37 38 39 40 40 40 40 41 40 39 39 39 37 36 37 38 38 37 37 37 38
23 29 35 36 36 37 37 36 37 36 36 36 35 35 35 34 34 34 34 35 35 36 37 39 40 40 40 40 41 41 40 40 39 37 37 37 37 37 36 36 36 37

ECMWFNIL_925_spd_090.txt.gz
Wind_Speed
35 35 35 35 33 32 31 30 29 26 24 23 23 22 21 20 18 17 17 17 17 17 17 15 13 12 10 10 10 10 9 8 8 8 8 9 9 8 7 7 8 7
37 36 35 34 33 32 32 31 30 28 26 25 23 21 20 20 19 18 17 17 17 18 17 16 15 13 12 11 11 12 11 10 9 9 9 9 9 8 8 7 8 8
38 37 36 35 35 34 33 32 31 31 28 27 25 23 21 21 20 19 18 18 18 18 17 17 15 14 13 12 12 13 13 12 10 9 9 9 9 9 8 8 8 8
38 38 37 37 37 36 34 33 32 32 31 29 28 26 24 22 21 21 20 19 18 18 18 17 16 15 14 13 13 13 14 13 11 10 10 10 10 10 9 9 8 8
39 39 39 38 37 36 35 33 33 33 33 32 30 28 27 25 23 22 22 21 20 19 19 18 17 16 15 15 14 14 14 15 13 12 12 12 11 11 10 9 9 8
38 39 39 38 37 36 35 35 35 34 34 34 32 30 29 27 26 24 23 22 21 21 20 19 18 18 17 16 16 15 15 16 15 14 15 14 13 13 12 11 10 10
38 38 38 38 37 36 37 36 35 34 34 34 33 31 30 28 28 27 25 24 23 22 22 21 20 19 18 17 17 17 17 17 17 16 17 16 15 15 14 14 13 13
38 38 38 38 37 36 37 37 37 36 35 33 32 32 31 30 30 29 28 27 26 25 24 23 22 21 19 18 18 19 18 18 19 19 19 18 18 17 17 16 16 16
37 37 37 37 37 37 37 37 38 38 36 35 34 33 32 31 31 30 30 29 28 27 26 25 24 23 22 21 20 20 20 20 21 21 21 21 21 20 19 18 18 19
36 36 35 36 36 37 38 38 38 38 38 37 36 34 32 31 31 31 31 30 30 29 28 27 27 26 25 24 23 22 21 21 21 22 23 23 23 23 22 21 21 21
35 35 34 35 36 37 37 38 37 36 37 37 37 35 34 32 31 30 30 31 31 31 30 29 29 28 27 26 26 25 24 24 23 23 24 24 25 25 24 24 24 24
35 35 35 36 36 36 37 37 36 35 35 36 36 36 35 34 32 31 31 31 32 32 31 30 29 29 28 28 28 28 27 26 26 26 26 26 26 26 25 25 25 25
36 36 37 37 37 37 36 35 35 35 35 35 35 35 35 34 33 32 33 33 33 33 32 31 30 30 29 29 29 29 29 29 28 28 28 28 28 28 27 26 25 24
38 37 37 37 36 36 35 34 34 34 35 35 34 34 34 35 34 34 33 33 34 34 33 33 32 31 31 31 31 30 30 30 30 30 30 30 30 30 29 27 26 24
37 36 36 35 35 34 34 34 34 34 34 34 34 34 34 34 34 33 32 32 33 34 34 33 33 33 33 32 32 32 31 32 31 31 31 31 31 31 30 29 28 26
36 35 35 34 34 34 34 34 34 34 33 33 34 34 34 34 33 32 32 32 32 33 33 33 34 34 34 33 33 33 33 32 32 32 32 32 31 31 31 30 29 28
35 35 34 34 35 35 34 34 34 34 33 34 34 34 34 34 33 32 32 32 32 33 33 34 35 35 35 35 34 34 33 33 33 33 32 32 32 31 31 31 30 29
34 34 34 34 35 35 35 35 34 34 34 34 34 35 34 34 33 33 33 33 32 33 33 34 36 36 36 35 35 34 34 34 34 33 33 32 32 32 32 31 30 30
34 33 33 34 34 34 34 34 33 33 34 35 35 35 34 34 34 35 34 34 33 33 34 35 36 37 37 36 35 35 34 34 34 34 33 33 33 33 32 32 31 30
35 34 34 34 35 34 33 33 33 34 35 35 35 34 34 34 35 35 35 35 35 35 35 36 37 38 37 37 36 35 34 34 34 34 34 34 33 33 33 33 32 31
35 36 36 36 36 35 34 33 33 33 34 34 34 34 35 35 36 36 36 36 36 36 36 37 38 39 38 37 37 36 35 34 34 34 34 34 34 34 34 34 33 33
36 36 36 36 35 34 34 34 33 32 31 31 31 32 34 35 35 35 36 36 36 36 36 37 39 40 39 38 38 36 35 34 34 35 35 35 35 34 34 35 34 34
35 35 35 35 34 34 35 37 38 37 34 30 29 29 31 33 35 36 36 36 36 36 37 38 40 40 40 39 39 37 35 34 35 35 35 35 35 35 35 35 35 35
30 33 34 34 35 35 36 37 39 40 39 36 33 32 32 33 34 35 36 36 36 37 38 39 40 40 39 39 39 37 36 35 36 36 36 36 36 36 36 36 36 36
25 29 32 33 35 36 36 35 36 36 37 37 37 36 37 37 36 35 35 36 37 38 38 39 40 39 38 39 39 38 37 36 36 36 36 36 36 36 36 36 37 37
18 25 30 32 34 35 36 36 34 33 33 35 36 37 38 38 38 37 37 36 37 37 38 38 39 38 38 39 39 38 38 37 36 36 36 36 35 35 35 35 36 37

ECMWFNIL_925_spd_093.txt.gz
Wind_Speed
35 34 32 30 29 28 26 25 24 23 22 21 19 17 16 15 13 13 12 11 12 12 13 12 11 11 10 9 8 8 7 7 6 6 5 5 6 6 6 6 6 6
36 35 34 32 31 30 28 27 26 25 24 23 21 18 16 15 14 14 13 12 12 12 12 13 13 12 11 10 10 9 9 9 8 7 6 5 6 6 6 6 7 7
36 36 35 34 33 31 29 28 28 26 25 25 24 21 18 16 15 15 14 13 12 12 12 12 13 13 12 12 11 10 10 10 10 9 7 6 6 6 6 6 6 7
37 37 36 35 34 33 31 29 28 27 26 26 26 24 21 18 17 16 16 15 14 13 12 12 12 13 13 13 12 11 11 11 11 11 10 8 7 7 7 7 7 7
37 37 37 36 34 34 32 30 29 29 28 28 27 26 24 21 19 18 18 17 15 14 14 13 13 13 13 13 13 13 12 11 12 13 12 10 9 8 8 8 8 7
37 37 37 36 35 34 33 32 31 30 29 28 28 27 26 24 22 21 20 19 18 17 16 15 14 14 14 14 14 14 14 12 11 13 14 13 11 9 9 9 9 8
36 37 37 36 35 34 34 33 33 32 30 30 29 28 27 27 25 24 23 22 21 20 19 17 16 15 15 15 16 15 15 14 14 14 14 14 14 12 11 10 10 10
33 34 36 35 33 32 33 34 34 33 32 31 30 29 28 28 28 27 25 24 23 22 21 20 18 17 16 17 17 16 16 16 16 16 15 15 15 15 13 12 12 12
32 31 33 33 30 29 31 32 32 34 34 32 32 31 30 30 29 29 28 26 24 23 22 22 21 20 19 18 19 18 18 17 17 17 16 16 16 16 15 13 13 13
31 30 29 29 28 28 30 30 29 31 34 34 32 30 31 31 30 30 30 28 26 25 24 24 24 23 22 21 21 20 20 20 18 18 18 17 17 16 15 14 14 14
30 28 26 27 29 28 29 29 27 26 30 34 33 30 31 32 32 32 31 30 29 28 28 27 26 26 25 25 24 23 22 22 21 20 20 19 19 18 17 17 16 16
29 28 27 28 29 29 28 28 27 25 27 31 33 31 31 32 32 33 33 33 33 32 31 30 29 28 28 28 26 25 25 24 23 23 22 22 22 21 20 19 19 18
30 30 29 28 29 30 28 26 26 26 26 29 32 31 31 30 30 33 35 35 35 35 34 34 33 31 31 30 29 27 27 26 25 24 24 24 24 23 21 20 20 20
33 31 29 29 29 30 30 27 26 27 27 29 30 30 30 30 29 31 33 35 35 35 36 35 35 34 32 31 31 30 29 28 27 27 25 25 26 25 23 22 21 20
34 30 28 29 29 31 33 31 27 27 29 30 31 31 30 29 28 28 29 32 34 35 36 35 35 34 34 33 32 32 31 30 29 29 27 26 26 25 23 23 24 22
35 33 31 30 32 34 36 34 31 28 29 30 32 33 31 30 30 28 27 29 31 33 34 35 35 36 36 35 34 33 32 31 30 31 30 28 27 26 23 23 24 24
35 36 35 33 36 36 36 36 34 31 30 32 32 32 32 33 32 30 28 27 27 29 31 32 34 37 37 36 35 34 33 32 31 31 31 30 28 27 25 23 23 24
35 34 34 35 36 36 36 36 35 32 32 32 31 31 32 32 30 30 31 29 26 26 28 29 32 36 37 36 35 35 33 32 30 27 26 27 27 27 26 24 23 22
35 33 33 35 36 36 36 35 34 34 34 33 32 31 31 30 30 30 31 31 28 27 28 28 29 33 36 36 35 34 33 33 31 27 24 24 25 26 26 24 24 23
33 33 33 34 36 36 35 33 34 36 37 35 31 29 29 31 31 29 30 32 32 30 30 29 28 31 35 36 35 34 33 33 32 30 25 24 25 26 25 25 25 26
31 32 33 33 34 34 33 33 34 35 35 33 29 28 30 34 34 31 30 33 34 32 31 30 30 32 35 35 35 35 33 33 33 32 29 25 25 27 28 28 27 27
28 31 32 32 31 30 30 31 32 35 35 33 28 26 27 30 32 32 32 34 34 33 31 30 31 33 35 36 36 35 33 33 33 34 33 29 26 27 29 31 31 30
24 26 29 30 28 27 28 30 32 34 34 32 29 26 25 25 27 29 30 31 32 32 32 32 32 34 36 36 36 34 33 33 34 35 35 32 29 28 29 32 33 33
19 22 24 25 26 26 28 30 31 31 32 33 31 29 27 26 25 26 27 28 29 30 32 32 32 33 36 37 36 35 34 34 35 35 34 33 31 29 29 31 34 34
14 19 22 22 24 26 28 28 28 29 32 34 33 30 28 26 24 24 25 26 28 29 31 32 30 30 33 35 35 35 34 35 36 35 33 31 30 29 29 30 33 35
13 16 20 22 23 24 25 24 26 27 28 29 29 28 27 26 25 24 24 25 26 26 28 31 30 29 30 33 34 34 34 35 36 35 33 31 30 29 27 27 30 33

ECMWFNIL_925_spd_096.txt.gz
Wind_Speed
20 19 19 18 17 15 14 13 13 13 12 12 12 11 11 10 9 10 9 9 9 9 9 9 9 8 8 7 7 7 6 6 5 5 5 6 6 6 7 7 7 6
21 20 19 18 17 17 16 15 13 13 13 13 12 11 11 11 10 10 10 10 9 10 10 10 9 9 9 8 8 8 7 7 7 6 6 6 5 6 7 7 7 7
22 21 21 20 19 18 18 16 15 14 14 13 14 13 12 11 11 10 10 10 10 10 10 10 10 10 10 10 9 9 8 8 8 7 6 6 6 5 6 7 7 7
23 22 22 22 21 19 18 17 17 16 15 14 14 14 13 12 11 11 11 11 11 10 10 10 10 10 11 11 10 10 9 9 9 8 7 7 6 6 7 6 7 7
24 24 23 22 21 19 18 18 19 18 17 16 15 15 14 13 13 12 11 12 12 11 11 11 10 10 11 11 11 11 10 10 10 10 9 9 8 8 7 7 7 7
24 24 24 22 21 20 19 20 20 19 18 17 16 15 15 15 15 14 13 12 13 12 12 12 11 11 11 11 12 12 11 10 10 10 11 10 10 9 8 8 8 8
24 24 24 23 22 22 21 21 20 20 19 18 17 17 16 16 16 16 15 14 13 13 13 12 12 12 12 11 12 12 12 11 10 10 11 11 11 10 10 9 8 8
24 24 24 24 23 23 22 22 21 21 20 19 18 18 18 17 17 17 17 16 15 14 14 13 13 13 12 12 12 12 12 12 11 11 12 12 11 11 11 11 10 10
23 23 23 24 24 23 23 23 22 21 21 20 20 19 18 19 19 18 17 17 17 16 15 14 14 14 13 13 13 13 13 12 11 11 12 12 12 12 12 12 12 11
23 23 23 24 24 24 24 23 22 21 21 22 22 20 19 20 20 20 19 19 19 18 17 17 16 15 15 14 14 14 13 13 12 12 13 12 12 12 12 12 13 13
23 23 23 24 24 24 24 24 23 22 21 22 23 22 21 20 20 21 20 21 21 20 20 21 19 18 17 16 16 15 15 14 14 14 14 13 13 13 13 13 13 14
23 23 24 24 24 24 24 24 23 23 22 22 22 23 23 21 20 20 21 22 24 23 22 23 23 21 20 19 18 16 16 16 15 15 15 15 15 14 14 14 14 14
24 24 24 24 24 24 23 23 23 23 23 22 22 22 23 23 22 21 21 22 24 25 23 23 24 23 23 23 21 19 18 17 17 17 16 16 16 15 15 15 15 15
24 24 24 23 23 23 23 22 22 23 23 22 21 21 23 23 23 22 21 21 23 24 23 22 22 22 23 24 23 21 20 19 18 18 18 17 17 17 16 16 16 16
23 23 22 23 22 22 23 23 22 22 23 22 21 21 21 22 23 23 22 22 21 22 22 22 22 22 22 23 23 22 22 21 20 20 20 19 19 18 17 17 17 17
21 21 21 21 23 23 23 23 23 22 22 22 22 22 21 21 21 22 22 22 21 21 21 22 22 23 24 26 27 25 22 21 21 21 20 20 20 19 19 18 18 18
20 20 21 21 22 23 23 23 23 22 22 22 22 21 21 20 20 21 22 22 21 21 21 22 22 23 25 29 31 31 27 22 20 20 20 20 20 20 20 19 19 19
20 20 21 22 22 22 22 22 22 22 22 22 22 22 22 21 21 22 23 23 22 22 22 22 22 23 26 29 32 33 32 27 22 19 19 20 20 20 20 19 19 19
20 20 21 22 23 22 21 20 20 22 23 23 23 23 21 22 23 24 24 24 24 24 24 24 23 24 27 30 32 32 32 31 27 22 21 20 20 20 20 20 19 18
19 20 21 21 21 22 21 20 21 22 24 23 23 22 22 23 24 25 25 25 26 26 26 26 25 26 28 31 32 32 31 31 30 26 23 22 21 20 20 20 20 19
20 20 21 21 21 20 21 22 23 23 24 23 22 22 23 24 25 25 25 26 26 26 26 26 26 27 29 32 33 32 31 31 30 28 25 24 23 22 22 21 20 20
19 21 20 20 20 21 21 22 24 24 24 24 23 23 23 23 24 24 25 26 26 25 25 25 26 27 29 32 33 33 31 30 31 29 26 25 24 24 23 23 22 22
14 18 21 21 20 21 23 23 24 25 25 24 23 23 24 24 24 24 24 25 25 25 25 26 26 26 28 30 32 32 31 30 30 27 25 25 25 24 24 23 24 24
15 15 18 21 22 22 23 24 24 24 24 23 24 24 24 25 24 23 23 23 25 25 26 26 26 26 27 30 31 32 32 32 30 25 23 24 24 24 25 24 25 26
16 16 16 17 21 23 24 24 23 23 23 22 23 23 24 24 24 24 24 24 24 25 25 26 26 25 27 30 32 32 33 33 30 24 23 24 23 24 24 25 25 26
14 15 16 17 17 19 22 22 20 21 21 22 22 23 23 23 23 24 25 25 24 24 25 26 26 25 26 29 31 32 34 34 31 26 24 24 23 23 24 24 25 25

ECMWFNIL_925_spd_099.txt.gz
Wind_Speed
18 18 17 16 15 14 14 13 13 13 12 11 11 10 10 9 9 9 9 9 8 8 7 6 6 6 5 5 5 4 3 3 4 4 4 5 5 5 5 5 5 4
20 18 17 17 16 15 15 14 14 13 13 12 12 11 11 11 10 9 9 9 9 9 8 8 7 7 7 6 6 6 4 5 5 4 4 5 5 5 5 6 6 5
22 20 19 18 18 17 17 15 15 14 14 13 13 13 12 12 12 11 10 10 9 9 9 9 8 8 8 7 7 7 6 6 6 5 4 5 5 5 5 6 6 7
23 22 21 20 19 18 17 17 16 15 15 15 15 14 13 12 13 13 12 11 10 10 10 10 10 9 10 9 8 8 7 7 7 7 5 5 6 6 6 6 6 6
24 23 22 21 19 19 18 18 18 17 16 16 16 16 15 15 14 14 14 13 12 11 11 11 11 10 10 10 10 9 9 8 8 8 8 7 7 7 6 6 6 6
24 23 22 21 20 20 19 19 19 18 17 17 17 17 17 17 16 15 15 15 14 13 13 12 12 11 11 11 11 11 10 9 8 9 9 9 8 8 7 7 7 7
23 23 23 21 21 21 20 20 19 19 18 18 17 17 17 18 18 17 16 15 15 15 14 13 13 12 12 12 12 11 11 10 9 9 10 9 9 9 8 8 7 8
22 22 22 22 21 22 22 21 20 20 19 19 19 19 18 18 19 19 18 17 16 16 15 14 14 14 13 12 12 12 12 11 11 11 11 10 10 10 10 9 9 9
22 22 22 22 22 22 22 22 21 21 20 20 20 20 20 19 19 19 20 19 18 17 16 15 15 15 15 14 13 13 13 12 11 11 12 11 11 11 11 11 11 11
23 23 22 23 23 23 22 23 23 22 21 22 21 21 21 21 20 20 20 20 20 19 18 17 17 16 16 15 15 14 14 14 13 12 12 12 12 12 12 12 12 12
23 23 24 24 23 23 23 23 23 23 22 23 23 22 22 21 22 21 21 21 21 21 20 20 19 18 18 17 16 16 16 15 14 13 13 13 13 13 12 12 13 13
24 23 24 25 24 24 24 23 23 23 23 23 23 24 23 22 22 22 22 22 22 22 22 22 21 20 20 19 18 18 17 16 16 15 15 14 14 14 14 13 14 14
23 24 24 25 25 24 24 24 24 24 24 23 23 24 24 24 23 23 23 24 23 23 23 23 23 22 21 21 20 20 19 18 18 17 16 16 16 16 15 15 15 15
21 23 23 23 24 24 24 24 24 24 24 23 23 23 24 25 25 24 23 23 24 24 24 24 24 24 24 23 23 22 21 20 19 19 18 17 17 17 17 17 17 17
18 20 20 21 23 23 24 25 25 24 24 24 24 24 24 24 25 25 24 24 24 24 25 25 24 25 25 25 25 24 24 23 22 21 20 19 19 19 18 18 18 18
16 17 19 21 21 22 23 24 24 25 25 25 25 24 24 24 24 25 25 25 25 25 25 25 25 26 27 28 28 26 25 25 24 24 23 22 21 20 20 20 20 20
16 17 19 20 20 21 22 22 23 24 24 25 26 26 26 25 24 25 26 25 25 25 25 25 26 26 28 30 31 30 28 25 24 24 24 24 23 23 22 22 22 22
18 16 18 21 21 20 22 23 22 22 23 24 26 26 26 26 25 25 26 26 26 26 26 26 26 27 29 31 33 34 33 29 25 24 24 24 24 24 24 24 23 24
20 19 18 20 22 22 22 22 23 23 23 24 24 25 25 25 26 25 25 26 26 26 27 27 27 27 30 32 34 35 36 34 29 25 24 24 24 24 25 25 24 24
17 22 23 21 22 23 23 23 23 23 24 24 24 24 24 24 25 25 25 25 25 26 27 27 28 28 30 33 35 35 36 36 34 29 26 26 25 24 25 25 25 25
12 17 22 22 21 22 22 24 24 23 23 23 23 23 24 24 25 25 25 25 25 25 26 27 28 29 29 32 35 37 36 36 36 32 28 27 27 26 26 25 25 25
12 14 15 15 17 20 21 21 22 22 22 22 22 22 23 23 23 24 24 25 25 25 25 26 28 29 30 32 34 36 36 36 37 34 28 26 27 27 27 27 25 25
14 14 15 15 13 14 16 18 20 20 19 19 19 20 21 22 23 23 23 23 25 25 25 26 26 27 30 32 33 35 35 36 37 33 28 26 26 26 27 27 27 28
16 16 15 14 15 15 12 14 19 19 16 15 16 17 19 20 20 21 22 23 23 25 25 26 25 26 29 31 32 34 35 37 37 32 26 25 26 26 26 27 28 30
17 17 16 14 14 16 15 10 14 17 15 13 14 18 21 20 18 20 22 22 23 24 25 26 26 26 28 30 32 34 35 37 36 31 26 25 25 25 26 27 28 29
17 17 16 15 13 12 14 14 12 13 15 15 16 20 25 25 23 23 24 25 25 24 24 26 27 27 28 29 32 34 36 38 37 30 26 26 25 24 25 26 26 28

ECMWFNIL_925_spd_102.txt.gz
Wind_Speed
20 20 18 17 16 15 14 15 14 13 13 13 13 13 13 13 13 14 14 13 12 11 10 10 9 8 8 8 8 8 7 7 7 7 7 6 6 6 5 5 5 4
22 21 20 18 17 16 16 15 15 14 14 13 12 13 13 12 12 13 13 13 12 11 11 10 10 9 9 8 8 8 7 7 6 7 7 7 6 6 5 6 6 5
23 22 21 20 19 18 17 16 16 15 15 14 13 13 13 13 13 13 13 13 12 12 12 11 10 10 10 9 9 9 8 8 8 7 7 7 7 6 6 6 6 7
24 22 22 20 19 20 19 18 17 17 16 15 15 14 14 14 14 14 14 14 13 13 13 12 11 11 11 10 10 10 9 8 9 8 7 8 7 6 6 6 6 7
25 24 22 21 20 20 21 19 19 18 17 17 17 16 15 15 16 16 15 15 14 14 13 13 13 12 12 12 11 10 9 9 9 9 9 8 8 7 6 7 7 6
25 25 24 23 21 21 22 21 20 19 19 19 19 18 17 17 17 16 16 16 15 15 14 14 14 13 12 13 13 11 10 9 10 10 10 9 8 8 7 7 8 7
24 25 25 24 22 22 22 22 22 21 20 20 20 21 20 19 18 18 18 17 16 16 15 15 15 14 13 13 13 13 12 11 10 10 11 10 10 9 9 8 8 9
24 24 25 24 23 23 23 22 23 23 22 21 21 21 22 22 21 20 19 19 18 17 16 16 16 15 14 14 14 14 13 12 12 12 11 11 11 11 10 9 9 10
23 23 24 24 23 23 24 23 23 23 23 23 22 21 22 23 23 22 21 20 19 19 18 17 17 17 16 15 15 15 15 14 13 14 14 13 12 12 12 11 11 11
24 24 23 24 24 24 24 24 23 23 24 24 23 22 22 23 23 23 23 22 21 20 20 20 19 18 18 17 16 16 16 16 15 14 15 15 14 14 13 13 13 13
22 23 24 24 24 23 24 25 24 23 24 25 24 23 23 24 24 23 24 25 25 22 21 22 21 20 20 19 18 18 17 16 16 15 15 15 15 15 15 14 15 15
21 22 23 24 25 24 23 24 25 24 23 24 25 24 23 24 25 25 24 25 27 26 23 23 23 22 22 21 20 19 19 18 17 17 17 16 16 16 16 16 16 16
20 20 19 19 20 23 24 23 24 25 25 24 25 26 24 23 24 26 26 26 27 27 26 25 25 25 24 23 23 21 20 20 19 18 19 18 18 18 17 17 17 17
15 16 19 20 19 20 24 25 24 24 25 25 25 26 25 24 24 25 26 26 25 27 27 26 26 27 26 25 25 24 21 21 21 21 20 20 20 20 19 19 19 19
12 15 21 24 23 23 22 24 26 25 25 25 25 25 26 25 24 24 25 26 26 26 27 26 26 27 28 27 27 27 25 23 22 22 22 21 21 21 20 20 20 20
11 14 16 22 25 24 22 22 24 25 24 25 25 25 25 26 26 25 24 25 27 27 27 26 25 26 28 29 29 29 28 26 24 24 24 23 23 22 22 22 21 21
9 13 15 16 19 21 21 21 22 23 24 24 24 25 24 24 26 26 25 23 24 27 27 26 25 25 27 30 31 31 30 28 27 26 25 25 25 24 24 23 22 22
8 11 13 13 14 16 17 18 19 21 22 21 21 22 24 23 23 25 26 25 24 24 25 26 26 26 27 29 31 32 32 30 28 27 26 26 27 27 27 26 25 24
7 9 11 11 13 15 15 15 17 17 16 18 25 24 20 21 23 24 24 25 26 25 24 25 26 28 28 28 30 32 33 33 30 27 26 26 26 27 28 27 27 26
11 9 10 12 13 14 15 15 18 18 14 15 21 26 24 21 19 22 23 25 26 27 26 25 24 26 29 31 31 32 33 35 34 30 27 26 26 26 26 27 27 28
17 14 14 14 14 13 14 13 16 18 17 19 21 20 20 21 20 20 23 25 27 28 28 28 26 26 27 30 33 34 33 34 36 35 31 28 27 26 25 26 26 26
16 16 16 16 15 12 13 12 10 15 19 20 21 20 21 22 22 22 23 23 25 27 27 28 29 29 28 28 30 32 34 35 36 37 35 32 29 28 27 27 27 26
14 15 15 15 15 11 9 9 8 10 15 18 20 20 19 21 24 25 24 22 23 25 26 27 27 27 29 30 29 28 30 35 37 37 36 34 31 30 28 27 27 28
13 14 13 13 13 9 8 9 10 9 10 14 18 19 19 21 24 24 24 23 23 23 24 26 27 26 25 26 29 28 28 31 36 36 34 33 31 30 29 28 27 27
13 12 11 10 11 9 8 9 11 10 9 11 14 16 16 18 20 21 20 22 22 21 22 24 25 26 25 23 24 27 27 28 32 34 32 31 30 28 28 28 29 29
13 12 12 12 12 12 11 11 12 11 10 11 12 13 12 12 15 17 18 18 19 19 20 20 19 20 24 25 25 26 26 27 29 31 31 30 29 27 26 25 25 27

ECMWFNIL_925_spd_105.txt.gz
Wind_Speed
20 19 17 16 16 17 17 17 16 16 15 16 16 15 16 15 13 15 15 13 13 11 11 12 12 11 10 10 11 12 11 10 10 9 8 8 8 8 6 5 7 8
21 20 19 17 17 16 17 17 16 16 15 15 15 14 14 14 14 16 16 14 13 12 12 12 12 11 11 11 11 12 11 11 10 9 9 9 8 8 7 6 6 7
22 21 21 19 19 18 17 17 17 16 15 14 14 14 14 13 13 16 17 15 13 13 12 12 12 12 11 10 11 11 11 11 10 9 9 10 9 8 7 7 7 7
22 22 22 21 20 19 17 17 18 17 16 15 15 14 13 13 12 13 16 15 13 13 13 12 11 11 11 10 9 10 10 10 9 9 8 8 9 9 8 7 8 8
23 22 23 22 21 20 19 18 18 18 18 17 16 15 14 15 14 13 15 15 13 12 14 13 11 10 11 10 10 9 9 9 8 8 8 8 8 8 8 8 8 8
24 23 22 22 21 20 20 20 20 19 19 18 18 17 15 16 17 17 16 16 14 13 14 14 12 12 11 11 11 11 10 9 8 8 9 10 9 8 8 7 8 8
24 25 23 22 21 21 21 22 21 20 19 19 19 18 17 16 18 19 19 18 17 16 15 14 14 14 13 12 12 12 12 10 9 10 10 11 10 9 10 9 9 9
21 25 25 23 22 21 21 22 22 21 20 20 19 19 19 18 18 19 19 18 17 18 17 16 16 15 15 15 14 13 13 12 12 12 11 11 11 10 11 11 10 9
18 22 24 25 25 23 22 22 22 23 21 20 20 20 20 19 19 19 19 17 17 17 17 17 18 18 16 16 16 15 14 14 14 14 13 12 12 11 11 12 11 10
19 19 19 22 26 25 23 22 21 23 23 22 21 20 21 22 21 21 20 19 19 19 18 18 19 20 19 17 18 17 17 16 15 15 15 15 15 14 14 14 14 13
20 18 16 17 21 23 23 23 22 22 23 24 24 22 22 22 23 24 23 22 22 21 21 20 20 21 21 20 19 19 18 18 16 16 17 17 17 17 16 15 15 15
18 18 15 13 15 18 19 19 21 24 24 24 25 25 24 23 24 25 25 24 24 23 22 22 22 22 23 22 21 20 20 19 18 18 18 18 18 17 16 16 16 16
15 16 15 14 14 16 15 13 13 17 22 25 27 27 25 24 24 26 27 26 25 25 25 24 24 24 24 24 23 21 21 21 21 20 19 19 19 19 18 17 17 18
12 13 12 12 14 15 16 15 11 11 13 19 25 29 30 27 25 26 28 29 28 27 27 27 26 26 25 25 25 24 23 23 23 23 22 22 21 21 21 20 20 20
8 9 10 10 11 12 13 15 15 13 13 12 16 24 30 31 29 27 27 29 30 29 29 29 30 29 28 27 27 26 26 25 25 26 25 25 24 24 23 23 22 22
2 6 8 6 4 6 9 12 16 18 15 12 10 13 19 25 29 29 29 29 31 31 31 31 32 32 31 31 30 30 29 28 28 27 27 27 27 26 25 25 24 24
7 4 2 2 2 2 7 11 16 20 19 15 13 12 12 15 20 22 23 25 29 33 33 32 33 34 33 32 32 32 32 32 31 31 29 28 29 29 29 28 27 26
14 12 8 5 3 1 6 9 11 16 18 17 17 16 13 13 16 18 18 17 20 28 34 34 34 34 34 33 32 32 32 33 34 34 33 32 30 30 31 30 30 29
16 14 13 10 7 3 3 7 10 14 17 17 17 17 15 14 16 19 20 18 16 19 27 34 35 34 34 33 32 32 32 33 34 35 35 36 35 33 33 32 32 32
16 12 10 10 8 6 5 5 8 11 14 16 16 15 16 16 18 21 23 23 20 18 19 26 32 34 34 35 34 32 31 32 35 36 36 36 37 36 36 35 34 34
16 12 8 8 8 7 6 6 8 10 13 15 16 16 16 17 19 21 22 24 25 23 19 19 23 25 27 30 33 35 34 33 34 37 38 37 37 37 37 37 36 35
14 13 10 9 9 8 7 8 8 11 13 15 16 17 17 18 18 19 20 21 24 25 22 21 20 20 18 18 21 26 32 36 37 38 38 38 38 37 37 37 37 36
12 12 12 12 12 11 10 10 10 11 13 14 15 15 15 16 17 18 19 20 21 22 22 21 21 21 20 19 17 17 20 26 33 37 39 39 39 39 38 38 37 36
13 12 14 15 14 14 12 12 13 14 14 13 12 13 13 13 15 16 17 18 19 19 19 19 19 20 22 26 27 25 22 21 23 28 33 37 39 40 39 39 39 38
14 13 13 14 13 13 12 10 11 13 13 12 11 11 12 12 12 14 15 16 16 16 15 14 17 21 25 29 31 32 31 29 26 24 28 33 37 38 38 39 39 39
13 13 13 13 11 11 11 10 9 10 11 11 11 11 11 11 11 12 13 14 13 13 12 13 17 21 23 26 28 29 31 33 32 29 28 30 34 35 36 37 38 39

ECMWFNIL_925_spd_108.txt.gz
Wind_Speed
21 21 21 21 21 19 21 24 24 22 21 20 19 18 17 14 12 12 12 11 10 9 9 9 9 9 9 9 9 10 10 11 10 10 11 11 11 11 10 9 7 7
23 20 20 22 23 21 21 23 23 22 22 20 18 17 16 14 13 13 13 12 11 10 9 10 10 10 9 9 9 10 10 11 11 9 9 9 9 10 10 9 8 8
26 22 21 22 24 24 22 22 22 21 21 20 18 18 17 15 14 14 13 13 13 12 11 11 11 11 10 10 11 11 11 12 12 10 10 10 10 10 10 10 10 9
28 26 24 22 22 23 23 22 22 21 20 20 19 19 19 17 16 16 15 15 15 14 13 12 12 12 12 12 12 12 12 13 13 11 11 11 11 11 11 11 11 11
29 28 26 24 23 22 22 22 22 22 21 20 19 19 20 19 18 18 17 18 18 16 14 14 14 12 13 14 14 13 12 13 13 13 12 11 11 11 12 12 12 12
29 29 28 26 24 23 23 22 22 22 22 21 19 18 20 20 19 18 17 18 20 18 16 16 15 14 13 13 15 14 12 12 12 12 12 12 11 11 11 11 12 11
29 29 28 27 26 24 24 23 22 22 22 22 21 19 20 20 19 19 18 17 20 19 17 16 16 15 13 13 14 15 14 13 12 11 12 13 13 13 13 12 12 11
29 29 28 27 26 25 25 25 24 23 22 22 22 21 21 21 21 21 20 19 19 20 18 17 16 16 15 14 15 16 15 14 14 14 13 13 13 14 13 12 12 13
29 29 28 27 27 26 26 26 25 24 24 23 24 23 23 22 22 22 22 22 21 21 20 19 18 18 17 16 17 18 17 16 15 15 15 15 15 14 13 12 13 14
28 28 29 28 28 27 27 26 26 26 26 25 25 24 24 24 23 22 22 24 24 24 22 21 21 20 19 19 19 19 19 19 17 17 17 17 17 16 14 13 14 15
23 25 27 29 29 28 27 27 26 25 26 27 26 25 25 24 24 24 23 24 25 25 23 21 21 22 22 22 21 20 20 19 19 18 18 18 19 19 17 17 16 16
15 20 23 26 27 27 27 27 26 24 24 26 27 26 25 24 25 26 25 25 25 25 24 22 20 20 21 22 23 23 22 21 20 20 20 19 19 19 19 19 19 19
21 23 21 21 23 23 24 25 26 25 23 24 26 27 27 26 25 26 27 27 26 26 25 24 23 22 22 22 22 24 24 23 22 22 21 21 20 20 20 20 20 20
26 26 22 19 19 20 21 21 22 22 20 20 22 25 28 28 27 28 28 29 29 29 28 27 26 25 25 24 24 25 25 26 25 24 23 23 23 22 21 22 22 21
24 24 22 20 20 20 20 20 20 19 17 17 16 19 24 27 28 28 29 30 31 31 30 30 29 28 28 27 27 27 27 28 27 27 26 25 25 25 24 24 23 23
19 18 17 18 19 19 18 20 21 21 19 17 14 12 14 20 25 27 27 29 31 32 33 32 32 31 30 29 29 28 28 29 29 29 29 28 27 26 27 27 26 26
11 10 11 12 13 14 16 17 20 21 20 18 16 13 11 13 19 25 27 27 28 30 32 33 34 33 32 31 31 30 30 31 31 31 31 30 30 29 29 30 29 29
9 8 8 8 8 8 10 12 13 15 16 16 16 16 14 13 15 19 24 27 27 27 29 32 34 35 34 34 33 32 32 32 33 33 33 32 32 32 32 32 31 31
9 9 8 7 6 5 6 6 7 8 9 10 11 14 16 17 16 16 18 22 24 24 24 27 30 33 35 36 35 34 34 34 35 35 34 34 34 34 34 34 34 34
8 7 7 7 5 4 4 4 3 3 3 5 7 10 13 15 17 18 18 18 20 21 20 21 22 25 29 33 36 37 36 36 36 36 35 35 35 35 35 35 35 35
10 10 9 8 7 6 4 4 4 2 1 1 3 6 9 11 14 16 17 18 19 19 19 20 20 20 21 24 29 34 36 37 37 37 37 36 36 36 36 36 35 35
10 11 12 11 11 10 9 8 7 6 5 4 4 4 6 8 10 13 15 16 18 19 20 22 23 22 21 19 20 25 32 36 38 38 38 37 37 37 37 37 37 36
12 12 13 12 12 13 13 12 11 10 8 7 6 6 6 6 7 9 11 13 15 17 20 22 24 25 24 21 19 20 24 31 35 38 40 40 40 39 38 37 36 37
13 13 13 13 13 13 14 15 14 14 13 10 8 7 7 7 7 7 8 10 12 14 16 19 22 23 21 21 21 21 21 25 29 33 36 38 39 39 39 38 38 38
13 13 13 13 14 14 15 15 14 14 15 13 10 8 9 8 7 7 8 9 10 11 13 15 17 18 17 17 19 19 20 22 24 27 29 31 32 33 33 34 36 37
14 14 14 14 15 16 15 15 15 14 14 14 12 9 9 10 8 7 8 9 9 11 13 14 15 15 14 14 16 16 18 20 22 24 26 27 27 28 29 30 31 33

ECMWFNIL_925_spd_111.txt.gz
Wind_Speed
18 18 19 18 18 19 20 20 20 19 18 18 18 17 16 14 13 12 12 11 12 12 12 11 11 10 9 9 9 10 10 9 8 7 7 7 8 8 7 7 5 6
19 19 19 19 19 19 19 20 20 20 20 18 17 16 16 14 13 13 13 12 13 12 12 12 11 11 10 10 10 9 9 9 8 7 7 7 6 6 7 6 6 6
22 21 20 20 20 20 19 18 19 20 20 19 18 16 15 15 14 13 13 13 14 13 12 12 11 11 11 11 10 9 8 8 8 8 8 7 6 6 7 6 7 7
25 24 22 21 20 20 20 18 19 20 20 20 19 18 16 15 14 14 13 14 15 14 13 12 12 12 12 12 11 10 9 9 9 9 9 9 8 8 8 8 8 8
27 27 25 22 20 19 20 21 20 19 20 20 19 18 18 16 16 16 15 15 15 15 14 13 13 13 12 12 12 12 12 12 11 11 11 11 10 10 9 8 9 9
27 28 28 25 21 20 21 22 22 21 20 20 19 19 18 18 18 17 17 17 17 16 16 15 15 14 13 13 12 13 13 13 12 12 12 12 11 11 10 9 9 10
27 28 30 27 23 21 21 22 23 22 21 21 20 19 19 19 20 20 19 18 18 18 18 17 17 16 15 14 13 14 14 13 12 12 12 13 12 12 11 11 10 10
28 28 30 29 26 23 22 22 22 23 22 21 22 21 20 20 20 21 21 20 20 19 19 19 18 17 16 15 15 14 14 14 13 12 13 13 13 13 12 12 11 12
27 27 28 29 28 26 25 24 23 23 22 22 22 22 22 22 21 21 22 22 21 20 19 20 20 19 17 16 16 15 15 15 14 14 14 14 14 14 13 12 12 12
26 25 26 28 29 28 27 26 25 25 23 23 23 23 23 24 23 23 22 23 22 21 21 21 21 21 19 18 18 17 17 16 15 15 15 15 16 16 15 14 14 14
25 25 25 27 28 28 28 28 27 26 26 25 25 24 24 25 25 24 24 24 25 24 23 23 23 22 21 21 20 19 19 18 17 17 17 17 17 17 17 17 16 16
27 27 28 28 28 27 27 27 27 27 27 27 27 26 26 26 26 26 26 26 26 26 26 25 25 24 24 23 22 22 22 21 20 20 19 18 18 18 17 18 18 18
28 29 29 28 27 26 25 25 26 27 27 27 27 27 27 28 28 28 28 28 28 27 27 27 26 26 25 24 23 23 23 23 22 22 22 21 21 20 19 18 18 19
29 28 26 24 23 23 23 24 24 26 27 28 28 28 29 29 29 29 29 28 28 28 28 28 27 27 27 26 24 23 23 24 24 24 24 24 23 23 21 21 20 20
25 26 24 22 21 21 21 21 21 22 24 28 30 30 29 29 28 29 30 30 30 29 29 29 29 29 28 28 27 25 24 24 25 25 25 26 26 25 24 24 23 22
20 20 20 20 21 22 21 20 19 19 19 23 27 29 29 28 28 29 30 31 32 31 30 30 30 30 30 29 29 28 27 27 27 27 27 27 28 28 28 27 26 25
13 12 11 12 14 17 18 19 19 19 17 18 21 23 23 23 23 25 27 29 31 32 31 31 31 32 31 31 30 30 29 29 29 29 29 29 30 30 30 30 29 28
4 3 3 2 3 6 10 15 17 18 19 22 25 23 20 19 18 19 21 24 26 29 30 30 31 32 31 31 31 31 31 31 31 32 31 31 32 31 32 31 31 30
11 9 7 4 3 3 3 7 11 12 14 20 25 24 20 18 19 17 17 18 20 23 26 28 30 30 31 31 30 31 31 32 33 33 33 33 33 33 33 33 32 32
13 14 12 10 7 7 6 1 7 7 9 12 16 16 15 15 16 17 17 16 17 19 21 23 25 26 27 27 28 29 30 31 33 33 34 34 35 34 34 34 34 33
15 15 14 14 13 11 10 5 1 4 8 10 10 10 11 12 12 13 14 14 15 15 17 18 19 19 19 21 22 24 25 28 30 32 33 34 35 35 35 35 35 34
16 15 14 13 12 11 11 8 6 5 6 8 9 8 8 10 10 8 8 9 10 11 12 14 15 15 16 17 18 19 19 21 25 28 31 33 34 35 35 35 35 35
14 14 14 13 12 11 11 9 7 7 8 7 8 7 6 6 7 5 4 5 6 6 8 9 10 11 14 16 17 17 17 18 20 21 24 27 30 32 33 34 34 34
13 14 14 14 14 14 13 11 10 8 7 7 7 5 4 4 5 5 5 5 6 6 7 8 8 8 9 10 11 11 12 15 17 18 20 21 23 25 28 30 31 33
13 14 15 15 16 16 14 12 12 10 7 5 6 6 6 8 9 8 8 8 7 7 7 7 7 7 7 8 7 7 8 10 12 15 17 19 20 21 22 23 25 27
12 13 14 15 16 16 14 12 12 11 8 7 8 10 12 13 14 13 12 12 12 11 9 9 10 9 8 7 7 6 6 7 9 12 14 15 17 18 19 20 21 22

ECMWFNIL_925_spd_114.txt.gz
Wind_Speed
16 14 15 17 18 17 15 15 14 13 12 11 11 10 11 11 9 8 8 7 8 9 8 8 9 9 9 8 8 8 9 9 8 7 7 6 6 6 6 5 5 4
18 15 15 17 18 17 15 14 13 13 13 12 11 10 10 10 10 9 8 8 9 9 9 9 9 9 9 9 9 9 9 9 8 7 7 7 6 6 5 5 5 5
18 17 16 16 17 16 14 13 13 13 13 13 13 12 11 10 10 10 9 9 9 9 9 10 10 10 10 10 10 10 10 10 9 9 9 8 7 6 5 5 5 5
20 19 17 16 15 15 13 13 13 13 13 14 14 13 12 11 11 11 11 11 10 10 10 10 10 11 11 11 11 11 11 11 10 9 9 9 8 8 7 6 6 6
22 20 19 17 16 16 15 14 14 14 13 13 12 13 13 13 12 12 12 12 11 11 12 12 12 11 11 12 12 13 13 12 11 10 11 11 10 9 9 8 8 7
24 22 21 20 18 18 17 16 15 15 15 14 12 12 13 13 13 13 13 13 12 12 12 13 13 12 12 12 13 14 14 13 12 12 13 13 12 12 10 9 10 9
26 25 23 22 21 21 20 18 16 16 16 15 14 13 13 13 13 13 13 13 13 13 13 14 14 14 14 14 14 15 15 14 14 14 15 14 14 13 12 11 11 11
26 26 25 24 24 24 23 21 18 16 16 16 17 16 14 14 14 13 13 13 14 14 14 14 15 15 15 16 16 16 16 15 15 15 16 15 14 14 13 12 13 12
26 25 24 24 24 24 25 23 20 17 15 16 17 17 16 15 15 14 14 14 14 14 15 16 16 16 16 16 17 17 17 16 16 15 16 15 15 15 14 13 13 13
26 25 25 24 24 24 26 25 23 19 17 16 16 17 17 16 16 15 15 15 15 15 16 16 16 16 15 16 17 17 17 17 16 16 16 16 16 15 15 14 15 15
27 26 25 24 24 24 25 26 25 22 20 18 17 17 17 17 16 17 17 17 17 17 17 17 17 17 17 17 17 18 18 18 18 18 18 17 17 17 16 16 15 16
26 26 26 25 24 23 23 24 24 24 23 22 20 19 19 19 18 19 19 19 19 18 18 18 18 18 19 19 19 20 20 20 20 20 19 19 19 19 18 17 17 17
24 24 24 23 21 20 20 20 21 22 23 23 22 21 20 20 20 20 21 21 20 20 20 20 20 20 21 21 22 22 22 23 22 22 21 21 20 20 19 19 19 19
19 18 17 17 17 15 14 15 17 19 21 22 22 21 20 19 18 19 20 21 21 22 22 22 22 22 22 23 23 24 24 24 24 24 23 22 21 21 20 20 20 20
12 14 15 16 18 18 16 14 14 16 18 19 19 20 20 19 17 17 18 20 22 22 23 23 24 25 25 24 24 24 25 25 25 25 25 24 23 23 22 22 21 21
9 10 14 17 19 21 21 19 16 14 16 17 17 18 18 18 18 17 18 20 22 23 24 24 25 27 27 27 26 26 26 26 27 27 27 27 26 26 25 25 24 23
9 9 12 14 16 18 18 18 15 15 17 18 16 15 15 15 15 15 16 17 19 21 24 25 26 27 28 29 29 28 28 28 29 29 29 29 29 29 29 28 27 26
4 6 7 7 9 11 11 10 10 14 20 21 18 16 15 14 13 12 12 13 14 16 19 22 26 28 28 29 30 30 30 29 30 30 31 31 31 31 31 30 30 29
11 10 9 7 5 4 5 5 5 8 14 17 16 17 18 17 16 14 11 10 10 11 13 15 20 25 28 30 30 30 29 29 30 31 31 31 31 31 31 31 30 30
17 17 16 13 12 10 7 5 3 4 7 8 9 10 12 15 17 16 14 13 12 12 13 14 14 17 21 25 27 28 27 27 28 29 30 31 31 31 31 31 31 30
17 17 16 15 14 14 13 10 7 3 2 3 4 4 5 7 9 11 14 15 15 15 16 17 17 15 16 18 20 21 21 21 22 24 26 28 29 30 30 30 30 30
20 18 17 15 12 11 11 10 9 7 6 4 2 0 2 3 4 5 8 10 11 11 12 14 15 15 15 18 18 17 17 17 17 17 18 20 22 23 24 26 26 27
20 20 20 18 14 11 10 9 8 9 8 8 7 6 3 2 2 3 5 6 5 5 6 7 6 4 8 15 17 16 16 16 16 16 16 16 16 16 17 17 18 19
19 18 18 18 16 15 13 10 9 11 11 10 10 11 10 9 8 8 8 9 11 10 6 5 8 6 1 7 10 11 12 12 14 14 14 15 15 14 13 13 13 13
18 17 17 17 17 17 16 14 14 15 15 15 15 15 15 14 13 14 14 14 16 16 12 10 8 4 3 5 5 4 6 7 10 11 12 12 13 13 12 12 12 12
17 17 17 18 18 18 18 17 18 18 18 18 17 17 16 15 15 16 17 17 17 18 15 12 10 7 7 7 7 6 5 3 4 6 7 8 10 11 12 12 11 11

ECMWFNIL_925_spd_117.txt.gz
Wind_Speed
15 14 11 10 11 11 11 11 10 9 8 7 7 7 8 10 9 8 7 6 6 6 6 6 6 7 7 6 6 6 6 6 6 6 6 6 6 5 5 5 5 5
17 16 13 11 11 10 11 11 10 9 8 6 6 6 6 7 8 7 6 5 5 5 5 6 6 7 7 6 6 6 6 7 6 6 7 6 6 5 5 5 5 5
19 18 15 12 10 9 9 10 10 9 8 7 7 6 6 6 7 7 6 5 5 4 5 5 6 6 6 6 7 6 7 7 6 6 7 7 6 5 5 5 5 6
21 19 17 13 10 9 9 10 10 9 8 8 7 7 7 7 6 6 6 5 5 5 5 5 6 6 6 7 7 7 7 7 7 6 7 7 7 7 6 5 6 6
22 20 18 15 12 10 10 10 10 9 8 8 7 7 7 7 6 6 6 5 5 5 5 6 6 7 7 7 7 7 7 7 7 8 8 7 7 7 6 6 7 7
22 21 19 16 14 11 10 11 11 10 9 8 7 7 6 6 7 7 6 5 5 5 6 6 6 7 7 7 7 8 8 7 7 8 9 8 8 8 7 8 8 8
21 21 19 17 15 14 12 12 12 11 10 9 8 8 7 6 6 7 6 6 6 6 6 6 6 7 8 8 8 9 9 9 9 10 10 9 9 9 9 8 9 9
18 19 19 18 16 15 14 13 14 14 12 10 9 9 8 8 7 7 7 6 7 7 7 7 7 7 8 9 9 10 10 9 9 10 10 9 10 10 10 9 9 10
17 17 18 17 17 17 16 14 14 15 15 12 10 9 9 9 9 8 8 7 8 8 7 7 8 8 9 9 9 10 10 10 9 9 9 9 9 10 9 9 9 10
17 16 15 16 16 16 16 15 13 14 16 15 11 9 9 9 9 9 9 9 9 9 9 9 9 9 10 10 10 10 10 10 10 10 10 10 10 10 9 9 9 10
16 14 14 15 16 15 15 15 12 12 14 15 13 10 9 9 10 10 10 10 10 10 11 11 10 10 11 11 11 11 11 11 11 12 12 12 12 12 11 11 11 11
16 15 14 14 14 14 13 13 13 12 12 13 14 13 11 10 10 11 12 12 12 12 12 12 11 12 12 12 12 12 12 12 13 13 14 14 14 13 13 13 13 13
13 13 13 12 13 13 12 11 10 10 10 11 12 13 13 12 12 12 14 14 14 14 13 12 12 12 13 14 13 14 14 14 14 14 15 15 15 14 13 13 13 13
10 11 13 15 15 15 14 11 9 10 11 11 11 11 12 12 12 12 12 13 14 14 13 12 12 12 13 13 14 14 15 15 16 16 16 15 16 16 15 14 15 14
10 12 15 16 16 15 14 13 12 12 12 12 12 11 11 11 12 12 11 11 12 13 13 12 13 13 12 12 13 14 15 15 16 17 17 17 17 17 17 17 17 16
11 12 15 17 17 16 15 15 15 14 12 13 13 13 13 14 14 15 13 11 12 12 12 12 13 13 13 12 12 13 13 14 15 17 18 19 19 19 19 19 18 18
13 14 15 15 15 16 16 16 16 16 15 15 13 13 14 14 14 15 14 13 12 12 12 12 11 12 14 14 13 12 12 11 13 15 16 18 19 19 20 20 18 18
14 14 13 12 13 13 13 14 15 17 17 17 15 14 13 12 12 13 14 13 12 12 10 8 8 12 15 15 15 14 12 11 11 11 12 14 15 16 18 19 19 18
10 10 9 9 9 10 9 9 10 11 13 14 14 15 13 11 10 11 12 12 10 9 7 4 5 9 11 12 13 13 13 12 11 11 11 12 14 15 16 17 19 20
10 9 8 7 7 7 6 6 6 5 6 6 7 8 9 9 9 9 10 10 9 8 6 4 6 9 9 9 10 11 11 12 12 11 11 11 13 15 15 16 18 18
13 13 11 10 8 7 8 8 7 6 6 5 4 4 4 5 6 6 6 7 7 7 5 5 9 13 12 12 13 12 11 11 11 11 11 11 12 13 13 15 16 16
12 13 13 12 10 8 8 9 9 8 7 6 5 3 2 2 2 2 3 4 4 5 5 5 7 10 12 13 14 14 13 12 11 11 11 12 12 12 13 13 13 14
14 12 12 12 10 9 9 10 9 9 9 9 8 8 7 7 6 5 3 3 3 5 6 5 2 2 4 6 8 9 9 9 9 10 10 11 11 12 13 13 13 13
17 15 13 11 9 8 9 10 10 9 10 11 12 13 14 13 11 10 8 7 7 7 7 5 5 4 3 3 3 3 3 3 4 6 6 7 7 8 9 10 11 12
19 18 15 12 11 11 11 11 12 11 11 12 14 14 14 13 11 11 9 7 7 7 5 4 4 2 2 3 4 3 2 1 1 2 3 4 5 5 6 6 7 8
19 19 18 16 16 15 15 14 14 14 14 14 14 14 13 12 12 12 11 9 7 7 6 6 6 4 3 3 3 3 2 2 2 2 3 4 5 6 6 7 7 6